<?xml version="1.0" encoding="UTF-8" standalone="no" ?>
<gpx xmlns="http://www.topografix.com/GPX/1/1" xmlns:xsi="http://www.w3.org/2001/XMLSchema-instance" xsi:schemaLocation="http://www.topografix.com/GPX/1/1 http://www.topografix.com/GPX/1/1/gpx.xsd" version="1.1" creator="VisuGPX - https://www.visugpx.com">
  <metadata>
    <name>VTT Malleval Roisey</name>
  </metadata>
  <trk>
    <name><![CDATA[VTT Malleval Roisey]]></name>
    <trkseg>
      <trkpt lat="45.2925" lon="4.73423">
        <ele>382.39999389648</ele>
        <time>2019-07-11T06:03:25Z</time>
      </trkpt>
      <trkpt lat="45.2925" lon="4.73423">
        <ele>382.39999389648</ele>
        <time>2019-07-11T06:03:26Z</time>
      </trkpt>
      <trkpt lat="45.29253" lon="4.73421">
        <ele>382.39999389648</ele>
        <time>2019-07-11T06:03:36Z</time>
      </trkpt>
      <trkpt lat="45.29247" lon="4.73397">
        <ele>382.39999389648</ele>
        <time>2019-07-11T06:03:45Z</time>
      </trkpt>
      <trkpt lat="45.29257" lon="4.73362">
        <ele>382.39999389648</ele>
        <time>2019-07-11T06:03:57Z</time>
      </trkpt>
      <trkpt lat="45.29302" lon="4.73305">
        <ele>384.39999389648</ele>
        <time>2019-07-11T06:04:12Z</time>
      </trkpt>
      <trkpt lat="45.29353" lon="4.73245">
        <ele>386.39999389648</ele>
        <time>2019-07-11T06:04:29Z</time>
      </trkpt>
      <trkpt lat="45.29391" lon="4.73197">
        <ele>389.39999389648</ele>
        <time>2019-07-11T06:04:42Z</time>
      </trkpt>
      <trkpt lat="45.29409" lon="4.73169">
        <ele>390.79998779297</ele>
        <time>2019-07-11T06:04:49Z</time>
      </trkpt>
      <trkpt lat="45.29405" lon="4.73141">
        <ele>392</ele>
        <time>2019-07-11T06:04:54Z</time>
      </trkpt>
      <trkpt lat="45.29388" lon="4.73034">
        <ele>394.79998779297</ele>
        <time>2019-07-11T06:05:15Z</time>
      </trkpt>
      <trkpt lat="45.29385" lon="4.73025">
        <ele>395.79998779297</ele>
        <time>2019-07-11T06:05:17Z</time>
      </trkpt>
      <trkpt lat="45.29403" lon="4.73023">
        <ele>397</ele>
        <time>2019-07-11T06:05:22Z</time>
      </trkpt>
      <trkpt lat="45.29408" lon="4.73023">
        <ele>397</ele>
        <time>2019-07-11T06:05:23Z</time>
      </trkpt>
      <trkpt lat="45.29413" lon="4.73023">
        <ele>397</ele>
        <time>2019-07-11T06:05:24Z</time>
      </trkpt>
      <trkpt lat="45.29443" lon="4.73019">
        <ele>397</ele>
        <time>2019-07-11T06:05:30Z</time>
      </trkpt>
      <trkpt lat="45.29457" lon="4.73015">
        <ele>397</ele>
        <time>2019-07-11T06:05:33Z</time>
      </trkpt>
      <trkpt lat="45.29471" lon="4.73015">
        <ele>397</ele>
        <time>2019-07-11T06:05:36Z</time>
      </trkpt>
      <trkpt lat="45.29581" lon="4.72998">
        <ele>397</ele>
        <time>2019-07-11T06:06:00Z</time>
      </trkpt>
      <trkpt lat="45.29657" lon="4.72967">
        <ele>399.20001220703</ele>
        <time>2019-07-11T06:06:21Z</time>
      </trkpt>
      <trkpt lat="45.29723" lon="4.72911">
        <ele>401.20001220703</ele>
        <time>2019-07-11T06:06:40Z</time>
      </trkpt>
      <trkpt lat="45.29778" lon="4.72868">
        <ele>401.20001220703</ele>
        <time>2019-07-11T06:06:52Z</time>
      </trkpt>
      <trkpt lat="45.29824" lon="4.72843">
        <ele>401.20001220703</ele>
        <time>2019-07-11T06:07:02Z</time>
      </trkpt>
      <trkpt lat="45.29878" lon="4.72827">
        <ele>401.20001220703</ele>
        <time>2019-07-11T06:07:11Z</time>
      </trkpt>
      <trkpt lat="45.29884" lon="4.72823">
        <ele>401.20001220703</ele>
        <time>2019-07-11T06:07:12Z</time>
      </trkpt>
      <trkpt lat="45.29948" lon="4.7279">
        <ele>401.20001220703</ele>
        <time>2019-07-11T06:07:24Z</time>
      </trkpt>
      <trkpt lat="45.30017" lon="4.72747">
        <ele>401.20001220703</ele>
        <time>2019-07-11T06:07:37Z</time>
      </trkpt>
      <trkpt lat="45.30122" lon="4.72696">
        <ele>401.20001220703</ele>
        <time>2019-07-11T06:07:56Z</time>
      </trkpt>
      <trkpt lat="45.3015" lon="4.72695">
        <ele>402.39999389648</ele>
        <time>2019-07-11T06:08:02Z</time>
      </trkpt>
      <trkpt lat="45.30159" lon="4.72695">
        <ele>403.39999389648</ele>
        <time>2019-07-11T06:08:04Z</time>
      </trkpt>
      <trkpt lat="45.3018" lon="4.72692">
        <ele>403.39999389648</ele>
        <time>2019-07-11T06:08:08Z</time>
      </trkpt>
      <trkpt lat="45.30207" lon="4.72686">
        <ele>403.39999389648</ele>
        <time>2019-07-11T06:08:13Z</time>
      </trkpt>
      <trkpt lat="45.30229" lon="4.72683">
        <ele>403.39999389648</ele>
        <time>2019-07-11T06:08:18Z</time>
      </trkpt>
      <trkpt lat="45.30259" lon="4.72675">
        <ele>403.39999389648</ele>
        <time>2019-07-11T06:08:23Z</time>
      </trkpt>
      <trkpt lat="45.30286" lon="4.72667">
        <ele>403.39999389648</ele>
        <time>2019-07-11T06:08:27Z</time>
      </trkpt>
      <trkpt lat="45.30327" lon="4.72681">
        <ele>402</ele>
        <time>2019-07-11T06:08:34Z</time>
      </trkpt>
      <trkpt lat="45.30363" lon="4.72722">
        <ele>400.20001220703</ele>
        <time>2019-07-11T06:08:41Z</time>
      </trkpt>
      <trkpt lat="45.30396" lon="4.72726">
        <ele>397</ele>
        <time>2019-07-11T06:08:46Z</time>
      </trkpt>
      <trkpt lat="45.30428" lon="4.72712">
        <ele>393.79998779297</ele>
        <time>2019-07-11T06:08:50Z</time>
      </trkpt>
      <trkpt lat="45.30436" lon="4.72709">
        <ele>393</ele>
        <time>2019-07-11T06:08:51Z</time>
      </trkpt>
      <trkpt lat="45.30483" lon="4.72707">
        <ele>389.39999389648</ele>
        <time>2019-07-11T06:08:56Z</time>
      </trkpt>
      <trkpt lat="45.30501" lon="4.72711">
        <ele>387.39999389648</ele>
        <time>2019-07-11T06:08:58Z</time>
      </trkpt>
      <trkpt lat="45.30555" lon="4.72728">
        <ele>384.60000610352</ele>
        <time>2019-07-11T06:09:04Z</time>
      </trkpt>
      <trkpt lat="45.30602" lon="4.72722">
        <ele>381.60000610352</ele>
        <time>2019-07-11T06:09:09Z</time>
      </trkpt>
      <trkpt lat="45.30617" lon="4.7272">
        <ele>381</ele>
        <time>2019-07-11T06:09:11Z</time>
      </trkpt>
      <trkpt lat="45.30642" lon="4.72707">
        <ele>381.39999389648</ele>
        <time>2019-07-11T06:09:16Z</time>
      </trkpt>
      <trkpt lat="45.30657" lon="4.72699">
        <ele>384.39999389648</ele>
        <time>2019-07-11T06:09:22Z</time>
      </trkpt>
      <trkpt lat="45.30672" lon="4.72708">
        <ele>385.39999389648</ele>
        <time>2019-07-11T06:09:27Z</time>
      </trkpt>
      <trkpt lat="45.30677" lon="4.72711">
        <ele>385.39999389648</ele>
        <time>2019-07-11T06:09:28Z</time>
      </trkpt>
      <trkpt lat="45.30707" lon="4.72712">
        <ele>385.39999389648</ele>
        <time>2019-07-11T06:09:36Z</time>
      </trkpt>
      <trkpt lat="45.30711" lon="4.72712">
        <ele>386.20001220703</ele>
        <time>2019-07-11T06:09:38Z</time>
      </trkpt>
      <trkpt lat="45.30739" lon="4.7272">
        <ele>389.39999389648</ele>
        <time>2019-07-11T06:09:52Z</time>
      </trkpt>
      <trkpt lat="45.3075" lon="4.72719">
        <ele>389.79998779297</ele>
        <time>2019-07-11T06:09:57Z</time>
      </trkpt>
      <trkpt lat="45.30777" lon="4.72705">
        <ele>391.79998779297</ele>
        <time>2019-07-11T06:10:10Z</time>
      </trkpt>
      <trkpt lat="45.30782" lon="4.72701">
        <ele>392.20001220703</ele>
        <time>2019-07-11T06:10:13Z</time>
      </trkpt>
      <trkpt lat="45.30828" lon="4.72697">
        <ele>394</ele>
        <time>2019-07-11T06:10:29Z</time>
      </trkpt>
      <trkpt lat="45.30836" lon="4.72698">
        <ele>394</ele>
        <time>2019-07-11T06:10:31Z</time>
      </trkpt>
      <trkpt lat="45.30897" lon="4.72725">
        <ele>394</ele>
        <time>2019-07-11T06:10:45Z</time>
      </trkpt>
      <trkpt lat="45.30985" lon="4.72744">
        <ele>390.79998779297</ele>
        <time>2019-07-11T06:10:58Z</time>
      </trkpt>
      <trkpt lat="45.31015" lon="4.72745">
        <ele>387.79998779297</ele>
        <time>2019-07-11T06:11:01Z</time>
      </trkpt>
      <trkpt lat="45.31044" lon="4.72743">
        <ele>385.60000610352</ele>
        <time>2019-07-11T06:11:04Z</time>
      </trkpt>
      <trkpt lat="45.31068" lon="4.7275">
        <ele>385</ele>
        <time>2019-07-11T06:11:07Z</time>
      </trkpt>
      <trkpt lat="45.31103" lon="4.72763">
        <ele>385</ele>
        <time>2019-07-11T06:11:12Z</time>
      </trkpt>
      <trkpt lat="45.31188" lon="4.72778">
        <ele>385.39999389648</ele>
        <time>2019-07-11T06:11:27Z</time>
      </trkpt>
      <trkpt lat="45.31294" lon="4.72792">
        <ele>387</ele>
        <time>2019-07-11T06:11:45Z</time>
      </trkpt>
      <trkpt lat="45.31485" lon="4.72813">
        <ele>389.39999389648</ele>
        <time>2019-07-11T06:12:21Z</time>
      </trkpt>
      <trkpt lat="45.31497" lon="4.72814">
        <ele>391</ele>
        <time>2019-07-11T06:12:25Z</time>
      </trkpt>
      <trkpt lat="45.31505" lon="4.72856">
        <ele>391</ele>
        <time>2019-07-11T06:12:33Z</time>
      </trkpt>
      <trkpt lat="45.31505" lon="4.72871">
        <ele>391</ele>
        <time>2019-07-11T06:12:35Z</time>
      </trkpt>
      <trkpt lat="45.31498" lon="4.72964">
        <ele>389</ele>
        <time>2019-07-11T06:12:44Z</time>
      </trkpt>
      <trkpt lat="45.315" lon="4.73002">
        <ele>387.60000610352</ele>
        <time>2019-07-11T06:12:48Z</time>
      </trkpt>
      <trkpt lat="45.31503" lon="4.7302">
        <ele>386.79998779297</ele>
        <time>2019-07-11T06:12:50Z</time>
      </trkpt>
      <trkpt lat="45.31507" lon="4.73064">
        <ele>386</ele>
        <time>2019-07-11T06:12:54Z</time>
      </trkpt>
      <trkpt lat="45.31507" lon="4.73095">
        <ele>384.60000610352</ele>
        <time>2019-07-11T06:12:57Z</time>
      </trkpt>
      <trkpt lat="45.31499" lon="4.73161">
        <ele>381</ele>
        <time>2019-07-11T06:13:03Z</time>
      </trkpt>
      <trkpt lat="45.31497" lon="4.73181">
        <ele>379.60000610352</ele>
        <time>2019-07-11T06:13:05Z</time>
      </trkpt>
      <trkpt lat="45.31495" lon="4.73229">
        <ele>376.60000610352</ele>
        <time>2019-07-11T06:13:09Z</time>
      </trkpt>
      <trkpt lat="45.31495" lon="4.73269">
        <ele>373.39999389648</ele>
        <time>2019-07-11T06:13:13Z</time>
      </trkpt>
      <trkpt lat="45.31498" lon="4.73286">
        <ele>370.79998779297</ele>
        <time>2019-07-11T06:13:17Z</time>
      </trkpt>
      <trkpt lat="45.31498" lon="4.73345">
        <ele>369</ele>
        <time>2019-07-11T06:13:24Z</time>
      </trkpt>
      <trkpt lat="45.31504" lon="4.73417">
        <ele>365.79998779297</ele>
        <time>2019-07-11T06:13:31Z</time>
      </trkpt>
      <trkpt lat="45.31506" lon="4.73463">
        <ele>365</ele>
        <time>2019-07-11T06:13:36Z</time>
      </trkpt>
      <trkpt lat="45.31495" lon="4.73512">
        <ele>362.79998779297</ele>
        <time>2019-07-11T06:13:43Z</time>
      </trkpt>
      <trkpt lat="45.31485" lon="4.73524">
        <ele>362.79998779297</ele>
        <time>2019-07-11T06:13:45Z</time>
      </trkpt>
      <trkpt lat="45.31475" lon="4.73536">
        <ele>362.39999389648</ele>
        <time>2019-07-11T06:13:47Z</time>
      </trkpt>
      <trkpt lat="45.31453" lon="4.7359">
        <ele>359.20001220703</ele>
        <time>2019-07-11T06:13:53Z</time>
      </trkpt>
      <trkpt lat="45.31434" lon="4.73648">
        <ele>356.20001220703</ele>
        <time>2019-07-11T06:13:59Z</time>
      </trkpt>
      <trkpt lat="45.31402" lon="4.73727">
        <ele>352.79998779297</ele>
        <time>2019-07-11T06:14:08Z</time>
      </trkpt>
      <trkpt lat="45.31376" lon="4.73785">
        <ele>349.60000610352</ele>
        <time>2019-07-11T06:14:15Z</time>
      </trkpt>
      <trkpt lat="45.31358" lon="4.73825">
        <ele>348.79998779297</ele>
        <time>2019-07-11T06:14:20Z</time>
      </trkpt>
      <trkpt lat="45.31335" lon="4.73857">
        <ele>347.60000610352</ele>
        <time>2019-07-11T06:14:27Z</time>
      </trkpt>
      <trkpt lat="45.31306" lon="4.73858">
        <ele>347.60000610352</ele>
        <time>2019-07-11T06:14:36Z</time>
      </trkpt>
      <trkpt lat="45.31281" lon="4.73857">
        <ele>347.60000610352</ele>
        <time>2019-07-11T06:14:40Z</time>
      </trkpt>
      <trkpt lat="45.31241" lon="4.73881">
        <ele>346</ele>
        <time>2019-07-11T06:14:46Z</time>
      </trkpt>
      <trkpt lat="45.31194" lon="4.73934">
        <ele>342.79998779297</ele>
        <time>2019-07-11T06:14:54Z</time>
      </trkpt>
      <trkpt lat="45.31175" lon="4.73957">
        <ele>339.79998779297</ele>
        <time>2019-07-11T06:14:58Z</time>
      </trkpt>
      <trkpt lat="45.31162" lon="4.73977">
        <ele>337.39999389648</ele>
        <time>2019-07-11T06:15:01Z</time>
      </trkpt>
      <trkpt lat="45.31154" lon="4.73998">
        <ele>335</ele>
        <time>2019-07-11T06:15:04Z</time>
      </trkpt>
      <trkpt lat="45.31152" lon="4.74019">
        <ele>333.39999389648</ele>
        <time>2019-07-11T06:15:08Z</time>
      </trkpt>
      <trkpt lat="45.31155" lon="4.74033">
        <ele>333.39999389648</ele>
        <time>2019-07-11T06:15:24Z</time>
      </trkpt>
      <trkpt lat="45.31153" lon="4.74036">
        <ele>333.39999389648</ele>
        <time>2019-07-11T06:15:26Z</time>
      </trkpt>
      <trkpt lat="45.31151" lon="4.74077">
        <ele>333.39999389648</ele>
        <time>2019-07-11T06:15:39Z</time>
      </trkpt>
      <trkpt lat="45.3115" lon="4.74164">
        <ele>335.79998779297</ele>
        <time>2019-07-11T06:15:56Z</time>
      </trkpt>
      <trkpt lat="45.31146" lon="4.74204">
        <ele>335.79998779297</ele>
        <time>2019-07-11T06:16:02Z</time>
      </trkpt>
      <trkpt lat="45.31141" lon="4.74257">
        <ele>335.79998779297</ele>
        <time>2019-07-11T06:16:10Z</time>
      </trkpt>
      <trkpt lat="45.31156" lon="4.74328">
        <ele>335.79998779297</ele>
        <time>2019-07-11T06:16:20Z</time>
      </trkpt>
      <trkpt lat="45.31164" lon="4.74361">
        <ele>335.79998779297</ele>
        <time>2019-07-11T06:16:25Z</time>
      </trkpt>
      <trkpt lat="45.31153" lon="4.74421">
        <ele>335.79998779297</ele>
        <time>2019-07-11T06:16:33Z</time>
      </trkpt>
      <trkpt lat="45.31148" lon="4.74445">
        <ele>335.79998779297</ele>
        <time>2019-07-11T06:16:36Z</time>
      </trkpt>
      <trkpt lat="45.3116" lon="4.74458">
        <ele>335.79998779297</ele>
        <time>2019-07-11T06:16:43Z</time>
      </trkpt>
      <trkpt lat="45.31193" lon="4.74432">
        <ele>334.79998779297</ele>
        <time>2019-07-11T06:16:50Z</time>
      </trkpt>
      <trkpt lat="45.31206" lon="4.74427">
        <ele>334</ele>
        <time>2019-07-11T06:16:52Z</time>
      </trkpt>
      <trkpt lat="45.31243" lon="4.74427">
        <ele>330.60000610352</ele>
        <time>2019-07-11T06:16:56Z</time>
      </trkpt>
      <trkpt lat="45.3125" lon="4.74429">
        <ele>329.79998779297</ele>
        <time>2019-07-11T06:16:57Z</time>
      </trkpt>
      <trkpt lat="45.31261" lon="4.74433">
        <ele>329</ele>
        <time>2019-07-11T06:16:59Z</time>
      </trkpt>
      <trkpt lat="45.31271" lon="4.74436">
        <ele>329.60000610352</ele>
        <time>2019-07-11T06:17:01Z</time>
      </trkpt>
      <trkpt lat="45.31287" lon="4.74455">
        <ele>332.79998779297</ele>
        <time>2019-07-11T06:17:07Z</time>
      </trkpt>
      <trkpt lat="45.31302" lon="4.74479">
        <ele>335.79998779297</ele>
        <time>2019-07-11T06:17:14Z</time>
      </trkpt>
      <trkpt lat="45.31317" lon="4.74504">
        <ele>338.79998779297</ele>
        <time>2019-07-11T06:17:23Z</time>
      </trkpt>
      <trkpt lat="45.31339" lon="4.74539">
        <ele>341.79998779297</ele>
        <time>2019-07-11T06:17:38Z</time>
      </trkpt>
      <trkpt lat="45.31374" lon="4.74558">
        <ele>344.79998779297</ele>
        <time>2019-07-11T06:17:53Z</time>
      </trkpt>
      <trkpt lat="45.31412" lon="4.74546">
        <ele>347.39999389648</ele>
        <time>2019-07-11T06:18:08Z</time>
      </trkpt>
      <trkpt lat="45.31438" lon="4.74517">
        <ele>350.60000610352</ele>
        <time>2019-07-11T06:18:23Z</time>
      </trkpt>
      <trkpt lat="45.31451" lon="4.74493">
        <ele>353.60000610352</ele>
        <time>2019-07-11T06:18:35Z</time>
      </trkpt>
      <trkpt lat="45.31471" lon="4.7441">
        <ele>356</ele>
        <time>2019-07-11T06:19:00Z</time>
      </trkpt>
      <trkpt lat="45.31495" lon="4.74376">
        <ele>359</ele>
        <time>2019-07-11T06:19:12Z</time>
      </trkpt>
      <trkpt lat="45.3155" lon="4.74303">
        <ele>359.79998779297</ele>
        <time>2019-07-11T06:19:31Z</time>
      </trkpt>
      <trkpt lat="45.31618" lon="4.74231">
        <ele>357.39999389648</ele>
        <time>2019-07-11T06:19:46Z</time>
      </trkpt>
      <trkpt lat="45.31731" lon="4.7411">
        <ele>357.39999389648</ele>
        <time>2019-07-11T06:20:14Z</time>
      </trkpt>
      <trkpt lat="45.31761" lon="4.74078">
        <ele>357.39999389648</ele>
        <time>2019-07-11T06:20:22Z</time>
      </trkpt>
      <trkpt lat="45.31797" lon="4.74039">
        <ele>359.20001220703</ele>
        <time>2019-07-11T06:20:35Z</time>
      </trkpt>
      <trkpt lat="45.31808" lon="4.74032">
        <ele>359.60000610352</ele>
        <time>2019-07-11T06:20:39Z</time>
      </trkpt>
      <trkpt lat="45.31856" lon="4.74029">
        <ele>359.60000610352</ele>
        <time>2019-07-11T06:20:49Z</time>
      </trkpt>
      <trkpt lat="45.31889" lon="4.74023">
        <ele>359.60000610352</ele>
        <time>2019-07-11T06:20:55Z</time>
      </trkpt>
      <trkpt lat="45.3192" lon="4.73994">
        <ele>359.60000610352</ele>
        <time>2019-07-11T06:21:05Z</time>
      </trkpt>
      <trkpt lat="45.31914" lon="4.73954">
        <ele>360.39999389648</ele>
        <time>2019-07-11T06:21:13Z</time>
      </trkpt>
      <trkpt lat="45.31909" lon="4.73921">
        <ele>363.60000610352</ele>
        <time>2019-07-11T06:21:21Z</time>
      </trkpt>
      <trkpt lat="45.31873" lon="4.73877">
        <ele>366.20001220703</ele>
        <time>2019-07-11T06:21:38Z</time>
      </trkpt>
      <trkpt lat="45.3183" lon="4.73812">
        <ele>368.20001220703</ele>
        <time>2019-07-11T06:21:56Z</time>
      </trkpt>
      <trkpt lat="45.31805" lon="4.73739">
        <ele>371.20001220703</ele>
        <time>2019-07-11T06:22:11Z</time>
      </trkpt>
      <trkpt lat="45.31784" lon="4.73681">
        <ele>372</ele>
        <time>2019-07-11T06:22:23Z</time>
      </trkpt>
      <trkpt lat="45.31753" lon="4.73554">
        <ele>374</ele>
        <time>2019-07-11T06:22:45Z</time>
      </trkpt>
      <trkpt lat="45.31769" lon="4.73533">
        <ele>374.79998779297</ele>
        <time>2019-07-11T06:22:51Z</time>
      </trkpt>
      <trkpt lat="45.31773" lon="4.73531">
        <ele>375.20001220703</ele>
        <time>2019-07-11T06:22:52Z</time>
      </trkpt>
      <trkpt lat="45.31816" lon="4.73506">
        <ele>378.20001220703</ele>
        <time>2019-07-11T06:23:04Z</time>
      </trkpt>
      <trkpt lat="45.3185" lon="4.73474">
        <ele>378.60000610352</ele>
        <time>2019-07-11T06:23:14Z</time>
      </trkpt>
      <trkpt lat="45.31865" lon="4.73464">
        <ele>380.20001220703</ele>
        <time>2019-07-11T06:23:18Z</time>
      </trkpt>
      <trkpt lat="45.31953" lon="4.73457">
        <ele>380.20001220703</ele>
        <time>2019-07-11T06:23:37Z</time>
      </trkpt>
      <trkpt lat="45.31986" lon="4.73443">
        <ele>380.20001220703</ele>
        <time>2019-07-11T06:23:44Z</time>
      </trkpt>
      <trkpt lat="45.32018" lon="4.73425">
        <ele>380.20001220703</ele>
        <time>2019-07-11T06:23:51Z</time>
      </trkpt>
      <trkpt lat="45.32074" lon="4.73381">
        <ele>380.20001220703</ele>
        <time>2019-07-11T06:24:05Z</time>
      </trkpt>
      <trkpt lat="45.32091" lon="4.73402">
        <ele>378.39999389648</ele>
        <time>2019-07-11T06:24:09Z</time>
      </trkpt>
      <trkpt lat="45.3212" lon="4.73439">
        <ele>378</ele>
        <time>2019-07-11T06:24:16Z</time>
      </trkpt>
      <trkpt lat="45.32155" lon="4.73497">
        <ele>375</ele>
        <time>2019-07-11T06:24:25Z</time>
      </trkpt>
      <trkpt lat="45.322" lon="4.73561">
        <ele>372</ele>
        <time>2019-07-11T06:24:34Z</time>
      </trkpt>
      <trkpt lat="45.32257" lon="4.73624">
        <ele>369</ele>
        <time>2019-07-11T06:24:44Z</time>
      </trkpt>
      <trkpt lat="45.32277" lon="4.73647">
        <ele>367.39999389648</ele>
        <time>2019-07-11T06:24:48Z</time>
      </trkpt>
      <trkpt lat="45.32294" lon="4.73673">
        <ele>367.39999389648</ele>
        <time>2019-07-11T06:24:52Z</time>
      </trkpt>
      <trkpt lat="45.32308" lon="4.73704">
        <ele>367.39999389648</ele>
        <time>2019-07-11T06:24:56Z</time>
      </trkpt>
      <trkpt lat="45.32335" lon="4.73759">
        <ele>367.39999389648</ele>
        <time>2019-07-11T06:25:04Z</time>
      </trkpt>
      <trkpt lat="45.32359" lon="4.73794">
        <ele>367.39999389648</ele>
        <time>2019-07-11T06:25:10Z</time>
      </trkpt>
      <trkpt lat="45.32373" lon="4.7381">
        <ele>367.39999389648</ele>
        <time>2019-07-11T06:25:13Z</time>
      </trkpt>
      <trkpt lat="45.32396" lon="4.7384">
        <ele>367.39999389648</ele>
        <time>2019-07-11T06:25:18Z</time>
      </trkpt>
      <trkpt lat="45.324" lon="4.7389">
        <ele>367</ele>
        <time>2019-07-11T06:25:25Z</time>
      </trkpt>
      <trkpt lat="45.324" lon="4.7393">
        <ele>365.39999389648</ele>
        <time>2019-07-11T06:25:31Z</time>
      </trkpt>
      <trkpt lat="45.32403" lon="4.7395">
        <ele>365.39999389648</ele>
        <time>2019-07-11T06:25:34Z</time>
      </trkpt>
      <trkpt lat="45.32426" lon="4.74022">
        <ele>365.39999389648</ele>
        <time>2019-07-11T06:25:45Z</time>
      </trkpt>
      <trkpt lat="45.3244" lon="4.74059">
        <ele>365.39999389648</ele>
        <time>2019-07-11T06:25:51Z</time>
      </trkpt>
      <trkpt lat="45.32456" lon="4.74077">
        <ele>364.39999389648</ele>
        <time>2019-07-11T06:25:55Z</time>
      </trkpt>
      <trkpt lat="45.32502" lon="4.74105">
        <ele>362</ele>
        <time>2019-07-11T06:26:03Z</time>
      </trkpt>
      <trkpt lat="45.32516" lon="4.74129">
        <ele>361</ele>
        <time>2019-07-11T06:26:13Z</time>
      </trkpt>
      <trkpt lat="45.32536" lon="4.74142">
        <ele>361</ele>
        <time>2019-07-11T06:26:18Z</time>
      </trkpt>
      <trkpt lat="45.32576" lon="4.74199">
        <ele>359</ele>
        <time>2019-07-11T06:26:27Z</time>
      </trkpt>
      <trkpt lat="45.32646" lon="4.74247">
        <ele>359</ele>
        <time>2019-07-11T06:26:41Z</time>
      </trkpt>
      <trkpt lat="45.32672" lon="4.74258">
        <ele>359</ele>
        <time>2019-07-11T06:26:46Z</time>
      </trkpt>
      <trkpt lat="45.32698" lon="4.7427">
        <ele>359</ele>
        <time>2019-07-11T06:26:52Z</time>
      </trkpt>
      <trkpt lat="45.32726" lon="4.74325">
        <ele>359</ele>
        <time>2019-07-11T06:27:01Z</time>
      </trkpt>
      <trkpt lat="45.32727" lon="4.74374">
        <ele>358</ele>
        <time>2019-07-11T06:27:07Z</time>
      </trkpt>
      <trkpt lat="45.32711" lon="4.74419">
        <ele>356.60000610352</ele>
        <time>2019-07-11T06:27:13Z</time>
      </trkpt>
      <trkpt lat="45.32708" lon="4.74486">
        <ele>355.79998779297</ele>
        <time>2019-07-11T06:27:20Z</time>
      </trkpt>
      <trkpt lat="45.32703" lon="4.74563">
        <ele>353</ele>
        <time>2019-07-11T06:27:27Z</time>
      </trkpt>
      <trkpt lat="45.32683" lon="4.74582">
        <ele>350</ele>
        <time>2019-07-11T06:27:31Z</time>
      </trkpt>
      <trkpt lat="45.32662" lon="4.74575">
        <ele>347.79998779297</ele>
        <time>2019-07-11T06:27:34Z</time>
      </trkpt>
      <trkpt lat="45.32654" lon="4.7457">
        <ele>347.20001220703</ele>
        <time>2019-07-11T06:27:35Z</time>
      </trkpt>
      <trkpt lat="45.32612" lon="4.74587">
        <ele>345</ele>
        <time>2019-07-11T06:27:41Z</time>
      </trkpt>
      <trkpt lat="45.32568" lon="4.74615">
        <ele>341.20001220703</ele>
        <time>2019-07-11T06:27:47Z</time>
      </trkpt>
      <trkpt lat="45.32559" lon="4.74616">
        <ele>340.39999389648</ele>
        <time>2019-07-11T06:27:48Z</time>
      </trkpt>
      <trkpt lat="45.32534" lon="4.74637">
        <ele>337.39999389648</ele>
        <time>2019-07-11T06:27:52Z</time>
      </trkpt>
      <trkpt lat="45.32534" lon="4.74687">
        <ele>334.60000610352</ele>
        <time>2019-07-11T06:27:57Z</time>
      </trkpt>
      <trkpt lat="45.32536" lon="4.747">
        <ele>334.20001220703</ele>
        <time>2019-07-11T06:27:58Z</time>
      </trkpt>
      <trkpt lat="45.32543" lon="4.74748">
        <ele>333.20001220703</ele>
        <time>2019-07-11T06:28:02Z</time>
      </trkpt>
      <trkpt lat="45.32541" lon="4.74802">
        <ele>332.79998779297</ele>
        <time>2019-07-11T06:28:07Z</time>
      </trkpt>
      <trkpt lat="45.32539" lon="4.74822">
        <ele>331.79998779297</ele>
        <time>2019-07-11T06:28:09Z</time>
      </trkpt>
      <trkpt lat="45.3253" lon="4.74855">
        <ele>331</ele>
        <time>2019-07-11T06:28:13Z</time>
      </trkpt>
      <trkpt lat="45.32499" lon="4.74923">
        <ele>330</ele>
        <time>2019-07-11T06:28:22Z</time>
      </trkpt>
      <trkpt lat="45.32517" lon="4.74978">
        <ele>326.60000610352</ele>
        <time>2019-07-11T06:28:27Z</time>
      </trkpt>
      <trkpt lat="45.32554" lon="4.75006">
        <ele>323</ele>
        <time>2019-07-11T06:28:31Z</time>
      </trkpt>
      <trkpt lat="45.32574" lon="4.75034">
        <ele>319.39999389648</ele>
        <time>2019-07-11T06:28:35Z</time>
      </trkpt>
      <trkpt lat="45.32577" lon="4.75053">
        <ele>317.60000610352</ele>
        <time>2019-07-11T06:28:37Z</time>
      </trkpt>
      <trkpt lat="45.32579" lon="4.75063">
        <ele>317.60000610352</ele>
        <time>2019-07-11T06:28:38Z</time>
      </trkpt>
      <trkpt lat="45.32574" lon="4.75112">
        <ele>316.60000610352</ele>
        <time>2019-07-11T06:28:42Z</time>
      </trkpt>
      <trkpt lat="45.3256" lon="4.75171">
        <ele>313.60000610352</ele>
        <time>2019-07-11T06:28:47Z</time>
      </trkpt>
      <trkpt lat="45.32541" lon="4.7525">
        <ele>311</ele>
        <time>2019-07-11T06:28:54Z</time>
      </trkpt>
      <trkpt lat="45.3254" lon="4.75298">
        <ele>310</ele>
        <time>2019-07-11T06:28:58Z</time>
      </trkpt>
      <trkpt lat="45.32542" lon="4.75336">
        <ele>307.39999389648</ele>
        <time>2019-07-11T06:29:01Z</time>
      </trkpt>
      <trkpt lat="45.32536" lon="4.75358">
        <ele>303.60000610352</ele>
        <time>2019-07-11T06:29:04Z</time>
      </trkpt>
      <trkpt lat="45.32526" lon="4.75366">
        <ele>301</ele>
        <time>2019-07-11T06:29:06Z</time>
      </trkpt>
      <trkpt lat="45.32519" lon="4.75371">
        <ele>300</ele>
        <time>2019-07-11T06:29:07Z</time>
      </trkpt>
      <trkpt lat="45.32506" lon="4.75388">
        <ele>296.79998779297</ele>
        <time>2019-07-11T06:29:09Z</time>
      </trkpt>
      <trkpt lat="45.32486" lon="4.75417">
        <ele>293</ele>
        <time>2019-07-11T06:29:12Z</time>
      </trkpt>
      <trkpt lat="45.3246" lon="4.75422">
        <ele>288.79998779297</ele>
        <time>2019-07-11T06:29:15Z</time>
      </trkpt>
      <trkpt lat="45.32451" lon="4.75421">
        <ele>287.39999389648</ele>
        <time>2019-07-11T06:29:16Z</time>
      </trkpt>
      <trkpt lat="45.32427" lon="4.75433">
        <ele>283.60000610352</ele>
        <time>2019-07-11T06:29:19Z</time>
      </trkpt>
      <trkpt lat="45.32395" lon="4.75463">
        <ele>280.39999389648</ele>
        <time>2019-07-11T06:29:23Z</time>
      </trkpt>
      <trkpt lat="45.32367" lon="4.75494">
        <ele>276.39999389648</ele>
        <time>2019-07-11T06:29:27Z</time>
      </trkpt>
      <trkpt lat="45.32348" lon="4.75503">
        <ele>272.60000610352</ele>
        <time>2019-07-11T06:29:30Z</time>
      </trkpt>
      <trkpt lat="45.32335" lon="4.75499">
        <ele>270.20001220703</ele>
        <time>2019-07-11T06:29:32Z</time>
      </trkpt>
      <trkpt lat="45.32328" lon="4.75496">
        <ele>269</ele>
        <time>2019-07-11T06:29:33Z</time>
      </trkpt>
      <trkpt lat="45.32318" lon="4.7549">
        <ele>266.20001220703</ele>
        <time>2019-07-11T06:29:35Z</time>
      </trkpt>
      <trkpt lat="45.32302" lon="4.7547">
        <ele>263</ele>
        <time>2019-07-11T06:29:39Z</time>
      </trkpt>
      <trkpt lat="45.32298" lon="4.75464">
        <ele>262.20001220703</ele>
        <time>2019-07-11T06:29:40Z</time>
      </trkpt>
      <trkpt lat="45.3228" lon="4.7544">
        <ele>260.39999389648</ele>
        <time>2019-07-11T06:29:44Z</time>
      </trkpt>
      <trkpt lat="45.32269" lon="4.75429">
        <ele>259.60000610352</ele>
        <time>2019-07-11T06:29:46Z</time>
      </trkpt>
      <trkpt lat="45.32252" lon="4.75422">
        <ele>258.39999389648</ele>
        <time>2019-07-11T06:29:49Z</time>
      </trkpt>
      <trkpt lat="45.32236" lon="4.75444">
        <ele>257.79998779297</ele>
        <time>2019-07-11T06:29:55Z</time>
      </trkpt>
      <trkpt lat="45.32243" lon="4.75481">
        <ele>257.79998779297</ele>
        <time>2019-07-11T06:30:00Z</time>
      </trkpt>
      <trkpt lat="45.32273" lon="4.7556">
        <ele>254.19999694824</ele>
        <time>2019-07-11T06:30:09Z</time>
      </trkpt>
      <trkpt lat="45.3228" lon="4.75577">
        <ele>252.60000610352</ele>
        <time>2019-07-11T06:30:11Z</time>
      </trkpt>
      <trkpt lat="45.3229" lon="4.75592">
        <ele>251.19999694824</ele>
        <time>2019-07-11T06:30:13Z</time>
      </trkpt>
      <trkpt lat="45.32304" lon="4.75611">
        <ele>248.19999694824</ele>
        <time>2019-07-11T06:30:17Z</time>
      </trkpt>
      <trkpt lat="45.32306" lon="4.75614">
        <ele>247.39999389648</ele>
        <time>2019-07-11T06:30:18Z</time>
      </trkpt>
      <trkpt lat="45.32323" lon="4.75644">
        <ele>243.60000610352</ele>
        <time>2019-07-11T06:30:23Z</time>
      </trkpt>
      <trkpt lat="45.32308" lon="4.75655">
        <ele>240.60000610352</ele>
        <time>2019-07-11T06:30:28Z</time>
      </trkpt>
      <trkpt lat="45.32298" lon="4.75653">
        <ele>239.39999389648</ele>
        <time>2019-07-11T06:30:30Z</time>
      </trkpt>
      <trkpt lat="45.32264" lon="4.75632">
        <ele>237</ele>
        <time>2019-07-11T06:30:36Z</time>
      </trkpt>
      <trkpt lat="45.32227" lon="4.75631">
        <ele>233.80000305176</ele>
        <time>2019-07-11T06:30:42Z</time>
      </trkpt>
      <trkpt lat="45.32216" lon="4.75642">
        <ele>232.80000305176</ele>
        <time>2019-07-11T06:30:44Z</time>
      </trkpt>
      <trkpt lat="45.32211" lon="4.75647">
        <ele>232.19999694824</ele>
        <time>2019-07-11T06:30:45Z</time>
      </trkpt>
      <trkpt lat="45.32201" lon="4.75655">
        <ele>230.60000610352</ele>
        <time>2019-07-11T06:30:47Z</time>
      </trkpt>
      <trkpt lat="45.32187" lon="4.75672">
        <ele>227.19999694824</ele>
        <time>2019-07-11T06:30:51Z</time>
      </trkpt>
      <trkpt lat="45.32184" lon="4.7569">
        <ele>223.80000305176</ele>
        <time>2019-07-11T06:30:56Z</time>
      </trkpt>
      <trkpt lat="45.32184" lon="4.75696">
        <ele>223</ele>
        <time>2019-07-11T06:30:57Z</time>
      </trkpt>
      <trkpt lat="45.32197" lon="4.75719">
        <ele>219.60000610352</ele>
        <time>2019-07-11T06:31:03Z</time>
      </trkpt>
      <trkpt lat="45.32199" lon="4.75724">
        <ele>218.80000305176</ele>
        <time>2019-07-11T06:31:04Z</time>
      </trkpt>
      <trkpt lat="45.32208" lon="4.75736">
        <ele>215.60000610352</ele>
        <time>2019-07-11T06:31:10Z</time>
      </trkpt>
      <trkpt lat="45.32208" lon="4.75736">
        <ele>214.80000305176</ele>
        <time>2019-07-11T06:31:42Z</time>
      </trkpt>
      <trkpt lat="45.32209" lon="4.75736">
        <ele>214.80000305176</ele>
        <time>2019-07-11T06:31:59Z</time>
      </trkpt>
      <trkpt lat="45.32219" lon="4.75775">
        <ele>212.39999389648</ele>
        <time>2019-07-11T06:32:09Z</time>
      </trkpt>
      <trkpt lat="45.32219" lon="4.75792">
        <ele>211.60000610352</ele>
        <time>2019-07-11T06:32:12Z</time>
      </trkpt>
      <trkpt lat="45.32218" lon="4.75798">
        <ele>211.19999694824</ele>
        <time>2019-07-11T06:32:13Z</time>
      </trkpt>
      <trkpt lat="45.32203" lon="4.75833">
        <ele>208</ele>
        <time>2019-07-11T06:32:18Z</time>
      </trkpt>
      <trkpt lat="45.32191" lon="4.75868">
        <ele>205.80000305176</ele>
        <time>2019-07-11T06:32:22Z</time>
      </trkpt>
      <trkpt lat="45.32171" lon="4.75891">
        <ele>203.80000305176</ele>
        <time>2019-07-11T06:32:26Z</time>
      </trkpt>
      <trkpt lat="45.32164" lon="4.75894">
        <ele>203.80000305176</ele>
        <time>2019-07-11T06:32:27Z</time>
      </trkpt>
      <trkpt lat="45.32135" lon="4.7593">
        <ele>201.60000610352</ele>
        <time>2019-07-11T06:32:33Z</time>
      </trkpt>
      <trkpt lat="45.32125" lon="4.75958">
        <ele>200</ele>
        <time>2019-07-11T06:32:36Z</time>
      </trkpt>
      <trkpt lat="45.32101" lon="4.75989">
        <ele>196.60000610352</ele>
        <time>2019-07-11T06:32:41Z</time>
      </trkpt>
      <trkpt lat="45.32095" lon="4.75993">
        <ele>195.80000305176</ele>
        <time>2019-07-11T06:32:42Z</time>
      </trkpt>
      <trkpt lat="45.32082" lon="4.76005">
        <ele>193.60000610352</ele>
        <time>2019-07-11T06:32:45Z</time>
      </trkpt>
      <trkpt lat="45.32068" lon="4.76019">
        <ele>190</ele>
        <time>2019-07-11T06:32:49Z</time>
      </trkpt>
      <trkpt lat="45.32057" lon="4.76029">
        <ele>186.80000305176</ele>
        <time>2019-07-11T06:32:52Z</time>
      </trkpt>
      <trkpt lat="45.32054" lon="4.76032">
        <ele>186.80000305176</ele>
        <time>2019-07-11T06:32:53Z</time>
      </trkpt>
      <trkpt lat="45.32049" lon="4.76036">
        <ele>186.19999694824</ele>
        <time>2019-07-11T06:32:54Z</time>
      </trkpt>
      <trkpt lat="45.32038" lon="4.76045">
        <ele>185</ele>
        <time>2019-07-11T06:32:56Z</time>
      </trkpt>
      <trkpt lat="45.32013" lon="4.76062">
        <ele>181.80000305176</ele>
        <time>2019-07-11T06:33:01Z</time>
      </trkpt>
      <trkpt lat="45.31995" lon="4.76071">
        <ele>179.19999694824</ele>
        <time>2019-07-11T06:33:05Z</time>
      </trkpt>
      <trkpt lat="45.31968" lon="4.76091">
        <ele>176</ele>
        <time>2019-07-11T06:33:11Z</time>
      </trkpt>
      <trkpt lat="45.31951" lon="4.76108">
        <ele>172</ele>
        <time>2019-07-11T06:33:16Z</time>
      </trkpt>
      <trkpt lat="45.31942" lon="4.76118">
        <ele>169.80000305176</ele>
        <time>2019-07-11T06:33:19Z</time>
      </trkpt>
      <trkpt lat="45.31925" lon="4.76134">
        <ele>166.39999389648</ele>
        <time>2019-07-11T06:33:24Z</time>
      </trkpt>
      <trkpt lat="45.31911" lon="4.76153">
        <ele>163</ele>
        <time>2019-07-11T06:33:30Z</time>
      </trkpt>
      <trkpt lat="45.31914" lon="4.76176">
        <ele>159.60000610352</ele>
        <time>2019-07-11T06:33:38Z</time>
      </trkpt>
      <trkpt lat="45.31932" lon="4.76175">
        <ele>158.80000305176</ele>
        <time>2019-07-11T06:33:44Z</time>
      </trkpt>
      <trkpt lat="45.31937" lon="4.76172">
        <ele>158.39999389648</ele>
        <time>2019-07-11T06:33:45Z</time>
      </trkpt>
      <trkpt lat="45.31951" lon="4.76163">
        <ele>157.19999694824</ele>
        <time>2019-07-11T06:33:50Z</time>
      </trkpt>
      <trkpt lat="45.31955" lon="4.76158">
        <ele>157.19999694824</ele>
        <time>2019-07-11T06:33:53Z</time>
      </trkpt>
      <trkpt lat="45.3198" lon="4.7614">
        <ele>157.19999694824</ele>
        <time>2019-07-11T06:34:05Z</time>
      </trkpt>
      <trkpt lat="45.32002" lon="4.76125">
        <ele>157.19999694824</ele>
        <time>2019-07-11T06:34:11Z</time>
      </trkpt>
      <trkpt lat="45.32013" lon="4.76119">
        <ele>157.19999694824</ele>
        <time>2019-07-11T06:34:14Z</time>
      </trkpt>
      <trkpt lat="45.32038" lon="4.76123">
        <ele>156.60000610352</ele>
        <time>2019-07-11T06:34:22Z</time>
      </trkpt>
      <trkpt lat="45.32017" lon="4.76134">
        <ele>154.80000305176</ele>
        <time>2019-07-11T06:34:27Z</time>
      </trkpt>
      <trkpt lat="45.31995" lon="4.76151">
        <ele>153.60000610352</ele>
        <time>2019-07-11T06:34:32Z</time>
      </trkpt>
      <trkpt lat="45.31962" lon="4.76208">
        <ele>150.60000610352</ele>
        <time>2019-07-11T06:34:40Z</time>
      </trkpt>
      <trkpt lat="45.31964" lon="4.76218">
        <ele>150</ele>
        <time>2019-07-11T06:34:41Z</time>
      </trkpt>
      <trkpt lat="45.31966" lon="4.76227">
        <ele>150</ele>
        <time>2019-07-11T06:34:42Z</time>
      </trkpt>
      <trkpt lat="45.31979" lon="4.76245">
        <ele>148.80000305176</ele>
        <time>2019-07-11T06:34:45Z</time>
      </trkpt>
      <trkpt lat="45.32018" lon="4.76296">
        <ele>146.60000610352</ele>
        <time>2019-07-11T06:34:53Z</time>
      </trkpt>
      <trkpt lat="45.32013" lon="4.76338">
        <ele>145.80000305176</ele>
        <time>2019-07-11T06:35:02Z</time>
      </trkpt>
      <trkpt lat="45.31987" lon="4.76365">
        <ele>145.80000305176</ele>
        <time>2019-07-11T06:35:19Z</time>
      </trkpt>
      <trkpt lat="45.31987" lon="4.76366">
        <ele>145.80000305176</ele>
        <time>2019-07-11T06:35:28Z</time>
      </trkpt>
      <trkpt lat="45.31988" lon="4.7637">
        <ele>145.80000305176</ele>
        <time>2019-07-11T06:35:40Z</time>
      </trkpt>
      <trkpt lat="45.31987" lon="4.76369">
        <ele>145.80000305176</ele>
        <time>2019-07-11T06:37:44Z</time>
      </trkpt>
      <trkpt lat="45.31989" lon="4.76368">
        <ele>145.80000305176</ele>
        <time>2019-07-11T06:38:14Z</time>
      </trkpt>
      <trkpt lat="45.32027" lon="4.76316">
        <ele>145.80000305176</ele>
        <time>2019-07-11T06:38:31Z</time>
      </trkpt>
      <trkpt lat="45.32014" lon="4.76278">
        <ele>145.80000305176</ele>
        <time>2019-07-11T06:38:38Z</time>
      </trkpt>
      <trkpt lat="45.3199" lon="4.76241">
        <ele>145.80000305176</ele>
        <time>2019-07-11T06:38:47Z</time>
      </trkpt>
      <trkpt lat="45.31982" lon="4.76228">
        <ele>145.80000305176</ele>
        <time>2019-07-11T06:38:50Z</time>
      </trkpt>
      <trkpt lat="45.31994" lon="4.76213">
        <ele>146.19999694824</ele>
        <time>2019-07-11T06:38:56Z</time>
      </trkpt>
      <trkpt lat="45.32005" lon="4.76205">
        <ele>148</ele>
        <time>2019-07-11T06:39:00Z</time>
      </trkpt>
      <trkpt lat="45.32047" lon="4.76177">
        <ele>150.19999694824</ele>
        <time>2019-07-11T06:39:19Z</time>
      </trkpt>
      <trkpt lat="45.32045" lon="4.76174">
        <ele>150.19999694824</ele>
        <time>2019-07-11T06:39:23Z</time>
      </trkpt>
      <trkpt lat="45.32027" lon="4.76185">
        <ele>150.19999694824</ele>
        <time>2019-07-11T06:39:29Z</time>
      </trkpt>
      <trkpt lat="45.3197" lon="4.76209">
        <ele>149.19999694824</ele>
        <time>2019-07-11T06:39:41Z</time>
      </trkpt>
      <trkpt lat="45.31976" lon="4.76171">
        <ele>147.80000305176</ele>
        <time>2019-07-11T06:39:48Z</time>
      </trkpt>
      <trkpt lat="45.3199" lon="4.76157">
        <ele>149.60000610352</ele>
        <time>2019-07-11T06:39:53Z</time>
      </trkpt>
      <trkpt lat="45.32047" lon="4.76112">
        <ele>152.60000610352</ele>
        <time>2019-07-11T06:40:11Z</time>
      </trkpt>
      <trkpt lat="45.32057" lon="4.76105">
        <ele>154</ele>
        <time>2019-07-11T06:40:14Z</time>
      </trkpt>
      <trkpt lat="45.32131" lon="4.76054">
        <ele>154.39999389648</ele>
        <time>2019-07-11T06:40:31Z</time>
      </trkpt>
      <trkpt lat="45.32168" lon="4.76031">
        <ele>154.39999389648</ele>
        <time>2019-07-11T06:40:40Z</time>
      </trkpt>
      <trkpt lat="45.32193" lon="4.75994">
        <ele>154.39999389648</ele>
        <time>2019-07-11T06:40:48Z</time>
      </trkpt>
      <trkpt lat="45.32251" lon="4.75947">
        <ele>154.39999389648</ele>
        <time>2019-07-11T06:41:01Z</time>
      </trkpt>
      <trkpt lat="45.32269" lon="4.75938">
        <ele>154.39999389648</ele>
        <time>2019-07-11T06:41:04Z</time>
      </trkpt>
      <trkpt lat="45.32303" lon="4.75937">
        <ele>152.39999389648</ele>
        <time>2019-07-11T06:41:09Z</time>
      </trkpt>
      <trkpt lat="45.3233" lon="4.75972">
        <ele>150.19999694824</ele>
        <time>2019-07-11T06:41:16Z</time>
      </trkpt>
      <trkpt lat="45.32341" lon="4.76005">
        <ele>148</ele>
        <time>2019-07-11T06:41:24Z</time>
      </trkpt>
      <trkpt lat="45.32375" lon="4.75993">
        <ele>148</ele>
        <time>2019-07-11T06:41:33Z</time>
      </trkpt>
      <trkpt lat="45.32406" lon="4.75979">
        <ele>148</ele>
        <time>2019-07-11T06:41:40Z</time>
      </trkpt>
      <trkpt lat="45.32498" lon="4.75928">
        <ele>148</ele>
        <time>2019-07-11T06:42:00Z</time>
      </trkpt>
      <trkpt lat="45.32556" lon="4.75878">
        <ele>148</ele>
        <time>2019-07-11T06:42:13Z</time>
      </trkpt>
      <trkpt lat="45.32735" lon="4.7574">
        <ele>148</ele>
        <time>2019-07-11T06:42:51Z</time>
      </trkpt>
      <trkpt lat="45.32767" lon="4.75719">
        <ele>148</ele>
        <time>2019-07-11T06:42:57Z</time>
      </trkpt>
      <trkpt lat="45.3282" lon="4.75694">
        <ele>148</ele>
        <time>2019-07-11T06:43:07Z</time>
      </trkpt>
      <trkpt lat="45.32851" lon="4.75674">
        <ele>151.19999694824</ele>
        <time>2019-07-11T06:43:17Z</time>
      </trkpt>
      <trkpt lat="45.32862" lon="4.7564">
        <ele>152.19999694824</ele>
        <time>2019-07-11T06:43:24Z</time>
      </trkpt>
      <trkpt lat="45.32897" lon="4.75629">
        <ele>152.19999694824</ele>
        <time>2019-07-11T06:43:32Z</time>
      </trkpt>
      <trkpt lat="45.32941" lon="4.75621">
        <ele>152.19999694824</ele>
        <time>2019-07-11T06:43:44Z</time>
      </trkpt>
      <trkpt lat="45.33001" lon="4.75604">
        <ele>154.19999694824</ele>
        <time>2019-07-11T06:43:59Z</time>
      </trkpt>
      <trkpt lat="45.33064" lon="4.75575">
        <ele>156.80000305176</ele>
        <time>2019-07-11T06:44:19Z</time>
      </trkpt>
      <trkpt lat="45.3312" lon="4.75528">
        <ele>158.80000305176</ele>
        <time>2019-07-11T06:44:37Z</time>
      </trkpt>
      <trkpt lat="45.33165" lon="4.75506">
        <ele>160.80000305176</ele>
        <time>2019-07-11T06:44:51Z</time>
      </trkpt>
      <trkpt lat="45.33205" lon="4.75507">
        <ele>162.60000610352</ele>
        <time>2019-07-11T06:45:02Z</time>
      </trkpt>
      <trkpt lat="45.33256" lon="4.75486">
        <ele>165.19999694824</ele>
        <time>2019-07-11T06:45:20Z</time>
      </trkpt>
      <trkpt lat="45.33261" lon="4.75485">
        <ele>166.60000610352</ele>
        <time>2019-07-11T06:45:23Z</time>
      </trkpt>
      <trkpt lat="45.33278" lon="4.75473">
        <ele>168.39999389648</ele>
        <time>2019-07-11T06:45:30Z</time>
      </trkpt>
      <trkpt lat="45.33284" lon="4.75468">
        <ele>169.19999694824</ele>
        <time>2019-07-11T06:45:32Z</time>
      </trkpt>
      <trkpt lat="45.3333" lon="4.75458">
        <ele>169.19999694824</ele>
        <time>2019-07-11T06:45:42Z</time>
      </trkpt>
      <trkpt lat="45.33339" lon="4.75455">
        <ele>168.80000305176</ele>
        <time>2019-07-11T06:45:44Z</time>
      </trkpt>
      <trkpt lat="45.33365" lon="4.75439">
        <ele>167.19999694824</ele>
        <time>2019-07-11T06:45:54Z</time>
      </trkpt>
      <trkpt lat="45.33396" lon="4.75417">
        <ele>165</ele>
        <time>2019-07-11T06:46:06Z</time>
      </trkpt>
      <trkpt lat="45.33401" lon="4.75409">
        <ele>165</ele>
        <time>2019-07-11T06:46:18Z</time>
      </trkpt>
      <trkpt lat="45.33405" lon="4.7541">
        <ele>165</ele>
        <time>2019-07-11T06:46:38Z</time>
      </trkpt>
      <trkpt lat="45.33405" lon="4.75412">
        <ele>165</ele>
        <time>2019-07-11T06:46:39Z</time>
      </trkpt>
      <trkpt lat="45.33413" lon="4.75474">
        <ele>167.39999389648</ele>
        <time>2019-07-11T06:46:58Z</time>
      </trkpt>
      <trkpt lat="45.33413" lon="4.75481">
        <ele>168.80000305176</ele>
        <time>2019-07-11T06:47:01Z</time>
      </trkpt>
      <trkpt lat="45.33404" lon="4.75513">
        <ele>169.19999694824</ele>
        <time>2019-07-11T06:47:12Z</time>
      </trkpt>
      <trkpt lat="45.33374" lon="4.75565">
        <ele>167.60000610352</ele>
        <time>2019-07-11T06:47:21Z</time>
      </trkpt>
      <trkpt lat="45.33371" lon="4.75573">
        <ele>167</ele>
        <time>2019-07-11T06:47:22Z</time>
      </trkpt>
      <trkpt lat="45.33369" lon="4.7558">
        <ele>166</ele>
        <time>2019-07-11T06:47:23Z</time>
      </trkpt>
      <trkpt lat="45.33355" lon="4.75601">
        <ele>162.19999694824</ele>
        <time>2019-07-11T06:47:27Z</time>
      </trkpt>
      <trkpt lat="45.33344" lon="4.75612">
        <ele>160.39999389648</ele>
        <time>2019-07-11T06:47:29Z</time>
      </trkpt>
      <trkpt lat="45.33343" lon="4.75641">
        <ele>157</ele>
        <time>2019-07-11T06:47:33Z</time>
      </trkpt>
      <trkpt lat="45.33357" lon="4.75661">
        <ele>155</ele>
        <time>2019-07-11T06:47:37Z</time>
      </trkpt>
      <trkpt lat="45.33386" lon="4.75676">
        <ele>152.60000610352</ele>
        <time>2019-07-11T06:47:42Z</time>
      </trkpt>
      <trkpt lat="45.33424" lon="4.75683">
        <ele>149.19999694824</ele>
        <time>2019-07-11T06:47:47Z</time>
      </trkpt>
      <trkpt lat="45.33468" lon="4.75687">
        <ele>148</ele>
        <time>2019-07-11T06:47:55Z</time>
      </trkpt>
      <trkpt lat="45.33526" lon="4.75695">
        <ele>145.60000610352</ele>
        <time>2019-07-11T06:48:06Z</time>
      </trkpt>
      <trkpt lat="45.33535" lon="4.75717">
        <ele>145.60000610352</ele>
        <time>2019-07-11T06:48:12Z</time>
      </trkpt>
      <trkpt lat="45.33534" lon="4.75741">
        <ele>145.60000610352</ele>
        <time>2019-07-11T06:48:23Z</time>
      </trkpt>
      <trkpt lat="45.33527" lon="4.75777">
        <ele>145.19999694824</ele>
        <time>2019-07-11T06:48:30Z</time>
      </trkpt>
      <trkpt lat="45.33526" lon="4.75793">
        <ele>144.39999389648</ele>
        <time>2019-07-11T06:48:32Z</time>
      </trkpt>
      <trkpt lat="45.33561" lon="4.75821">
        <ele>143.39999389648</ele>
        <time>2019-07-11T06:48:41Z</time>
      </trkpt>
      <trkpt lat="45.33566" lon="4.75823">
        <ele>143.39999389648</ele>
        <time>2019-07-11T06:48:42Z</time>
      </trkpt>
      <trkpt lat="45.3359" lon="4.75832">
        <ele>143.39999389648</ele>
        <time>2019-07-11T06:48:47Z</time>
      </trkpt>
      <trkpt lat="45.33607" lon="4.75838">
        <ele>143.39999389648</ele>
        <time>2019-07-11T06:48:51Z</time>
      </trkpt>
      <trkpt lat="45.3363" lon="4.75847">
        <ele>143.39999389648</ele>
        <time>2019-07-11T06:48:56Z</time>
      </trkpt>
      <trkpt lat="45.33675" lon="4.75859">
        <ele>143.39999389648</ele>
        <time>2019-07-11T06:49:06Z</time>
      </trkpt>
      <trkpt lat="45.337" lon="4.75879">
        <ele>141.80000305176</ele>
        <time>2019-07-11T06:49:14Z</time>
      </trkpt>
      <trkpt lat="45.33733" lon="4.7592">
        <ele>141.39999389648</ele>
        <time>2019-07-11T06:49:28Z</time>
      </trkpt>
      <trkpt lat="45.3379" lon="4.75942">
        <ele>141.39999389648</ele>
        <time>2019-07-11T06:49:46Z</time>
      </trkpt>
      <trkpt lat="45.33808" lon="4.75949">
        <ele>141.39999389648</ele>
        <time>2019-07-11T06:49:52Z</time>
      </trkpt>
      <trkpt lat="45.33876" lon="4.75963">
        <ele>141.39999389648</ele>
        <time>2019-07-11T06:50:11Z</time>
      </trkpt>
      <trkpt lat="45.33952" lon="4.75967">
        <ele>141.39999389648</ele>
        <time>2019-07-11T06:50:28Z</time>
      </trkpt>
      <trkpt lat="45.34022" lon="4.75946">
        <ele>141.39999389648</ele>
        <time>2019-07-11T06:50:47Z</time>
      </trkpt>
      <trkpt lat="45.34045" lon="4.75938">
        <ele>141.39999389648</ele>
        <time>2019-07-11T06:51:02Z</time>
      </trkpt>
      <trkpt lat="45.34062" lon="4.75937">
        <ele>141.39999389648</ele>
        <time>2019-07-11T06:51:23Z</time>
      </trkpt>
      <trkpt lat="45.34114" lon="4.75959">
        <ele>141.39999389648</ele>
        <time>2019-07-11T06:51:41Z</time>
      </trkpt>
      <trkpt lat="45.34149" lon="4.75967">
        <ele>141.39999389648</ele>
        <time>2019-07-11T06:51:50Z</time>
      </trkpt>
      <trkpt lat="45.34166" lon="4.75966">
        <ele>141.39999389648</ele>
        <time>2019-07-11T06:51:54Z</time>
      </trkpt>
      <trkpt lat="45.3426" lon="4.75971">
        <ele>141.39999389648</ele>
        <time>2019-07-11T06:52:16Z</time>
      </trkpt>
      <trkpt lat="45.34315" lon="4.7598">
        <ele>141.39999389648</ele>
        <time>2019-07-11T06:52:32Z</time>
      </trkpt>
      <trkpt lat="45.34406" lon="4.75983">
        <ele>141.39999389648</ele>
        <time>2019-07-11T06:52:57Z</time>
      </trkpt>
      <trkpt lat="45.3443" lon="4.75959">
        <ele>141.39999389648</ele>
        <time>2019-07-11T06:53:05Z</time>
      </trkpt>
      <trkpt lat="45.34437" lon="4.75912">
        <ele>141.39999389648</ele>
        <time>2019-07-11T06:53:15Z</time>
      </trkpt>
      <trkpt lat="45.34427" lon="4.7589">
        <ele>142.19999694824</ele>
        <time>2019-07-11T06:53:20Z</time>
      </trkpt>
      <trkpt lat="45.34413" lon="4.75836">
        <ele>143.39999389648</ele>
        <time>2019-07-11T06:53:31Z</time>
      </trkpt>
      <trkpt lat="45.3443" lon="4.75806">
        <ele>143.39999389648</ele>
        <time>2019-07-11T06:53:39Z</time>
      </trkpt>
      <trkpt lat="45.3444" lon="4.75801">
        <ele>143.39999389648</ele>
        <time>2019-07-11T06:53:56Z</time>
      </trkpt>
      <trkpt lat="45.34436" lon="4.75803">
        <ele>143.39999389648</ele>
        <time>2019-07-11T06:54:44Z</time>
      </trkpt>
      <trkpt lat="45.34414" lon="4.7585">
        <ele>143.39999389648</ele>
        <time>2019-07-11T06:54:58Z</time>
      </trkpt>
      <trkpt lat="45.34424" lon="4.75884">
        <ele>143.39999389648</ele>
        <time>2019-07-11T06:55:04Z</time>
      </trkpt>
      <trkpt lat="45.34441" lon="4.75915">
        <ele>143.39999389648</ele>
        <time>2019-07-11T06:55:24Z</time>
      </trkpt>
      <trkpt lat="45.34471" lon="4.75973">
        <ele>143.39999389648</ele>
        <time>2019-07-11T06:56:23Z</time>
      </trkpt>
      <trkpt lat="45.34502" lon="4.75976">
        <ele>143.39999389648</ele>
        <time>2019-07-11T06:56:30Z</time>
      </trkpt>
      <trkpt lat="45.34572" lon="4.75963">
        <ele>143.39999389648</ele>
        <time>2019-07-11T06:56:44Z</time>
      </trkpt>
      <trkpt lat="45.34646" lon="4.75968">
        <ele>143.39999389648</ele>
        <time>2019-07-11T06:56:58Z</time>
      </trkpt>
      <trkpt lat="45.3471" lon="4.75957">
        <ele>143.39999389648</ele>
        <time>2019-07-11T06:57:10Z</time>
      </trkpt>
      <trkpt lat="45.34942" lon="4.75904">
        <ele>143.39999389648</ele>
        <time>2019-07-11T06:57:52Z</time>
      </trkpt>
      <trkpt lat="45.35059" lon="4.75942">
        <ele>143.39999389648</ele>
        <time>2019-07-11T06:58:13Z</time>
      </trkpt>
      <trkpt lat="45.35095" lon="4.75962">
        <ele>143.39999389648</ele>
        <time>2019-07-11T06:58:20Z</time>
      </trkpt>
      <trkpt lat="45.35175" lon="4.76001">
        <ele>143.39999389648</ele>
        <time>2019-07-11T06:58:35Z</time>
      </trkpt>
      <trkpt lat="45.3525" lon="4.76023">
        <ele>143.39999389648</ele>
        <time>2019-07-11T06:58:48Z</time>
      </trkpt>
      <trkpt lat="45.35304" lon="4.76035">
        <ele>143.39999389648</ele>
        <time>2019-07-11T06:58:58Z</time>
      </trkpt>
      <trkpt lat="45.35336" lon="4.76036">
        <ele>143.39999389648</ele>
        <time>2019-07-11T06:59:04Z</time>
      </trkpt>
      <trkpt lat="45.35357" lon="4.76039">
        <ele>143.39999389648</ele>
        <time>2019-07-11T06:59:08Z</time>
      </trkpt>
      <trkpt lat="45.35392" lon="4.76038">
        <ele>143.39999389648</ele>
        <time>2019-07-11T06:59:15Z</time>
      </trkpt>
      <trkpt lat="45.35524" lon="4.76018">
        <ele>143.39999389648</ele>
        <time>2019-07-11T06:59:38Z</time>
      </trkpt>
      <trkpt lat="45.3554" lon="4.7604">
        <ele>143.39999389648</ele>
        <time>2019-07-11T06:59:42Z</time>
      </trkpt>
      <trkpt lat="45.35611" lon="4.76147">
        <ele>143.39999389648</ele>
        <time>2019-07-11T06:59:59Z</time>
      </trkpt>
      <trkpt lat="45.3565" lon="4.76169">
        <ele>143.39999389648</ele>
        <time>2019-07-11T07:00:06Z</time>
      </trkpt>
      <trkpt lat="45.35718" lon="4.76171">
        <ele>143.39999389648</ele>
        <time>2019-07-11T07:00:17Z</time>
      </trkpt>
      <trkpt lat="45.35769" lon="4.76138">
        <ele>143.39999389648</ele>
        <time>2019-07-11T07:00:27Z</time>
      </trkpt>
      <trkpt lat="45.35804" lon="4.76117">
        <ele>143.39999389648</ele>
        <time>2019-07-11T07:00:34Z</time>
      </trkpt>
      <trkpt lat="45.35882" lon="4.76082">
        <ele>143.39999389648</ele>
        <time>2019-07-11T07:00:48Z</time>
      </trkpt>
      <trkpt lat="45.35907" lon="4.76075">
        <ele>143.39999389648</ele>
        <time>2019-07-11T07:00:52Z</time>
      </trkpt>
      <trkpt lat="45.35971" lon="4.76059">
        <ele>143.39999389648</ele>
        <time>2019-07-11T07:01:03Z</time>
      </trkpt>
      <trkpt lat="45.35993" lon="4.76049">
        <ele>143.39999389648</ele>
        <time>2019-07-11T07:01:07Z</time>
      </trkpt>
      <trkpt lat="45.36079" lon="4.75998">
        <ele>143.39999389648</ele>
        <time>2019-07-11T07:01:22Z</time>
      </trkpt>
      <trkpt lat="45.36122" lon="4.75958">
        <ele>143.39999389648</ele>
        <time>2019-07-11T07:01:31Z</time>
      </trkpt>
      <trkpt lat="45.36185" lon="4.75895">
        <ele>143.39999389648</ele>
        <time>2019-07-11T07:01:44Z</time>
      </trkpt>
      <trkpt lat="45.36214" lon="4.75852">
        <ele>143.39999389648</ele>
        <time>2019-07-11T07:01:51Z</time>
      </trkpt>
      <trkpt lat="45.36271" lon="4.7577">
        <ele>143.39999389648</ele>
        <time>2019-07-11T07:02:05Z</time>
      </trkpt>
      <trkpt lat="45.36279" lon="4.75757">
        <ele>143.39999389648</ele>
        <time>2019-07-11T07:02:07Z</time>
      </trkpt>
      <trkpt lat="45.36307" lon="4.75701">
        <ele>143.39999389648</ele>
        <time>2019-07-11T07:02:15Z</time>
      </trkpt>
      <trkpt lat="45.36344" lon="4.75644">
        <ele>143.39999389648</ele>
        <time>2019-07-11T07:02:24Z</time>
      </trkpt>
      <trkpt lat="45.36389" lon="4.75566">
        <ele>143.39999389648</ele>
        <time>2019-07-11T07:02:36Z</time>
      </trkpt>
      <trkpt lat="45.36418" lon="4.75479">
        <ele>143.39999389648</ele>
        <time>2019-07-11T07:02:52Z</time>
      </trkpt>
      <trkpt lat="45.36423" lon="4.75475">
        <ele>143.39999389648</ele>
        <time>2019-07-11T07:02:53Z</time>
      </trkpt>
      <trkpt lat="45.36456" lon="4.75445">
        <ele>143.39999389648</ele>
        <time>2019-07-11T07:03:00Z</time>
      </trkpt>
      <trkpt lat="45.36502" lon="4.75418">
        <ele>143.39999389648</ele>
        <time>2019-07-11T07:03:08Z</time>
      </trkpt>
      <trkpt lat="45.36601" lon="4.75363">
        <ele>143.39999389648</ele>
        <time>2019-07-11T07:03:28Z</time>
      </trkpt>
      <trkpt lat="45.36635" lon="4.75338">
        <ele>143.39999389648</ele>
        <time>2019-07-11T07:03:36Z</time>
      </trkpt>
      <trkpt lat="45.3668" lon="4.7531">
        <ele>143.39999389648</ele>
        <time>2019-07-11T07:03:48Z</time>
      </trkpt>
      <trkpt lat="45.36737" lon="4.75293">
        <ele>143.39999389648</ele>
        <time>2019-07-11T07:04:01Z</time>
      </trkpt>
      <trkpt lat="45.36794" lon="4.75284">
        <ele>143.39999389648</ele>
        <time>2019-07-11T07:04:16Z</time>
      </trkpt>
      <trkpt lat="45.36895" lon="4.75254">
        <ele>143.39999389648</ele>
        <time>2019-07-11T07:04:39Z</time>
      </trkpt>
      <trkpt lat="45.36909" lon="4.75252">
        <ele>143.39999389648</ele>
        <time>2019-07-11T07:04:42Z</time>
      </trkpt>
      <trkpt lat="45.37059" lon="4.75203">
        <ele>143.39999389648</ele>
        <time>2019-07-11T07:05:14Z</time>
      </trkpt>
      <trkpt lat="45.37081" lon="4.75193">
        <ele>143.39999389648</ele>
        <time>2019-07-11T07:05:19Z</time>
      </trkpt>
      <trkpt lat="45.37102" lon="4.75174">
        <ele>143.39999389648</ele>
        <time>2019-07-11T07:05:24Z</time>
      </trkpt>
      <trkpt lat="45.37132" lon="4.75155">
        <ele>145.80000305176</ele>
        <time>2019-07-11T07:05:36Z</time>
      </trkpt>
      <trkpt lat="45.37154" lon="4.75137">
        <ele>149</ele>
        <time>2019-07-11T07:05:46Z</time>
      </trkpt>
      <trkpt lat="45.37173" lon="4.75124">
        <ele>152</ele>
        <time>2019-07-11T07:05:55Z</time>
      </trkpt>
      <trkpt lat="45.37185" lon="4.7512">
        <ele>152</ele>
        <time>2019-07-11T07:05:58Z</time>
      </trkpt>
      <trkpt lat="45.3724" lon="4.7508">
        <ele>150</ele>
        <time>2019-07-11T07:06:09Z</time>
      </trkpt>
      <trkpt lat="45.37254" lon="4.75068">
        <ele>149.39999389648</ele>
        <time>2019-07-11T07:06:12Z</time>
      </trkpt>
      <trkpt lat="45.3729" lon="4.75044">
        <ele>147.80000305176</ele>
        <time>2019-07-11T07:06:19Z</time>
      </trkpt>
      <trkpt lat="45.37323" lon="4.75037">
        <ele>145.80000305176</ele>
        <time>2019-07-11T07:06:28Z</time>
      </trkpt>
      <trkpt lat="45.37323" lon="4.75037">
        <ele>145.80000305176</ele>
        <time>2019-07-11T07:07:18Z</time>
      </trkpt>
      <trkpt lat="45.37324" lon="4.75034">
        <ele>145.80000305176</ele>
        <time>2019-07-11T07:07:23Z</time>
      </trkpt>
      <trkpt lat="45.37361" lon="4.75015">
        <ele>145.80000305176</ele>
        <time>2019-07-11T07:07:37Z</time>
      </trkpt>
      <trkpt lat="45.3741" lon="4.75005">
        <ele>145.80000305176</ele>
        <time>2019-07-11T07:07:48Z</time>
      </trkpt>
      <trkpt lat="45.37483" lon="4.75012">
        <ele>145.39999389648</ele>
        <time>2019-07-11T07:08:02Z</time>
      </trkpt>
      <trkpt lat="45.37532" lon="4.75028">
        <ele>143.60000610352</ele>
        <time>2019-07-11T07:08:11Z</time>
      </trkpt>
      <trkpt lat="45.37587" lon="4.75039">
        <ele>143.60000610352</ele>
        <time>2019-07-11T07:08:22Z</time>
      </trkpt>
      <trkpt lat="45.37768" lon="4.7511">
        <ele>143.60000610352</ele>
        <time>2019-07-11T07:08:55Z</time>
      </trkpt>
      <trkpt lat="45.37795" lon="4.75118">
        <ele>143.60000610352</ele>
        <time>2019-07-11T07:09:00Z</time>
      </trkpt>
      <trkpt lat="45.3781" lon="4.7512">
        <ele>143.60000610352</ele>
        <time>2019-07-11T07:09:03Z</time>
      </trkpt>
      <trkpt lat="45.37859" lon="4.75131">
        <ele>143.60000610352</ele>
        <time>2019-07-11T07:09:12Z</time>
      </trkpt>
      <trkpt lat="45.37877" lon="4.75135">
        <ele>143.60000610352</ele>
        <time>2019-07-11T07:09:16Z</time>
      </trkpt>
      <trkpt lat="45.37891" lon="4.75139">
        <ele>143.60000610352</ele>
        <time>2019-07-11T07:09:19Z</time>
      </trkpt>
      <trkpt lat="45.37921" lon="4.75144">
        <ele>143.60000610352</ele>
        <time>2019-07-11T07:09:25Z</time>
      </trkpt>
      <trkpt lat="45.37944" lon="4.75149">
        <ele>143.60000610352</ele>
        <time>2019-07-11T07:09:30Z</time>
      </trkpt>
      <trkpt lat="45.37974" lon="4.75159">
        <ele>143.60000610352</ele>
        <time>2019-07-11T07:09:36Z</time>
      </trkpt>
      <trkpt lat="45.38023" lon="4.75178">
        <ele>143.60000610352</ele>
        <time>2019-07-11T07:09:47Z</time>
      </trkpt>
      <trkpt lat="45.38044" lon="4.75204">
        <ele>143.60000610352</ele>
        <time>2019-07-11T07:09:53Z</time>
      </trkpt>
      <trkpt lat="45.38143" lon="4.7522">
        <ele>143.60000610352</ele>
        <time>2019-07-11T07:10:12Z</time>
      </trkpt>
      <trkpt lat="45.38158" lon="4.75214">
        <ele>143.60000610352</ele>
        <time>2019-07-11T07:10:15Z</time>
      </trkpt>
      <trkpt lat="45.38168" lon="4.7521">
        <ele>143.60000610352</ele>
        <time>2019-07-11T07:10:17Z</time>
      </trkpt>
      <trkpt lat="45.38189" lon="4.75204">
        <ele>143.60000610352</ele>
        <time>2019-07-11T07:10:21Z</time>
      </trkpt>
      <trkpt lat="45.38247" lon="4.75182">
        <ele>143.60000610352</ele>
        <time>2019-07-11T07:10:33Z</time>
      </trkpt>
      <trkpt lat="45.38312" lon="4.75148">
        <ele>143.60000610352</ele>
        <time>2019-07-11T07:10:47Z</time>
      </trkpt>
      <trkpt lat="45.38345" lon="4.75097">
        <ele>143.60000610352</ele>
        <time>2019-07-11T07:10:56Z</time>
      </trkpt>
      <trkpt lat="45.3836" lon="4.75065">
        <ele>143.60000610352</ele>
        <time>2019-07-11T07:11:01Z</time>
      </trkpt>
      <trkpt lat="45.38379" lon="4.75051">
        <ele>143.60000610352</ele>
        <time>2019-07-11T07:11:05Z</time>
      </trkpt>
      <trkpt lat="45.38404" lon="4.75021">
        <ele>143.60000610352</ele>
        <time>2019-07-11T07:11:11Z</time>
      </trkpt>
      <trkpt lat="45.38412" lon="4.75012">
        <ele>143.60000610352</ele>
        <time>2019-07-11T07:11:13Z</time>
      </trkpt>
      <trkpt lat="45.3846" lon="4.74994">
        <ele>143.60000610352</ele>
        <time>2019-07-11T07:11:22Z</time>
      </trkpt>
      <trkpt lat="45.38521" lon="4.74946">
        <ele>143.60000610352</ele>
        <time>2019-07-11T07:11:36Z</time>
      </trkpt>
      <trkpt lat="45.38556" lon="4.7493">
        <ele>143.60000610352</ele>
        <time>2019-07-11T07:11:45Z</time>
      </trkpt>
      <trkpt lat="45.3857" lon="4.74922">
        <ele>144</ele>
        <time>2019-07-11T07:11:48Z</time>
      </trkpt>
      <trkpt lat="45.38586" lon="4.7491">
        <ele>145.60000610352</ele>
        <time>2019-07-11T07:11:52Z</time>
      </trkpt>
      <trkpt lat="45.38618" lon="4.74839">
        <ele>145.60000610352</ele>
        <time>2019-07-11T07:12:06Z</time>
      </trkpt>
      <trkpt lat="45.3861" lon="4.74794">
        <ele>147.19999694824</ele>
        <time>2019-07-11T07:12:15Z</time>
      </trkpt>
      <trkpt lat="45.38595" lon="4.74787">
        <ele>149.80000305176</ele>
        <time>2019-07-11T07:12:21Z</time>
      </trkpt>
      <trkpt lat="45.38549" lon="4.74779">
        <ele>153.19999694824</ele>
        <time>2019-07-11T07:12:38Z</time>
      </trkpt>
      <trkpt lat="45.38526" lon="4.74777">
        <ele>156.19999694824</ele>
        <time>2019-07-11T07:12:48Z</time>
      </trkpt>
      <trkpt lat="45.38511" lon="4.74778">
        <ele>157</ele>
        <time>2019-07-11T07:12:57Z</time>
      </trkpt>
      <trkpt lat="45.3848" lon="4.7476">
        <ele>159.19999694824</ele>
        <time>2019-07-11T07:13:10Z</time>
      </trkpt>
      <trkpt lat="45.38476" lon="4.74753">
        <ele>162.19999694824</ele>
        <time>2019-07-11T07:13:16Z</time>
      </trkpt>
      <trkpt lat="45.3847" lon="4.74737">
        <ele>162.80000305176</ele>
        <time>2019-07-11T07:13:28Z</time>
      </trkpt>
      <trkpt lat="45.38446" lon="4.74735">
        <ele>163.60000610352</ele>
        <time>2019-07-11T07:13:39Z</time>
      </trkpt>
      <trkpt lat="45.38428" lon="4.74731">
        <ele>165.19999694824</ele>
        <time>2019-07-11T07:13:48Z</time>
      </trkpt>
      <trkpt lat="45.38411" lon="4.74718">
        <ele>167.39999389648</ele>
        <time>2019-07-11T07:13:58Z</time>
      </trkpt>
      <trkpt lat="45.3841" lon="4.74716">
        <ele>168.19999694824</ele>
        <time>2019-07-11T07:13:59Z</time>
      </trkpt>
      <trkpt lat="45.38392" lon="4.74699">
        <ele>171.19999694824</ele>
        <time>2019-07-11T07:14:10Z</time>
      </trkpt>
      <trkpt lat="45.38384" lon="4.7468">
        <ele>174.19999694824</ele>
        <time>2019-07-11T07:14:20Z</time>
      </trkpt>
      <trkpt lat="45.38379" lon="4.74672">
        <ele>175.39999389648</ele>
        <time>2019-07-11T07:14:25Z</time>
      </trkpt>
      <trkpt lat="45.38369" lon="4.74667">
        <ele>176.39999389648</ele>
        <time>2019-07-11T07:14:31Z</time>
      </trkpt>
      <trkpt lat="45.38364" lon="4.74665">
        <ele>177.60000610352</ele>
        <time>2019-07-11T07:14:34Z</time>
      </trkpt>
      <trkpt lat="45.38332" lon="4.74639">
        <ele>178</ele>
        <time>2019-07-11T07:14:52Z</time>
      </trkpt>
      <trkpt lat="45.3833" lon="4.74638">
        <ele>178.39999389648</ele>
        <time>2019-07-11T07:14:53Z</time>
      </trkpt>
      <trkpt lat="45.38328" lon="4.74637">
        <ele>178.80000305176</ele>
        <time>2019-07-11T07:14:54Z</time>
      </trkpt>
      <trkpt lat="45.38314" lon="4.74624">
        <ele>180</ele>
        <time>2019-07-11T07:15:04Z</time>
      </trkpt>
      <trkpt lat="45.38296" lon="4.74607">
        <ele>183.19999694824</ele>
        <time>2019-07-11T07:15:17Z</time>
      </trkpt>
      <trkpt lat="45.38294" lon="4.74605">
        <ele>183.60000610352</ele>
        <time>2019-07-11T07:15:18Z</time>
      </trkpt>
      <trkpt lat="45.383" lon="4.74581">
        <ele>185.80000305176</ele>
        <time>2019-07-11T07:15:30Z</time>
      </trkpt>
      <trkpt lat="45.38299" lon="4.74573">
        <ele>187</ele>
        <time>2019-07-11T07:15:34Z</time>
      </trkpt>
      <trkpt lat="45.38299" lon="4.74563">
        <ele>188.60000610352</ele>
        <time>2019-07-11T07:15:38Z</time>
      </trkpt>
      <trkpt lat="45.38295" lon="4.74543">
        <ele>191.19999694824</ele>
        <time>2019-07-11T07:15:46Z</time>
      </trkpt>
      <trkpt lat="45.38293" lon="4.74524">
        <ele>194.39999389648</ele>
        <time>2019-07-11T07:15:55Z</time>
      </trkpt>
      <trkpt lat="45.38293" lon="4.74517">
        <ele>194.80000305176</ele>
        <time>2019-07-11T07:15:58Z</time>
      </trkpt>
      <trkpt lat="45.38294" lon="4.74504">
        <ele>197.60000610352</ele>
        <time>2019-07-11T07:16:06Z</time>
      </trkpt>
      <trkpt lat="45.38303" lon="4.74493">
        <ele>200.39999389648</ele>
        <time>2019-07-11T07:16:15Z</time>
      </trkpt>
      <trkpt lat="45.38315" lon="4.74482">
        <ele>203.39999389648</ele>
        <time>2019-07-11T07:16:26Z</time>
      </trkpt>
      <trkpt lat="45.38322" lon="4.74474">
        <ele>205.60000610352</ele>
        <time>2019-07-11T07:16:34Z</time>
      </trkpt>
      <trkpt lat="45.38332" lon="4.74466">
        <ele>208.60000610352</ele>
        <time>2019-07-11T07:16:45Z</time>
      </trkpt>
      <trkpt lat="45.38336" lon="4.74464">
        <ele>209</ele>
        <time>2019-07-11T07:16:49Z</time>
      </trkpt>
      <trkpt lat="45.38352" lon="4.74451">
        <ele>211.39999389648</ele>
        <time>2019-07-11T07:17:06Z</time>
      </trkpt>
      <trkpt lat="45.38353" lon="4.7445">
        <ele>211.80000305176</ele>
        <time>2019-07-11T07:17:07Z</time>
      </trkpt>
      <trkpt lat="45.38363" lon="4.74441">
        <ele>213.39999389648</ele>
        <time>2019-07-11T07:17:17Z</time>
      </trkpt>
      <trkpt lat="45.38374" lon="4.7443">
        <ele>215.19999694824</ele>
        <time>2019-07-11T07:17:27Z</time>
      </trkpt>
      <trkpt lat="45.38384" lon="4.74414">
        <ele>218.19999694824</ele>
        <time>2019-07-11T07:17:38Z</time>
      </trkpt>
      <trkpt lat="45.38384" lon="4.74412">
        <ele>218.60000610352</ele>
        <time>2019-07-11T07:17:39Z</time>
      </trkpt>
      <trkpt lat="45.38383" lon="4.74405">
        <ele>219.60000610352</ele>
        <time>2019-07-11T07:17:43Z</time>
      </trkpt>
      <trkpt lat="45.38384" lon="4.74376">
        <ele>222</ele>
        <time>2019-07-11T07:17:56Z</time>
      </trkpt>
      <trkpt lat="45.38382" lon="4.74341">
        <ele>223.60000610352</ele>
        <time>2019-07-11T07:18:07Z</time>
      </trkpt>
      <trkpt lat="45.38383" lon="4.743">
        <ele>223.60000610352</ele>
        <time>2019-07-11T07:18:14Z</time>
      </trkpt>
      <trkpt lat="45.38379" lon="4.74211">
        <ele>221</ele>
        <time>2019-07-11T07:18:23Z</time>
      </trkpt>
      <trkpt lat="45.3837" lon="4.74165">
        <ele>217.19999694824</ele>
        <time>2019-07-11T07:18:27Z</time>
      </trkpt>
      <trkpt lat="45.38367" lon="4.74146">
        <ele>214.19999694824</ele>
        <time>2019-07-11T07:18:29Z</time>
      </trkpt>
      <trkpt lat="45.38359" lon="4.74113">
        <ele>216.39999389648</ele>
        <time>2019-07-11T07:18:38Z</time>
      </trkpt>
      <trkpt lat="45.38354" lon="4.74097">
        <ele>219.60000610352</ele>
        <time>2019-07-11T07:18:45Z</time>
      </trkpt>
      <trkpt lat="45.38346" lon="4.74083">
        <ele>223</ele>
        <time>2019-07-11T07:18:54Z</time>
      </trkpt>
      <trkpt lat="45.38315" lon="4.74066">
        <ele>226.19999694824</ele>
        <time>2019-07-11T07:19:14Z</time>
      </trkpt>
      <trkpt lat="45.38293" lon="4.74051">
        <ele>229.19999694824</ele>
        <time>2019-07-11T07:19:27Z</time>
      </trkpt>
      <trkpt lat="45.38277" lon="4.74017">
        <ele>232.80000305176</ele>
        <time>2019-07-11T07:19:42Z</time>
      </trkpt>
      <trkpt lat="45.38262" lon="4.73975">
        <ele>235.80000305176</ele>
        <time>2019-07-11T07:20:00Z</time>
      </trkpt>
      <trkpt lat="45.38224" lon="4.73933">
        <ele>235.80000305176</ele>
        <time>2019-07-11T07:20:24Z</time>
      </trkpt>
      <trkpt lat="45.38216" lon="4.73929">
        <ele>235.80000305176</ele>
        <time>2019-07-11T07:20:27Z</time>
      </trkpt>
      <trkpt lat="45.38198" lon="4.73926">
        <ele>236.19999694824</ele>
        <time>2019-07-11T07:20:38Z</time>
      </trkpt>
      <trkpt lat="45.38166" lon="4.73887">
        <ele>238.60000610352</ele>
        <time>2019-07-11T07:20:58Z</time>
      </trkpt>
      <trkpt lat="45.38162" lon="4.73851">
        <ele>239.80000305176</ele>
        <time>2019-07-11T07:21:11Z</time>
      </trkpt>
      <trkpt lat="45.38169" lon="4.7381">
        <ele>242</ele>
        <time>2019-07-11T07:21:20Z</time>
      </trkpt>
      <trkpt lat="45.38171" lon="4.73807">
        <ele>242</ele>
        <time>2019-07-11T07:21:21Z</time>
      </trkpt>
      <trkpt lat="45.382" lon="4.73779">
        <ele>243.60000610352</ele>
        <time>2019-07-11T07:21:38Z</time>
      </trkpt>
      <trkpt lat="45.38209" lon="4.73777">
        <ele>244</ele>
        <time>2019-07-11T07:21:42Z</time>
      </trkpt>
      <trkpt lat="45.3822" lon="4.73755">
        <ele>245.80000305176</ele>
        <time>2019-07-11T07:21:50Z</time>
      </trkpt>
      <trkpt lat="45.38225" lon="4.73728">
        <ele>248.80000305176</ele>
        <time>2019-07-11T07:22:01Z</time>
      </trkpt>
      <trkpt lat="45.38226" lon="4.73719">
        <ele>250.60000610352</ele>
        <time>2019-07-11T07:22:05Z</time>
      </trkpt>
      <trkpt lat="45.38225" lon="4.73707">
        <ele>250.60000610352</ele>
        <time>2019-07-11T07:22:20Z</time>
      </trkpt>
      <trkpt lat="45.38224" lon="4.73703">
        <ele>252.60000610352</ele>
        <time>2019-07-11T07:22:55Z</time>
      </trkpt>
      <trkpt lat="45.38219" lon="4.73688">
        <ele>252.60000610352</ele>
        <time>2019-07-11T07:24:10Z</time>
      </trkpt>
      <trkpt lat="45.38216" lon="4.73683">
        <ele>252.60000610352</ele>
        <time>2019-07-11T07:24:27Z</time>
      </trkpt>
      <trkpt lat="45.38228" lon="4.73641">
        <ele>252.60000610352</ele>
        <time>2019-07-11T07:24:43Z</time>
      </trkpt>
      <trkpt lat="45.38238" lon="4.73577">
        <ele>252.60000610352</ele>
        <time>2019-07-11T07:25:00Z</time>
      </trkpt>
      <trkpt lat="45.38233" lon="4.73564">
        <ele>253.39999389648</ele>
        <time>2019-07-11T07:25:04Z</time>
      </trkpt>
      <trkpt lat="45.38227" lon="4.73547">
        <ele>254.60000610352</ele>
        <time>2019-07-11T07:25:09Z</time>
      </trkpt>
      <trkpt lat="45.38236" lon="4.73519">
        <ele>256</ele>
        <time>2019-07-11T07:25:18Z</time>
      </trkpt>
      <trkpt lat="45.38238" lon="4.73474">
        <ele>259</ele>
        <time>2019-07-11T07:25:30Z</time>
      </trkpt>
      <trkpt lat="45.38246" lon="4.73438">
        <ele>259</ele>
        <time>2019-07-11T07:25:38Z</time>
      </trkpt>
      <trkpt lat="45.38246" lon="4.73435">
        <ele>259</ele>
        <time>2019-07-11T07:25:39Z</time>
      </trkpt>
      <trkpt lat="45.38249" lon="4.73393">
        <ele>259</ele>
        <time>2019-07-11T07:25:53Z</time>
      </trkpt>
      <trkpt lat="45.3824" lon="4.73375">
        <ele>261.20001220703</ele>
        <time>2019-07-11T07:26:01Z</time>
      </trkpt>
      <trkpt lat="45.38247" lon="4.73341">
        <ele>261.20001220703</ele>
        <time>2019-07-11T07:26:11Z</time>
      </trkpt>
      <trkpt lat="45.38255" lon="4.73327">
        <ele>259.39999389648</ele>
        <time>2019-07-11T07:26:18Z</time>
      </trkpt>
      <trkpt lat="45.38256" lon="4.73285">
        <ele>257.20001220703</ele>
        <time>2019-07-11T07:26:26Z</time>
      </trkpt>
      <trkpt lat="45.38252" lon="4.73271">
        <ele>256.20001220703</ele>
        <time>2019-07-11T07:26:37Z</time>
      </trkpt>
      <trkpt lat="45.38238" lon="4.73225">
        <ele>254.19999694824</ele>
        <time>2019-07-11T07:26:47Z</time>
      </trkpt>
      <trkpt lat="45.38228" lon="4.73198">
        <ele>252</ele>
        <time>2019-07-11T07:26:55Z</time>
      </trkpt>
      <trkpt lat="45.38218" lon="4.73177">
        <ele>250.39999389648</ele>
        <time>2019-07-11T07:27:05Z</time>
      </trkpt>
      <trkpt lat="45.38201" lon="4.73126">
        <ele>250.39999389648</ele>
        <time>2019-07-11T07:27:20Z</time>
      </trkpt>
      <trkpt lat="45.38189" lon="4.73079">
        <ele>248.19999694824</ele>
        <time>2019-07-11T07:27:33Z</time>
      </trkpt>
      <trkpt lat="45.38178" lon="4.73036">
        <ele>245.19999694824</ele>
        <time>2019-07-11T07:27:45Z</time>
      </trkpt>
      <trkpt lat="45.38173" lon="4.73014">
        <ele>242</ele>
        <time>2019-07-11T07:27:53Z</time>
      </trkpt>
      <trkpt lat="45.38168" lon="4.72995">
        <ele>238.60000610352</ele>
        <time>2019-07-11T07:27:59Z</time>
      </trkpt>
      <trkpt lat="45.38162" lon="4.72978">
        <ele>235.39999389648</ele>
        <time>2019-07-11T07:28:05Z</time>
      </trkpt>
      <trkpt lat="45.38161" lon="4.72966">
        <ele>232.39999389648</ele>
        <time>2019-07-11T07:28:11Z</time>
      </trkpt>
      <trkpt lat="45.38162" lon="4.7295">
        <ele>229.19999694824</ele>
        <time>2019-07-11T07:28:19Z</time>
      </trkpt>
      <trkpt lat="45.38161" lon="4.72947">
        <ele>228.39999389648</ele>
        <time>2019-07-11T07:28:21Z</time>
      </trkpt>
      <trkpt lat="45.38163" lon="4.72939">
        <ele>226.19999694824</ele>
        <time>2019-07-11T07:28:25Z</time>
      </trkpt>
      <trkpt lat="45.38162" lon="4.7292">
        <ele>223</ele>
        <time>2019-07-11T07:28:31Z</time>
      </trkpt>
      <trkpt lat="45.38161" lon="4.72913">
        <ele>220</ele>
        <time>2019-07-11T07:28:41Z</time>
      </trkpt>
      <trkpt lat="45.38161" lon="4.72901">
        <ele>218.80000305176</ele>
        <time>2019-07-11T07:28:54Z</time>
      </trkpt>
      <trkpt lat="45.38163" lon="4.7287">
        <ele>216.19999694824</ele>
        <time>2019-07-11T07:29:00Z</time>
      </trkpt>
      <trkpt lat="45.3816" lon="4.72841">
        <ele>214</ele>
        <time>2019-07-11T07:29:04Z</time>
      </trkpt>
      <trkpt lat="45.38162" lon="4.72817">
        <ele>212.19999694824</ele>
        <time>2019-07-11T07:29:08Z</time>
      </trkpt>
      <trkpt lat="45.38171" lon="4.7279">
        <ele>212.19999694824</ele>
        <time>2019-07-11T07:29:13Z</time>
      </trkpt>
      <trkpt lat="45.38173" lon="4.72784">
        <ele>212.19999694824</ele>
        <time>2019-07-11T07:29:14Z</time>
      </trkpt>
      <trkpt lat="45.38173" lon="4.72733">
        <ele>211.60000610352</ele>
        <time>2019-07-11T07:29:21Z</time>
      </trkpt>
      <trkpt lat="45.38169" lon="4.72709">
        <ele>210.19999694824</ele>
        <time>2019-07-11T07:29:24Z</time>
      </trkpt>
      <trkpt lat="45.38183" lon="4.72684">
        <ele>209.60000610352</ele>
        <time>2019-07-11T07:29:32Z</time>
      </trkpt>
      <trkpt lat="45.38202" lon="4.72717">
        <ele>210.19999694824</ele>
        <time>2019-07-11T07:29:43Z</time>
      </trkpt>
      <trkpt lat="45.38235" lon="4.72743">
        <ele>213.39999389648</ele>
        <time>2019-07-11T07:29:57Z</time>
      </trkpt>
      <trkpt lat="45.38242" lon="4.72797">
        <ele>216</ele>
        <time>2019-07-11T07:30:12Z</time>
      </trkpt>
      <trkpt lat="45.38219" lon="4.72849">
        <ele>219</ele>
        <time>2019-07-11T07:30:30Z</time>
      </trkpt>
      <trkpt lat="45.38224" lon="4.72897">
        <ele>221.39999389648</ele>
        <time>2019-07-11T07:30:44Z</time>
      </trkpt>
      <trkpt lat="45.38243" lon="4.72938">
        <ele>224.39999389648</ele>
        <time>2019-07-11T07:30:59Z</time>
      </trkpt>
      <trkpt lat="45.3828" lon="4.72996">
        <ele>227.19999694824</ele>
        <time>2019-07-11T07:31:22Z</time>
      </trkpt>
      <trkpt lat="45.38285" lon="4.73003">
        <ele>228.39999389648</ele>
        <time>2019-07-11T07:31:25Z</time>
      </trkpt>
      <trkpt lat="45.38304" lon="4.73008">
        <ele>229.60000610352</ele>
        <time>2019-07-11T07:31:34Z</time>
      </trkpt>
      <trkpt lat="45.38308" lon="4.73005">
        <ele>230.39999389648</ele>
        <time>2019-07-11T07:31:36Z</time>
      </trkpt>
      <trkpt lat="45.3832" lon="4.72974">
        <ele>231.80000305176</ele>
        <time>2019-07-11T07:31:48Z</time>
      </trkpt>
      <trkpt lat="45.38335" lon="4.72923">
        <ele>234.60000610352</ele>
        <time>2019-07-11T07:32:06Z</time>
      </trkpt>
      <trkpt lat="45.38319" lon="4.72869">
        <ele>237.19999694824</ele>
        <time>2019-07-11T07:32:25Z</time>
      </trkpt>
      <trkpt lat="45.38309" lon="4.72827">
        <ele>240.19999694824</ele>
        <time>2019-07-11T07:32:39Z</time>
      </trkpt>
      <trkpt lat="45.38314" lon="4.72764">
        <ele>243</ele>
        <time>2019-07-11T07:32:58Z</time>
      </trkpt>
      <trkpt lat="45.38319" lon="4.72738">
        <ele>243</ele>
        <time>2019-07-11T07:33:05Z</time>
      </trkpt>
      <trkpt lat="45.38335" lon="4.72726">
        <ele>245</ele>
        <time>2019-07-11T07:33:11Z</time>
      </trkpt>
      <trkpt lat="45.38369" lon="4.72672">
        <ele>245</ele>
        <time>2019-07-11T07:33:23Z</time>
      </trkpt>
      <trkpt lat="45.38374" lon="4.72667">
        <ele>244.19999694824</ele>
        <time>2019-07-11T07:33:24Z</time>
      </trkpt>
      <trkpt lat="45.38461" lon="4.72595">
        <ele>242.80000305176</ele>
        <time>2019-07-11T07:33:46Z</time>
      </trkpt>
      <trkpt lat="45.38462" lon="4.72594">
        <ele>242.80000305176</ele>
        <time>2019-07-11T07:34:01Z</time>
      </trkpt>
      <trkpt lat="45.3848" lon="4.72578">
        <ele>242.80000305176</ele>
        <time>2019-07-11T07:36:09Z</time>
      </trkpt>
      <trkpt lat="45.38505" lon="4.7255">
        <ele>242.80000305176</ele>
        <time>2019-07-11T07:36:18Z</time>
      </trkpt>
      <trkpt lat="45.38506" lon="4.72537">
        <ele>242.80000305176</ele>
        <time>2019-07-11T07:36:21Z</time>
      </trkpt>
      <trkpt lat="45.38503" lon="4.72514">
        <ele>242.80000305176</ele>
        <time>2019-07-11T07:36:27Z</time>
      </trkpt>
      <trkpt lat="45.38509" lon="4.72449">
        <ele>245.39999389648</ele>
        <time>2019-07-11T07:36:43Z</time>
      </trkpt>
      <trkpt lat="45.38526" lon="4.72401">
        <ele>247.39999389648</ele>
        <time>2019-07-11T07:36:57Z</time>
      </trkpt>
      <trkpt lat="45.3854" lon="4.72362">
        <ele>249.39999389648</ele>
        <time>2019-07-11T07:37:08Z</time>
      </trkpt>
      <trkpt lat="45.38538" lon="4.72317">
        <ele>251.39999389648</ele>
        <time>2019-07-11T07:37:19Z</time>
      </trkpt>
      <trkpt lat="45.38537" lon="4.72268">
        <ele>254.39999389648</ele>
        <time>2019-07-11T07:37:32Z</time>
      </trkpt>
      <trkpt lat="45.38533" lon="4.72219">
        <ele>257.39999389648</ele>
        <time>2019-07-11T07:37:46Z</time>
      </trkpt>
      <trkpt lat="45.38511" lon="4.72158">
        <ele>260.20001220703</ele>
        <time>2019-07-11T07:38:06Z</time>
      </trkpt>
      <trkpt lat="45.38514" lon="4.72138">
        <ele>263.20001220703</ele>
        <time>2019-07-11T07:38:14Z</time>
      </trkpt>
      <trkpt lat="45.38519" lon="4.72119">
        <ele>265.79998779297</ele>
        <time>2019-07-11T07:38:22Z</time>
      </trkpt>
      <trkpt lat="45.38523" lon="4.72097">
        <ele>267.39999389648</ele>
        <time>2019-07-11T07:38:32Z</time>
      </trkpt>
      <trkpt lat="45.38527" lon="4.72049">
        <ele>269.79998779297</ele>
        <time>2019-07-11T07:38:50Z</time>
      </trkpt>
      <trkpt lat="45.38526" lon="4.72043">
        <ele>271.20001220703</ele>
        <time>2019-07-11T07:38:53Z</time>
      </trkpt>
      <trkpt lat="45.38523" lon="4.72025">
        <ele>273.60000610352</ele>
        <time>2019-07-11T07:39:02Z</time>
      </trkpt>
      <trkpt lat="45.38527" lon="4.72006">
        <ele>274</ele>
        <time>2019-07-11T07:39:09Z</time>
      </trkpt>
      <trkpt lat="45.38531" lon="4.71987">
        <ele>276.20001220703</ele>
        <time>2019-07-11T07:39:15Z</time>
      </trkpt>
      <trkpt lat="45.38537" lon="4.71951">
        <ele>276.60000610352</ele>
        <time>2019-07-11T07:39:27Z</time>
      </trkpt>
      <trkpt lat="45.38534" lon="4.71932">
        <ele>278.20001220703</ele>
        <time>2019-07-11T07:39:33Z</time>
      </trkpt>
      <trkpt lat="45.38544" lon="4.7187">
        <ele>280.20001220703</ele>
        <time>2019-07-11T07:39:49Z</time>
      </trkpt>
      <trkpt lat="45.38564" lon="4.71814">
        <ele>280.20001220703</ele>
        <time>2019-07-11T07:40:01Z</time>
      </trkpt>
      <trkpt lat="45.38563" lon="4.71757">
        <ele>280.20001220703</ele>
        <time>2019-07-11T07:40:12Z</time>
      </trkpt>
      <trkpt lat="45.38537" lon="4.71656">
        <ele>280.20001220703</ele>
        <time>2019-07-11T07:40:32Z</time>
      </trkpt>
      <trkpt lat="45.38546" lon="4.71596">
        <ele>280.20001220703</ele>
        <time>2019-07-11T07:40:45Z</time>
      </trkpt>
      <trkpt lat="45.38555" lon="4.71565">
        <ele>280.20001220703</ele>
        <time>2019-07-11T07:40:51Z</time>
      </trkpt>
      <trkpt lat="45.3858" lon="4.71539">
        <ele>280.79998779297</ele>
        <time>2019-07-11T07:41:00Z</time>
      </trkpt>
      <trkpt lat="45.38616" lon="4.71501">
        <ele>282.39999389648</ele>
        <time>2019-07-11T07:41:11Z</time>
      </trkpt>
      <trkpt lat="45.38625" lon="4.71484">
        <ele>282.39999389648</ele>
        <time>2019-07-11T07:41:15Z</time>
      </trkpt>
      <trkpt lat="45.38621" lon="4.71427">
        <ele>282.39999389648</ele>
        <time>2019-07-11T07:41:27Z</time>
      </trkpt>
      <trkpt lat="45.38619" lon="4.71407">
        <ele>282.39999389648</ele>
        <time>2019-07-11T07:41:31Z</time>
      </trkpt>
      <trkpt lat="45.38623" lon="4.71349">
        <ele>282.39999389648</ele>
        <time>2019-07-11T07:41:42Z</time>
      </trkpt>
      <trkpt lat="45.38644" lon="4.71318">
        <ele>282.39999389648</ele>
        <time>2019-07-11T07:41:51Z</time>
      </trkpt>
      <trkpt lat="45.3867" lon="4.71295">
        <ele>284.39999389648</ele>
        <time>2019-07-11T07:42:01Z</time>
      </trkpt>
      <trkpt lat="45.38673" lon="4.71268">
        <ele>286.60000610352</ele>
        <time>2019-07-11T07:42:08Z</time>
      </trkpt>
      <trkpt lat="45.38646" lon="4.71228">
        <ele>286.60000610352</ele>
        <time>2019-07-11T07:42:18Z</time>
      </trkpt>
      <trkpt lat="45.38618" lon="4.71189">
        <ele>286.60000610352</ele>
        <time>2019-07-11T07:42:33Z</time>
      </trkpt>
      <trkpt lat="45.38616" lon="4.71184">
        <ele>287</ele>
        <time>2019-07-11T07:42:35Z</time>
      </trkpt>
      <trkpt lat="45.38613" lon="4.71179">
        <ele>288</ele>
        <time>2019-07-11T07:42:37Z</time>
      </trkpt>
      <trkpt lat="45.38606" lon="4.71154">
        <ele>288.79998779297</ele>
        <time>2019-07-11T07:42:46Z</time>
      </trkpt>
      <trkpt lat="45.38592" lon="4.71106">
        <ele>288.79998779297</ele>
        <time>2019-07-11T07:43:01Z</time>
      </trkpt>
      <trkpt lat="45.38598" lon="4.71084">
        <ele>288.79998779297</ele>
        <time>2019-07-11T07:43:17Z</time>
      </trkpt>
      <trkpt lat="45.38599" lon="4.71065">
        <ele>291</ele>
        <time>2019-07-11T07:43:25Z</time>
      </trkpt>
      <trkpt lat="45.38598" lon="4.71051">
        <ele>291</ele>
        <time>2019-07-11T07:43:32Z</time>
      </trkpt>
      <trkpt lat="45.38611" lon="4.71034">
        <ele>293.20001220703</ele>
        <time>2019-07-11T07:43:41Z</time>
      </trkpt>
      <trkpt lat="45.38639" lon="4.70982">
        <ele>293.20001220703</ele>
        <time>2019-07-11T07:43:55Z</time>
      </trkpt>
      <trkpt lat="45.38656" lon="4.70958">
        <ele>293.20001220703</ele>
        <time>2019-07-11T07:44:04Z</time>
      </trkpt>
      <trkpt lat="45.3866" lon="4.7095">
        <ele>293.60000610352</ele>
        <time>2019-07-11T07:44:07Z</time>
      </trkpt>
      <trkpt lat="45.38678" lon="4.70922">
        <ele>295.20001220703</ele>
        <time>2019-07-11T07:44:18Z</time>
      </trkpt>
      <trkpt lat="45.38694" lon="4.70877">
        <ele>297.20001220703</ele>
        <time>2019-07-11T07:44:33Z</time>
      </trkpt>
      <trkpt lat="45.38694" lon="4.70875">
        <ele>297.60000610352</ele>
        <time>2019-07-11T07:44:34Z</time>
      </trkpt>
      <trkpt lat="45.38695" lon="4.70869">
        <ele>299</ele>
        <time>2019-07-11T07:44:37Z</time>
      </trkpt>
      <trkpt lat="45.38699" lon="4.70842">
        <ele>299.39999389648</ele>
        <time>2019-07-11T07:44:47Z</time>
      </trkpt>
      <trkpt lat="45.38709" lon="4.70778">
        <ele>299.39999389648</ele>
        <time>2019-07-11T07:45:01Z</time>
      </trkpt>
      <trkpt lat="45.38708" lon="4.70745">
        <ele>299.39999389648</ele>
        <time>2019-07-11T07:45:09Z</time>
      </trkpt>
      <trkpt lat="45.38704" lon="4.70718">
        <ele>301.39999389648</ele>
        <time>2019-07-11T07:45:18Z</time>
      </trkpt>
      <trkpt lat="45.38714" lon="4.70701">
        <ele>301.39999389648</ele>
        <time>2019-07-11T07:45:28Z</time>
      </trkpt>
      <trkpt lat="45.3872" lon="4.70694">
        <ele>301.39999389648</ele>
        <time>2019-07-11T07:45:32Z</time>
      </trkpt>
      <trkpt lat="45.38722" lon="4.70692">
        <ele>301.79998779297</ele>
        <time>2019-07-11T07:45:33Z</time>
      </trkpt>
      <trkpt lat="45.38734" lon="4.70664">
        <ele>303.60000610352</ele>
        <time>2019-07-11T07:45:41Z</time>
      </trkpt>
      <trkpt lat="45.38745" lon="4.70649">
        <ele>305.60000610352</ele>
        <time>2019-07-11T07:45:50Z</time>
      </trkpt>
      <trkpt lat="45.38773" lon="4.70608">
        <ele>305.60000610352</ele>
        <time>2019-07-11T07:46:06Z</time>
      </trkpt>
      <trkpt lat="45.38783" lon="4.70587">
        <ele>305.60000610352</ele>
        <time>2019-07-11T07:46:27Z</time>
      </trkpt>
      <trkpt lat="45.38781" lon="4.70578">
        <ele>306</ele>
        <time>2019-07-11T07:46:40Z</time>
      </trkpt>
      <trkpt lat="45.3878" lon="4.70576">
        <ele>307.79998779297</ele>
        <time>2019-07-11T07:46:53Z</time>
      </trkpt>
      <trkpt lat="45.38784" lon="4.70566">
        <ele>307.79998779297</ele>
        <time>2019-07-11T07:47:08Z</time>
      </trkpt>
      <trkpt lat="45.38787" lon="4.70549">
        <ele>307.79998779297</ele>
        <time>2019-07-11T07:47:17Z</time>
      </trkpt>
      <trkpt lat="45.38784" lon="4.70544">
        <ele>308.20001220703</ele>
        <time>2019-07-11T07:47:19Z</time>
      </trkpt>
      <trkpt lat="45.38786" lon="4.70528">
        <ele>311.60000610352</ele>
        <time>2019-07-11T07:47:26Z</time>
      </trkpt>
      <trkpt lat="45.38787" lon="4.7052">
        <ele>312.79998779297</ele>
        <time>2019-07-11T07:47:30Z</time>
      </trkpt>
      <trkpt lat="45.38787" lon="4.70517">
        <ele>313.39999389648</ele>
        <time>2019-07-11T07:47:31Z</time>
      </trkpt>
      <trkpt lat="45.38789" lon="4.70513">
        <ele>314.79998779297</ele>
        <time>2019-07-11T07:47:40Z</time>
      </trkpt>
      <trkpt lat="45.38788" lon="4.70512">
        <ele>315.20001220703</ele>
        <time>2019-07-11T07:47:43Z</time>
      </trkpt>
      <trkpt lat="45.38788" lon="4.70502">
        <ele>317.20001220703</ele>
        <time>2019-07-11T07:47:56Z</time>
      </trkpt>
      <trkpt lat="45.38788" lon="4.70502">
        <ele>317.60000610352</ele>
        <time>2019-07-11T07:47:57Z</time>
      </trkpt>
      <trkpt lat="45.38787" lon="4.70496">
        <ele>318.79998779297</ele>
        <time>2019-07-11T07:48:00Z</time>
      </trkpt>
      <trkpt lat="45.3879" lon="4.70487">
        <ele>320.79998779297</ele>
        <time>2019-07-11T07:48:13Z</time>
      </trkpt>
      <trkpt lat="45.38793" lon="4.70469">
        <ele>321.20001220703</ele>
        <time>2019-07-11T07:48:34Z</time>
      </trkpt>
      <trkpt lat="45.38797" lon="4.70463">
        <ele>323.20001220703</ele>
        <time>2019-07-11T07:48:37Z</time>
      </trkpt>
      <trkpt lat="45.38798" lon="4.7045">
        <ele>324.39999389648</ele>
        <time>2019-07-11T07:48:42Z</time>
      </trkpt>
      <trkpt lat="45.38796" lon="4.70428">
        <ele>326.79998779297</ele>
        <time>2019-07-11T07:48:50Z</time>
      </trkpt>
      <trkpt lat="45.38796" lon="4.70426">
        <ele>327.20001220703</ele>
        <time>2019-07-11T07:48:51Z</time>
      </trkpt>
      <trkpt lat="45.38793" lon="4.70414">
        <ele>328.60000610352</ele>
        <time>2019-07-11T07:48:57Z</time>
      </trkpt>
      <trkpt lat="45.38785" lon="4.70399">
        <ele>331.20001220703</ele>
        <time>2019-07-11T07:49:06Z</time>
      </trkpt>
      <trkpt lat="45.38778" lon="4.7039">
        <ele>332.39999389648</ele>
        <time>2019-07-11T07:49:12Z</time>
      </trkpt>
      <trkpt lat="45.38774" lon="4.70377">
        <ele>334.60000610352</ele>
        <time>2019-07-11T07:49:20Z</time>
      </trkpt>
      <trkpt lat="45.3877" lon="4.70368">
        <ele>336.20001220703</ele>
        <time>2019-07-11T07:49:26Z</time>
      </trkpt>
      <trkpt lat="45.38763" lon="4.70362">
        <ele>338</ele>
        <time>2019-07-11T07:49:30Z</time>
      </trkpt>
      <trkpt lat="45.38752" lon="4.70348">
        <ele>339.20001220703</ele>
        <time>2019-07-11T07:49:42Z</time>
      </trkpt>
      <trkpt lat="45.38743" lon="4.70334">
        <ele>340.79998779297</ele>
        <time>2019-07-11T07:49:51Z</time>
      </trkpt>
      <trkpt lat="45.38742" lon="4.7033">
        <ele>342</ele>
        <time>2019-07-11T07:49:54Z</time>
      </trkpt>
      <trkpt lat="45.38738" lon="4.70318">
        <ele>344.20001220703</ele>
        <time>2019-07-11T07:50:04Z</time>
      </trkpt>
      <trkpt lat="45.38732" lon="4.70309">
        <ele>346.60000610352</ele>
        <time>2019-07-11T07:50:12Z</time>
      </trkpt>
      <trkpt lat="45.38727" lon="4.70305">
        <ele>346.60000610352</ele>
        <time>2019-07-11T07:50:28Z</time>
      </trkpt>
      <trkpt lat="45.38716" lon="4.70291">
        <ele>348.60000610352</ele>
        <time>2019-07-11T07:50:37Z</time>
      </trkpt>
      <trkpt lat="45.38708" lon="4.70282">
        <ele>349</ele>
        <time>2019-07-11T07:50:45Z</time>
      </trkpt>
      <trkpt lat="45.387" lon="4.70267">
        <ele>351.39999389648</ele>
        <time>2019-07-11T07:50:52Z</time>
      </trkpt>
      <trkpt lat="45.3869" lon="4.70242">
        <ele>353</ele>
        <time>2019-07-11T07:51:01Z</time>
      </trkpt>
      <trkpt lat="45.38674" lon="4.70198">
        <ele>355</ele>
        <time>2019-07-11T07:51:20Z</time>
      </trkpt>
      <trkpt lat="45.38697" lon="4.70188">
        <ele>355</ele>
        <time>2019-07-11T07:51:26Z</time>
      </trkpt>
      <trkpt lat="45.38716" lon="4.70182">
        <ele>354.20001220703</ele>
        <time>2019-07-11T07:51:29Z</time>
      </trkpt>
      <trkpt lat="45.3875" lon="4.70204">
        <ele>353</ele>
        <time>2019-07-11T07:51:35Z</time>
      </trkpt>
      <trkpt lat="45.38761" lon="4.70214">
        <ele>352.60000610352</ele>
        <time>2019-07-11T07:51:38Z</time>
      </trkpt>
      <trkpt lat="45.38786" lon="4.70237">
        <ele>349.60000610352</ele>
        <time>2019-07-11T07:51:43Z</time>
      </trkpt>
      <trkpt lat="45.38814" lon="4.70262">
        <ele>346.39999389648</ele>
        <time>2019-07-11T07:51:47Z</time>
      </trkpt>
      <trkpt lat="45.38833" lon="4.70274">
        <ele>344</ele>
        <time>2019-07-11T07:51:50Z</time>
      </trkpt>
      <trkpt lat="45.38859" lon="4.70268">
        <ele>340.79998779297</ele>
        <time>2019-07-11T07:51:54Z</time>
      </trkpt>
      <trkpt lat="45.38863" lon="4.70264">
        <ele>340</ele>
        <time>2019-07-11T07:51:55Z</time>
      </trkpt>
      <trkpt lat="45.38881" lon="4.70245">
        <ele>337</ele>
        <time>2019-07-11T07:51:59Z</time>
      </trkpt>
      <trkpt lat="45.38896" lon="4.70205">
        <ele>333.60000610352</ele>
        <time>2019-07-11T07:52:04Z</time>
      </trkpt>
      <trkpt lat="45.38904" lon="4.70181">
        <ele>331.79998779297</ele>
        <time>2019-07-11T07:52:07Z</time>
      </trkpt>
      <trkpt lat="45.38922" lon="4.70157">
        <ele>328.39999389648</ele>
        <time>2019-07-11T07:52:12Z</time>
      </trkpt>
      <trkpt lat="45.38928" lon="4.70147">
        <ele>325</ele>
        <time>2019-07-11T07:52:17Z</time>
      </trkpt>
      <trkpt lat="45.38932" lon="4.70147">
        <ele>325</ele>
        <time>2019-07-11T07:52:19Z</time>
      </trkpt>
      <trkpt lat="45.38945" lon="4.70157">
        <ele>325</ele>
        <time>2019-07-11T07:52:26Z</time>
      </trkpt>
      <trkpt lat="45.38954" lon="4.70166">
        <ele>325</ele>
        <time>2019-07-11T07:52:31Z</time>
      </trkpt>
      <trkpt lat="45.38962" lon="4.70194">
        <ele>326</ele>
        <time>2019-07-11T07:52:42Z</time>
      </trkpt>
      <trkpt lat="45.38961" lon="4.70215">
        <ele>329</ele>
        <time>2019-07-11T07:52:52Z</time>
      </trkpt>
      <trkpt lat="45.38962" lon="4.70243">
        <ele>331.60000610352</ele>
        <time>2019-07-11T07:53:03Z</time>
      </trkpt>
      <trkpt lat="45.38974" lon="4.70267">
        <ele>334.20001220703</ele>
        <time>2019-07-11T07:53:16Z</time>
      </trkpt>
      <trkpt lat="45.38975" lon="4.70272">
        <ele>335.60000610352</ele>
        <time>2019-07-11T07:53:19Z</time>
      </trkpt>
      <trkpt lat="45.38985" lon="4.70305">
        <ele>338.60000610352</ele>
        <time>2019-07-11T07:53:36Z</time>
      </trkpt>
      <trkpt lat="45.38988" lon="4.70325">
        <ele>341.60000610352</ele>
        <time>2019-07-11T07:53:48Z</time>
      </trkpt>
      <trkpt lat="45.38985" lon="4.70335">
        <ele>342.60000610352</ele>
        <time>2019-07-11T07:53:54Z</time>
      </trkpt>
      <trkpt lat="45.38973" lon="4.70381">
        <ele>344.60000610352</ele>
        <time>2019-07-11T07:54:16Z</time>
      </trkpt>
      <trkpt lat="45.3897" lon="4.70398">
        <ele>344.60000610352</ele>
        <time>2019-07-11T07:54:23Z</time>
      </trkpt>
      <trkpt lat="45.38962" lon="4.70442">
        <ele>346.79998779297</ele>
        <time>2019-07-11T07:54:40Z</time>
      </trkpt>
      <trkpt lat="45.38964" lon="4.7054">
        <ele>348.79998779297</ele>
        <time>2019-07-11T07:55:09Z</time>
      </trkpt>
      <trkpt lat="45.38985" lon="4.7063">
        <ele>351</ele>
        <time>2019-07-11T07:55:31Z</time>
      </trkpt>
      <trkpt lat="45.39031" lon="4.70774">
        <ele>351</ele>
        <time>2019-07-11T07:56:01Z</time>
      </trkpt>
      <trkpt lat="45.39049" lon="4.70857">
        <ele>353</ele>
        <time>2019-07-11T07:56:16Z</time>
      </trkpt>
      <trkpt lat="45.39082" lon="4.70981">
        <ele>352.60000610352</ele>
        <time>2019-07-11T07:56:37Z</time>
      </trkpt>
      <trkpt lat="45.39097" lon="4.7106">
        <ele>351</ele>
        <time>2019-07-11T07:56:48Z</time>
      </trkpt>
      <trkpt lat="45.39108" lon="4.71103">
        <ele>351</ele>
        <time>2019-07-11T07:56:54Z</time>
      </trkpt>
      <trkpt lat="45.39146" lon="4.71222">
        <ele>349</ele>
        <time>2019-07-11T07:57:12Z</time>
      </trkpt>
      <trkpt lat="45.39155" lon="4.71297">
        <ele>348.60000610352</ele>
        <time>2019-07-11T07:57:22Z</time>
      </trkpt>
      <trkpt lat="45.39156" lon="4.71429">
        <ele>346.79998779297</ele>
        <time>2019-07-11T07:57:39Z</time>
      </trkpt>
      <trkpt lat="45.39151" lon="4.71509">
        <ele>346.79998779297</ele>
        <time>2019-07-11T07:57:50Z</time>
      </trkpt>
      <trkpt lat="45.39151" lon="4.716">
        <ele>346.79998779297</ele>
        <time>2019-07-11T07:58:02Z</time>
      </trkpt>
      <trkpt lat="45.39167" lon="4.71723">
        <ele>346.79998779297</ele>
        <time>2019-07-11T07:58:19Z</time>
      </trkpt>
      <trkpt lat="45.39191" lon="4.71799">
        <ele>343.39999389648</ele>
        <time>2019-07-11T07:58:28Z</time>
      </trkpt>
      <trkpt lat="45.39217" lon="4.71883">
        <ele>340.39999389648</ele>
        <time>2019-07-11T07:58:38Z</time>
      </trkpt>
      <trkpt lat="45.39221" lon="4.71891">
        <ele>340.39999389648</ele>
        <time>2019-07-11T07:58:39Z</time>
      </trkpt>
      <trkpt lat="45.39255" lon="4.71945">
        <ele>338.60000610352</ele>
        <time>2019-07-11T07:58:47Z</time>
      </trkpt>
      <trkpt lat="45.39281" lon="4.72016">
        <ele>335.60000610352</ele>
        <time>2019-07-11T07:58:58Z</time>
      </trkpt>
      <trkpt lat="45.39287" lon="4.72029">
        <ele>334.79998779297</ele>
        <time>2019-07-11T07:59:00Z</time>
      </trkpt>
      <trkpt lat="45.39309" lon="4.72062">
        <ele>333</ele>
        <time>2019-07-11T07:59:05Z</time>
      </trkpt>
      <trkpt lat="45.39336" lon="4.72108">
        <ele>329.60000610352</ele>
        <time>2019-07-11T07:59:10Z</time>
      </trkpt>
      <trkpt lat="45.39341" lon="4.72117">
        <ele>328.60000610352</ele>
        <time>2019-07-11T07:59:11Z</time>
      </trkpt>
      <trkpt lat="45.39357" lon="4.72143">
        <ele>326.20001220703</ele>
        <time>2019-07-11T07:59:14Z</time>
      </trkpt>
      <trkpt lat="45.39374" lon="4.72169">
        <ele>324</ele>
        <time>2019-07-11T07:59:17Z</time>
      </trkpt>
      <trkpt lat="45.39392" lon="4.72192">
        <ele>321</ele>
        <time>2019-07-11T07:59:21Z</time>
      </trkpt>
      <trkpt lat="45.39416" lon="4.72225">
        <ele>318.79998779297</ele>
        <time>2019-07-11T07:59:28Z</time>
      </trkpt>
      <trkpt lat="45.39438" lon="4.72256">
        <ele>317</ele>
        <time>2019-07-11T07:59:33Z</time>
      </trkpt>
      <trkpt lat="45.39465" lon="4.72292">
        <ele>313.79998779297</ele>
        <time>2019-07-11T07:59:41Z</time>
      </trkpt>
      <trkpt lat="45.39468" lon="4.72299">
        <ele>312.79998779297</ele>
        <time>2019-07-11T07:59:43Z</time>
      </trkpt>
      <trkpt lat="45.39494" lon="4.72334">
        <ele>312.20001220703</ele>
        <time>2019-07-11T07:59:51Z</time>
      </trkpt>
      <trkpt lat="45.39505" lon="4.72351">
        <ele>311</ele>
        <time>2019-07-11T07:59:54Z</time>
      </trkpt>
      <trkpt lat="45.39521" lon="4.72378">
        <ele>310.20001220703</ele>
        <time>2019-07-11T08:00:00Z</time>
      </trkpt>
      <trkpt lat="45.39533" lon="4.72395">
        <ele>308.60000610352</ele>
        <time>2019-07-11T08:00:04Z</time>
      </trkpt>
      <trkpt lat="45.39592" lon="4.72474">
        <ele>306</ele>
        <time>2019-07-11T08:00:20Z</time>
      </trkpt>
      <trkpt lat="45.39606" lon="4.72494">
        <ele>304.20001220703</ele>
        <time>2019-07-11T08:00:24Z</time>
      </trkpt>
      <trkpt lat="45.39651" lon="4.72549">
        <ele>301</ele>
        <time>2019-07-11T08:00:36Z</time>
      </trkpt>
      <trkpt lat="45.39655" lon="4.72553">
        <ele>300.60000610352</ele>
        <time>2019-07-11T08:00:37Z</time>
      </trkpt>
      <trkpt lat="45.39662" lon="4.72565">
        <ele>299.79998779297</ele>
        <time>2019-07-11T08:00:39Z</time>
      </trkpt>
      <trkpt lat="45.39682" lon="4.72589">
        <ele>298.39999389648</ele>
        <time>2019-07-11T08:00:44Z</time>
      </trkpt>
      <trkpt lat="45.3969" lon="4.72597">
        <ele>297.60000610352</ele>
        <time>2019-07-11T08:00:46Z</time>
      </trkpt>
      <trkpt lat="45.39719" lon="4.72587">
        <ele>297.60000610352</ele>
        <time>2019-07-11T08:00:53Z</time>
      </trkpt>
      <trkpt lat="45.39763" lon="4.72534">
        <ele>297.60000610352</ele>
        <time>2019-07-11T08:01:05Z</time>
      </trkpt>
      <trkpt lat="45.39807" lon="4.72482">
        <ele>300.79998779297</ele>
        <time>2019-07-11T08:01:21Z</time>
      </trkpt>
      <trkpt lat="45.39877" lon="4.72393">
        <ele>302</ele>
        <time>2019-07-11T08:01:48Z</time>
      </trkpt>
      <trkpt lat="45.39886" lon="4.72381">
        <ele>302</ele>
        <time>2019-07-11T08:01:51Z</time>
      </trkpt>
      <trkpt lat="45.399" lon="4.72356">
        <ele>302</ele>
        <time>2019-07-11T08:01:56Z</time>
      </trkpt>
      <trkpt lat="45.39913" lon="4.72329">
        <ele>302</ele>
        <time>2019-07-11T08:02:01Z</time>
      </trkpt>
      <trkpt lat="45.3995" lon="4.72289">
        <ele>302.79998779297</ele>
        <time>2019-07-11T08:02:11Z</time>
      </trkpt>
      <trkpt lat="45.39957" lon="4.72281">
        <ele>304</ele>
        <time>2019-07-11T08:02:13Z</time>
      </trkpt>
      <trkpt lat="45.39987" lon="4.72242">
        <ele>304</ele>
        <time>2019-07-11T08:02:22Z</time>
      </trkpt>
      <trkpt lat="45.40037" lon="4.72162">
        <ele>304</ele>
        <time>2019-07-11T08:02:37Z</time>
      </trkpt>
      <trkpt lat="45.40052" lon="4.72141">
        <ele>304</ele>
        <time>2019-07-11T08:02:41Z</time>
      </trkpt>
      <trkpt lat="45.40104" lon="4.72044">
        <ele>301.60000610352</ele>
        <time>2019-07-11T08:02:55Z</time>
      </trkpt>
      <trkpt lat="45.40119" lon="4.7202">
        <ele>301.60000610352</ele>
        <time>2019-07-11T08:02:59Z</time>
      </trkpt>
      <trkpt lat="45.40123" lon="4.72014">
        <ele>301.60000610352</ele>
        <time>2019-07-11T08:03:00Z</time>
      </trkpt>
      <trkpt lat="45.40145" lon="4.71981">
        <ele>301.60000610352</ele>
        <time>2019-07-11T08:03:06Z</time>
      </trkpt>
      <trkpt lat="45.40179" lon="4.71885">
        <ele>299.39999389648</ele>
        <time>2019-07-11T08:03:19Z</time>
      </trkpt>
      <trkpt lat="45.40188" lon="4.71853">
        <ele>299.39999389648</ele>
        <time>2019-07-11T08:03:23Z</time>
      </trkpt>
      <trkpt lat="45.4022" lon="4.71792">
        <ele>299.39999389648</ele>
        <time>2019-07-11T08:03:33Z</time>
      </trkpt>
      <trkpt lat="45.40237" lon="4.71755">
        <ele>297.39999389648</ele>
        <time>2019-07-11T08:03:40Z</time>
      </trkpt>
      <trkpt lat="45.40281" lon="4.71737">
        <ele>294</ele>
        <time>2019-07-11T08:03:50Z</time>
      </trkpt>
      <trkpt lat="45.40289" lon="4.71734">
        <ele>292.60000610352</ele>
        <time>2019-07-11T08:03:52Z</time>
      </trkpt>
      <trkpt lat="45.40303" lon="4.71727">
        <ele>291.20001220703</ele>
        <time>2019-07-11T08:03:55Z</time>
      </trkpt>
      <trkpt lat="45.40315" lon="4.71717">
        <ele>289</ele>
        <time>2019-07-11T08:03:59Z</time>
      </trkpt>
      <trkpt lat="45.40334" lon="4.71692">
        <ele>286</ele>
        <time>2019-07-11T08:04:05Z</time>
      </trkpt>
      <trkpt lat="45.40347" lon="4.71677">
        <ele>282.60000610352</ele>
        <time>2019-07-11T08:04:10Z</time>
      </trkpt>
      <trkpt lat="45.40366" lon="4.71658">
        <ele>279</ele>
        <time>2019-07-11T08:04:15Z</time>
      </trkpt>
      <trkpt lat="45.40374" lon="4.71649">
        <ele>276.60000610352</ele>
        <time>2019-07-11T08:04:17Z</time>
      </trkpt>
      <trkpt lat="45.40385" lon="4.71627">
        <ele>273.20001220703</ele>
        <time>2019-07-11T08:04:21Z</time>
      </trkpt>
      <trkpt lat="45.4039" lon="4.71613">
        <ele>271.20001220703</ele>
        <time>2019-07-11T08:04:24Z</time>
      </trkpt>
      <trkpt lat="45.40388" lon="4.716">
        <ele>270</ele>
        <time>2019-07-11T08:04:27Z</time>
      </trkpt>
      <trkpt lat="45.40389" lon="4.71582">
        <ele>268.20001220703</ele>
        <time>2019-07-11T08:04:33Z</time>
      </trkpt>
      <trkpt lat="45.40397" lon="4.7158">
        <ele>265</ele>
        <time>2019-07-11T08:04:41Z</time>
      </trkpt>
      <trkpt lat="45.40398" lon="4.71581">
        <ele>265</ele>
        <time>2019-07-11T08:04:42Z</time>
      </trkpt>
      <trkpt lat="45.40419" lon="4.71589">
        <ele>263</ele>
        <time>2019-07-11T08:04:51Z</time>
      </trkpt>
      <trkpt lat="45.40421" lon="4.71587">
        <ele>263</ele>
        <time>2019-07-11T08:04:53Z</time>
      </trkpt>
      <trkpt lat="45.4044" lon="4.71566">
        <ele>265</ele>
        <time>2019-07-11T08:05:14Z</time>
      </trkpt>
      <trkpt lat="45.40455" lon="4.71572">
        <ele>265.39999389648</ele>
        <time>2019-07-11T08:05:35Z</time>
      </trkpt>
      <trkpt lat="45.40457" lon="4.71578">
        <ele>267</ele>
        <time>2019-07-11T08:05:43Z</time>
      </trkpt>
      <trkpt lat="45.40452" lon="4.71596">
        <ele>267.39999389648</ele>
        <time>2019-07-11T08:05:55Z</time>
      </trkpt>
      <trkpt lat="45.40449" lon="4.71607">
        <ele>270.39999389648</ele>
        <time>2019-07-11T08:06:02Z</time>
      </trkpt>
      <trkpt lat="45.4044" lon="4.71627">
        <ele>273.39999389648</ele>
        <time>2019-07-11T08:06:11Z</time>
      </trkpt>
      <trkpt lat="45.40438" lon="4.71632">
        <ele>273.39999389648</ele>
        <time>2019-07-11T08:06:13Z</time>
      </trkpt>
      <trkpt lat="45.40433" lon="4.71689">
        <ele>275.60000610352</ele>
        <time>2019-07-11T08:06:34Z</time>
      </trkpt>
      <trkpt lat="45.4043" lon="4.7172">
        <ele>278.79998779297</ele>
        <time>2019-07-11T08:06:48Z</time>
      </trkpt>
      <trkpt lat="45.40426" lon="4.71756">
        <ele>281.39999389648</ele>
        <time>2019-07-11T08:07:03Z</time>
      </trkpt>
      <trkpt lat="45.40428" lon="4.71776">
        <ele>284</ele>
        <time>2019-07-11T08:07:16Z</time>
      </trkpt>
      <trkpt lat="45.40435" lon="4.71767">
        <ele>284</ele>
        <time>2019-07-11T08:07:22Z</time>
      </trkpt>
      <trkpt lat="45.4045" lon="4.71751">
        <ele>287</ele>
        <time>2019-07-11T08:07:35Z</time>
      </trkpt>
      <trkpt lat="45.4046" lon="4.71742">
        <ele>288.60000610352</ele>
        <time>2019-07-11T08:07:43Z</time>
      </trkpt>
      <trkpt lat="45.40462" lon="4.71744">
        <ele>289.39999389648</ele>
        <time>2019-07-11T08:07:46Z</time>
      </trkpt>
      <trkpt lat="45.40471" lon="4.71769">
        <ele>292.60000610352</ele>
        <time>2019-07-11T08:08:00Z</time>
      </trkpt>
      <trkpt lat="45.40478" lon="4.71787">
        <ele>295.60000610352</ele>
        <time>2019-07-11T08:08:10Z</time>
      </trkpt>
      <trkpt lat="45.40483" lon="4.71798">
        <ele>297.79998779297</ele>
        <time>2019-07-11T08:08:17Z</time>
      </trkpt>
      <trkpt lat="45.40484" lon="4.71799">
        <ele>298.20001220703</ele>
        <time>2019-07-11T08:08:18Z</time>
      </trkpt>
      <trkpt lat="45.4049" lon="4.71805">
        <ele>298.60000610352</ele>
        <time>2019-07-11T08:08:24Z</time>
      </trkpt>
      <trkpt lat="45.40502" lon="4.71817">
        <ele>301.60000610352</ele>
        <time>2019-07-11T08:08:37Z</time>
      </trkpt>
      <trkpt lat="45.40524" lon="4.71831">
        <ele>304.39999389648</ele>
        <time>2019-07-11T08:08:54Z</time>
      </trkpt>
      <trkpt lat="45.40555" lon="4.71862">
        <ele>306.79998779297</ele>
        <time>2019-07-11T08:09:13Z</time>
      </trkpt>
      <trkpt lat="45.40576" lon="4.71904">
        <ele>306.79998779297</ele>
        <time>2019-07-11T08:09:25Z</time>
      </trkpt>
      <trkpt lat="45.40613" lon="4.7197">
        <ele>306.79998779297</ele>
        <time>2019-07-11T08:09:45Z</time>
      </trkpt>
      <trkpt lat="45.40626" lon="4.71981">
        <ele>306.79998779297</ele>
        <time>2019-07-11T08:09:50Z</time>
      </trkpt>
      <trkpt lat="45.40657" lon="4.71976">
        <ele>308.20001220703</ele>
        <time>2019-07-11T08:10:02Z</time>
      </trkpt>
      <trkpt lat="45.40672" lon="4.71971">
        <ele>309.60000610352</ele>
        <time>2019-07-11T08:10:09Z</time>
      </trkpt>
      <trkpt lat="45.40673" lon="4.7197">
        <ele>310</ele>
        <time>2019-07-11T08:10:10Z</time>
      </trkpt>
      <trkpt lat="45.40679" lon="4.71973">
        <ele>311.20001220703</ele>
        <time>2019-07-11T08:10:13Z</time>
      </trkpt>
      <trkpt lat="45.40705" lon="4.71988">
        <ele>313.60000610352</ele>
        <time>2019-07-11T08:10:30Z</time>
      </trkpt>
      <trkpt lat="45.40709" lon="4.71981">
        <ele>315.39999389648</ele>
        <time>2019-07-11T08:10:35Z</time>
      </trkpt>
      <trkpt lat="45.40711" lon="4.71964">
        <ele>316.79998779297</ele>
        <time>2019-07-11T08:10:43Z</time>
      </trkpt>
      <trkpt lat="45.40712" lon="4.71951">
        <ele>318</ele>
        <time>2019-07-11T08:10:49Z</time>
      </trkpt>
      <trkpt lat="45.40713" lon="4.71933">
        <ele>319.79998779297</ele>
        <time>2019-07-11T08:10:57Z</time>
      </trkpt>
      <trkpt lat="45.40712" lon="4.7189">
        <ele>321.79998779297</ele>
        <time>2019-07-11T08:11:13Z</time>
      </trkpt>
      <trkpt lat="45.40731" lon="4.71808">
        <ele>321.79998779297</ele>
        <time>2019-07-11T08:11:34Z</time>
      </trkpt>
      <trkpt lat="45.40751" lon="4.71716">
        <ele>323.79998779297</ele>
        <time>2019-07-11T08:11:55Z</time>
      </trkpt>
      <trkpt lat="45.40756" lon="4.71614">
        <ele>326.39999389648</ele>
        <time>2019-07-11T08:12:18Z</time>
      </trkpt>
      <trkpt lat="45.4075" lon="4.71547">
        <ele>329.60000610352</ele>
        <time>2019-07-11T08:12:33Z</time>
      </trkpt>
      <trkpt lat="45.4073" lon="4.71437">
        <ele>330</ele>
        <time>2019-07-11T08:12:57Z</time>
      </trkpt>
      <trkpt lat="45.40725" lon="4.71338">
        <ele>332.39999389648</ele>
        <time>2019-07-11T08:13:18Z</time>
      </trkpt>
      <trkpt lat="45.40729" lon="4.71284">
        <ele>334.20001220703</ele>
        <time>2019-07-11T08:13:34Z</time>
      </trkpt>
      <trkpt lat="45.40703" lon="4.7122">
        <ele>334.20001220703</ele>
        <time>2019-07-11T08:13:45Z</time>
      </trkpt>
      <trkpt lat="45.40685" lon="4.71178">
        <ele>334.20001220703</ele>
        <time>2019-07-11T08:13:51Z</time>
      </trkpt>
      <trkpt lat="45.4067" lon="4.71118">
        <ele>334.20001220703</ele>
        <time>2019-07-11T08:14:01Z</time>
      </trkpt>
      <trkpt lat="45.40636" lon="4.70982">
        <ele>335.39999389648</ele>
        <time>2019-07-11T08:14:28Z</time>
      </trkpt>
      <trkpt lat="45.40616" lon="4.70892">
        <ele>336.20001220703</ele>
        <time>2019-07-11T08:14:49Z</time>
      </trkpt>
      <trkpt lat="45.4059" lon="4.70803">
        <ele>338.20001220703</ele>
        <time>2019-07-11T08:15:11Z</time>
      </trkpt>
      <trkpt lat="45.40571" lon="4.70748">
        <ele>338.20001220703</ele>
        <time>2019-07-11T08:15:22Z</time>
      </trkpt>
      <trkpt lat="45.40565" lon="4.70705">
        <ele>338.20001220703</ele>
        <time>2019-07-11T08:15:29Z</time>
      </trkpt>
      <trkpt lat="45.40551" lon="4.70524">
        <ele>338.20001220703</ele>
        <time>2019-07-11T08:15:59Z</time>
      </trkpt>
      <trkpt lat="45.40517" lon="4.70443">
        <ele>338.60000610352</ele>
        <time>2019-07-11T08:16:17Z</time>
      </trkpt>
      <trkpt lat="45.40494" lon="4.70377">
        <ele>340.79998779297</ele>
        <time>2019-07-11T08:16:34Z</time>
      </trkpt>
      <trkpt lat="45.40469" lon="4.70315">
        <ele>342.79998779297</ele>
        <time>2019-07-11T08:16:52Z</time>
      </trkpt>
      <trkpt lat="45.40446" lon="4.70263">
        <ele>344.79998779297</ele>
        <time>2019-07-11T08:17:07Z</time>
      </trkpt>
      <trkpt lat="45.40427" lon="4.70205">
        <ele>348</ele>
        <time>2019-07-11T08:17:25Z</time>
      </trkpt>
      <trkpt lat="45.40402" lon="4.70101">
        <ele>351.20001220703</ele>
        <time>2019-07-11T08:17:53Z</time>
      </trkpt>
      <trkpt lat="45.40375" lon="4.70038">
        <ele>354.20001220703</ele>
        <time>2019-07-11T08:18:12Z</time>
      </trkpt>
      <trkpt lat="45.40355" lon="4.69975">
        <ele>357.20001220703</ele>
        <time>2019-07-11T08:18:34Z</time>
      </trkpt>
      <trkpt lat="45.4036" lon="4.69977">
        <ele>357.20001220703</ele>
        <time>2019-07-11T08:18:58Z</time>
      </trkpt>
      <trkpt lat="45.40359" lon="4.69978">
        <ele>357.20001220703</ele>
        <time>2019-07-11T08:19:16Z</time>
      </trkpt>
      <trkpt lat="45.40351" lon="4.69958">
        <ele>357.20001220703</ele>
        <time>2019-07-11T08:19:25Z</time>
      </trkpt>
      <trkpt lat="45.4035" lon="4.69951">
        <ele>357.20001220703</ele>
        <time>2019-07-11T08:19:27Z</time>
      </trkpt>
      <trkpt lat="45.40329" lon="4.69849">
        <ele>359.39999389648</ele>
        <time>2019-07-11T08:19:52Z</time>
      </trkpt>
      <trkpt lat="45.40319" lon="4.69752">
        <ele>359.39999389648</ele>
        <time>2019-07-11T08:20:12Z</time>
      </trkpt>
      <trkpt lat="45.40307" lon="4.69649">
        <ele>359.39999389648</ele>
        <time>2019-07-11T08:20:31Z</time>
      </trkpt>
      <trkpt lat="45.40277" lon="4.69582">
        <ele>359.79998779297</ele>
        <time>2019-07-11T08:20:47Z</time>
      </trkpt>
      <trkpt lat="45.40249" lon="4.69555">
        <ele>362.79998779297</ele>
        <time>2019-07-11T08:20:59Z</time>
      </trkpt>
      <trkpt lat="45.40247" lon="4.69553">
        <ele>363.20001220703</ele>
        <time>2019-07-11T08:21:00Z</time>
      </trkpt>
      <trkpt lat="45.40223" lon="4.69528">
        <ele>366.20001220703</ele>
        <time>2019-07-11T08:21:14Z</time>
      </trkpt>
      <trkpt lat="45.40206" lon="4.6951">
        <ele>369.20001220703</ele>
        <time>2019-07-11T08:21:26Z</time>
      </trkpt>
      <trkpt lat="45.40188" lon="4.69491">
        <ele>372.20001220703</ele>
        <time>2019-07-11T08:21:39Z</time>
      </trkpt>
      <trkpt lat="45.40162" lon="4.69473">
        <ele>375.20001220703</ele>
        <time>2019-07-11T08:21:57Z</time>
      </trkpt>
      <trkpt lat="45.40147" lon="4.6946">
        <ele>378.20001220703</ele>
        <time>2019-07-11T08:22:09Z</time>
      </trkpt>
      <trkpt lat="45.40106" lon="4.69416">
        <ele>380.60000610352</ele>
        <time>2019-07-11T08:22:36Z</time>
      </trkpt>
      <trkpt lat="45.4008" lon="4.6938">
        <ele>382.60000610352</ele>
        <time>2019-07-11T08:22:53Z</time>
      </trkpt>
      <trkpt lat="45.40087" lon="4.69366">
        <ele>383</ele>
        <time>2019-07-11T08:22:59Z</time>
      </trkpt>
      <trkpt lat="45.40101" lon="4.69336">
        <ele>386</ele>
        <time>2019-07-11T08:23:11Z</time>
      </trkpt>
      <trkpt lat="45.40127" lon="4.69255">
        <ele>388.39999389648</ele>
        <time>2019-07-11T08:23:39Z</time>
      </trkpt>
      <trkpt lat="45.4014" lon="4.69202">
        <ele>390</ele>
        <time>2019-07-11T08:23:56Z</time>
      </trkpt>
      <trkpt lat="45.4014" lon="4.69188">
        <ele>391</ele>
        <time>2019-07-11T08:24:00Z</time>
      </trkpt>
      <trkpt lat="45.40137" lon="4.69103">
        <ele>394.20001220703</ele>
        <time>2019-07-11T08:24:27Z</time>
      </trkpt>
      <trkpt lat="45.40187" lon="4.69027">
        <ele>395</ele>
        <time>2019-07-11T08:24:52Z</time>
      </trkpt>
      <trkpt lat="45.40234" lon="4.68952">
        <ele>395.39999389648</ele>
        <time>2019-07-11T08:25:14Z</time>
      </trkpt>
      <trkpt lat="45.4026" lon="4.68913">
        <ele>398.79998779297</ele>
        <time>2019-07-11T08:25:28Z</time>
      </trkpt>
      <trkpt lat="45.40305" lon="4.68794">
        <ele>401.20001220703</ele>
        <time>2019-07-11T08:26:04Z</time>
      </trkpt>
      <trkpt lat="45.40314" lon="4.68745">
        <ele>404.39999389648</ele>
        <time>2019-07-11T08:26:20Z</time>
      </trkpt>
      <trkpt lat="45.40319" lon="4.68715">
        <ele>407.39999389648</ele>
        <time>2019-07-11T08:26:32Z</time>
      </trkpt>
      <trkpt lat="45.40324" lon="4.68677">
        <ele>408.20001220703</ele>
        <time>2019-07-11T08:26:46Z</time>
      </trkpt>
      <trkpt lat="45.40311" lon="4.68663">
        <ele>410.79998779297</ele>
        <time>2019-07-11T08:26:56Z</time>
      </trkpt>
      <trkpt lat="45.40284" lon="4.68654">
        <ele>413.79998779297</ele>
        <time>2019-07-11T08:27:12Z</time>
      </trkpt>
      <trkpt lat="45.40263" lon="4.68634">
        <ele>416.79998779297</ele>
        <time>2019-07-11T08:27:29Z</time>
      </trkpt>
      <trkpt lat="45.40261" lon="4.68608">
        <ele>420</ele>
        <time>2019-07-11T08:27:41Z</time>
      </trkpt>
      <trkpt lat="45.40256" lon="4.68578">
        <ele>422.20001220703</ele>
        <time>2019-07-11T08:27:54Z</time>
      </trkpt>
      <trkpt lat="45.40246" lon="4.6855">
        <ele>425.20001220703</ele>
        <time>2019-07-11T08:28:08Z</time>
      </trkpt>
      <trkpt lat="45.40245" lon="4.68548">
        <ele>425.60000610352</ele>
        <time>2019-07-11T08:28:09Z</time>
      </trkpt>
      <trkpt lat="45.40242" lon="4.68536">
        <ele>426.79998779297</ele>
        <time>2019-07-11T08:28:15Z</time>
      </trkpt>
      <trkpt lat="45.40238" lon="4.68523">
        <ele>428.60000610352</ele>
        <time>2019-07-11T08:28:22Z</time>
      </trkpt>
      <trkpt lat="45.40234" lon="4.68517">
        <ele>430.20001220703</ele>
        <time>2019-07-11T08:28:27Z</time>
      </trkpt>
      <trkpt lat="45.4023" lon="4.68515">
        <ele>430.79998779297</ele>
        <time>2019-07-11T08:28:30Z</time>
      </trkpt>
      <trkpt lat="45.40223" lon="4.68468">
        <ele>432.79998779297</ele>
        <time>2019-07-11T08:28:49Z</time>
      </trkpt>
      <trkpt lat="45.40217" lon="4.6845">
        <ele>435</ele>
        <time>2019-07-11T08:28:58Z</time>
      </trkpt>
      <trkpt lat="45.40207" lon="4.68419">
        <ele>438.20001220703</ele>
        <time>2019-07-11T08:29:12Z</time>
      </trkpt>
      <trkpt lat="45.40199" lon="4.68394">
        <ele>441.20001220703</ele>
        <time>2019-07-11T08:29:23Z</time>
      </trkpt>
      <trkpt lat="45.40181" lon="4.68353">
        <ele>443.60000610352</ele>
        <time>2019-07-11T08:29:42Z</time>
      </trkpt>
      <trkpt lat="45.40177" lon="4.68322">
        <ele>446.60000610352</ele>
        <time>2019-07-11T08:29:55Z</time>
      </trkpt>
      <trkpt lat="45.40166" lon="4.68282">
        <ele>449.79998779297</ele>
        <time>2019-07-11T08:30:13Z</time>
      </trkpt>
      <trkpt lat="45.40158" lon="4.68259">
        <ele>452.79998779297</ele>
        <time>2019-07-11T08:30:25Z</time>
      </trkpt>
      <trkpt lat="45.40158" lon="4.68258">
        <ele>453.39999389648</ele>
        <time>2019-07-11T08:30:26Z</time>
      </trkpt>
      <trkpt lat="45.40149" lon="4.68247">
        <ele>454.60000610352</ele>
        <time>2019-07-11T08:30:34Z</time>
      </trkpt>
      <trkpt lat="45.40137" lon="4.68223">
        <ele>457.60000610352</ele>
        <time>2019-07-11T08:30:48Z</time>
      </trkpt>
      <trkpt lat="45.40129" lon="4.68209">
        <ele>458.39999389648</ele>
        <time>2019-07-11T08:30:56Z</time>
      </trkpt>
      <trkpt lat="45.40126" lon="4.68198">
        <ele>460.20001220703</ele>
        <time>2019-07-11T08:31:02Z</time>
      </trkpt>
      <trkpt lat="45.4012" lon="4.68193">
        <ele>460.60000610352</ele>
        <time>2019-07-11T08:31:06Z</time>
      </trkpt>
      <trkpt lat="45.40106" lon="4.68175">
        <ele>463.60000610352</ele>
        <time>2019-07-11T08:31:18Z</time>
      </trkpt>
      <trkpt lat="45.40101" lon="4.68163">
        <ele>465.20001220703</ele>
        <time>2019-07-11T08:31:26Z</time>
      </trkpt>
      <trkpt lat="45.4009" lon="4.68146">
        <ele>468.20001220703</ele>
        <time>2019-07-11T08:31:38Z</time>
      </trkpt>
      <trkpt lat="45.40089" lon="4.68138">
        <ele>468.60000610352</ele>
        <time>2019-07-11T08:31:43Z</time>
      </trkpt>
      <trkpt lat="45.40086" lon="4.6813">
        <ele>469.79998779297</ele>
        <time>2019-07-11T08:31:48Z</time>
      </trkpt>
      <trkpt lat="45.40082" lon="4.68116">
        <ele>471.20001220703</ele>
        <time>2019-07-11T08:31:57Z</time>
      </trkpt>
      <trkpt lat="45.40081" lon="4.68112">
        <ele>472</ele>
        <time>2019-07-11T08:31:59Z</time>
      </trkpt>
      <trkpt lat="45.40081" lon="4.68109">
        <ele>472.79998779297</ele>
        <time>2019-07-11T08:32:01Z</time>
      </trkpt>
      <trkpt lat="45.40078" lon="4.68096">
        <ele>473.60000610352</ele>
        <time>2019-07-11T08:32:09Z</time>
      </trkpt>
      <trkpt lat="45.40075" lon="4.68093">
        <ele>475</ele>
        <time>2019-07-11T08:32:12Z</time>
      </trkpt>
      <trkpt lat="45.40054" lon="4.6809">
        <ele>475</ele>
        <time>2019-07-11T08:32:22Z</time>
      </trkpt>
      <trkpt lat="45.4001" lon="4.68085">
        <ele>477</ele>
        <time>2019-07-11T08:32:41Z</time>
      </trkpt>
      <trkpt lat="45.39931" lon="4.68073">
        <ele>479</ele>
        <time>2019-07-11T08:33:14Z</time>
      </trkpt>
      <trkpt lat="45.39876" lon="4.68055">
        <ele>481</ele>
        <time>2019-07-11T08:33:37Z</time>
      </trkpt>
      <trkpt lat="45.39831" lon="4.6802">
        <ele>483</ele>
        <time>2019-07-11T08:33:54Z</time>
      </trkpt>
      <trkpt lat="45.39779" lon="4.67992">
        <ele>483</ele>
        <time>2019-07-11T08:34:12Z</time>
      </trkpt>
      <trkpt lat="45.39758" lon="4.67981">
        <ele>483</ele>
        <time>2019-07-11T08:34:17Z</time>
      </trkpt>
      <trkpt lat="45.39738" lon="4.67948">
        <ele>481</ele>
        <time>2019-07-11T08:34:27Z</time>
      </trkpt>
      <trkpt lat="45.3972" lon="4.67894">
        <ele>483.20001220703</ele>
        <time>2019-07-11T08:34:44Z</time>
      </trkpt>
      <trkpt lat="45.39703" lon="4.67855">
        <ele>486</ele>
        <time>2019-07-11T08:34:56Z</time>
      </trkpt>
      <trkpt lat="45.39673" lon="4.678">
        <ele>487.20001220703</ele>
        <time>2019-07-11T08:35:10Z</time>
      </trkpt>
      <trkpt lat="45.39609" lon="4.67712">
        <ele>489.39999389648</ele>
        <time>2019-07-11T08:35:37Z</time>
      </trkpt>
      <trkpt lat="45.39537" lon="4.67597">
        <ele>491.39999389648</ele>
        <time>2019-07-11T08:36:11Z</time>
      </trkpt>
      <trkpt lat="45.39514" lon="4.67526">
        <ele>493.60000610352</ele>
        <time>2019-07-11T08:36:29Z</time>
      </trkpt>
      <trkpt lat="45.39475" lon="4.67425">
        <ele>493.60000610352</ele>
        <time>2019-07-11T08:36:53Z</time>
      </trkpt>
      <trkpt lat="45.39454" lon="4.67382">
        <ele>493.60000610352</ele>
        <time>2019-07-11T08:37:06Z</time>
      </trkpt>
      <trkpt lat="45.39458" lon="4.67375">
        <ele>494.79998779297</ele>
        <time>2019-07-11T08:37:09Z</time>
      </trkpt>
      <trkpt lat="45.39467" lon="4.67362">
        <ele>495.60000610352</ele>
        <time>2019-07-11T08:37:15Z</time>
      </trkpt>
      <trkpt lat="45.39489" lon="4.67349">
        <ele>497.60000610352</ele>
        <time>2019-07-11T08:37:27Z</time>
      </trkpt>
      <trkpt lat="45.39504" lon="4.67338">
        <ele>499.79998779297</ele>
        <time>2019-07-11T08:37:35Z</time>
      </trkpt>
      <trkpt lat="45.3952" lon="4.67323">
        <ele>502.39999389648</ele>
        <time>2019-07-11T08:37:48Z</time>
      </trkpt>
      <trkpt lat="45.39528" lon="4.67308">
        <ele>504</ele>
        <time>2019-07-11T08:37:57Z</time>
      </trkpt>
      <trkpt lat="45.39547" lon="4.67279">
        <ele>506.20001220703</ele>
        <time>2019-07-11T08:38:15Z</time>
      </trkpt>
      <trkpt lat="45.39562" lon="4.67251">
        <ele>509.20001220703</ele>
        <time>2019-07-11T08:38:32Z</time>
      </trkpt>
      <trkpt lat="45.39561" lon="4.67227">
        <ele>512.40002441406</ele>
        <time>2019-07-11T08:38:43Z</time>
      </trkpt>
      <trkpt lat="45.3954" lon="4.672">
        <ele>512.40002441406</ele>
        <time>2019-07-11T08:38:53Z</time>
      </trkpt>
      <trkpt lat="45.39508" lon="4.67161">
        <ele>511.60000610352</ele>
        <time>2019-07-11T08:39:00Z</time>
      </trkpt>
      <trkpt lat="45.39477" lon="4.6715">
        <ele>509.60000610352</ele>
        <time>2019-07-11T08:39:04Z</time>
      </trkpt>
      <trkpt lat="45.39461" lon="4.67149">
        <ele>508.20001220703</ele>
        <time>2019-07-11T08:39:06Z</time>
      </trkpt>
      <trkpt lat="45.39438" lon="4.67169">
        <ele>505</ele>
        <time>2019-07-11T08:39:10Z</time>
      </trkpt>
      <trkpt lat="45.3942" lon="4.67195">
        <ele>503.39999389648</ele>
        <time>2019-07-11T08:39:14Z</time>
      </trkpt>
      <trkpt lat="45.39354" lon="4.67247">
        <ele>501</ele>
        <time>2019-07-11T08:39:25Z</time>
      </trkpt>
      <trkpt lat="45.39319" lon="4.67299">
        <ele>498.39999389648</ele>
        <time>2019-07-11T08:39:31Z</time>
      </trkpt>
      <trkpt lat="45.39311" lon="4.67319">
        <ele>497.60000610352</ele>
        <time>2019-07-11T08:39:33Z</time>
      </trkpt>
      <trkpt lat="45.39292" lon="4.6732">
        <ele>494.39999389648</ele>
        <time>2019-07-11T08:39:38Z</time>
      </trkpt>
      <trkpt lat="45.39253" lon="4.67303">
        <ele>494.39999389648</ele>
        <time>2019-07-11T08:39:51Z</time>
      </trkpt>
      <trkpt lat="45.39193" lon="4.67278">
        <ele>496</ele>
        <time>2019-07-11T08:40:09Z</time>
      </trkpt>
      <trkpt lat="45.39161" lon="4.67265">
        <ele>496.39999389648</ele>
        <time>2019-07-11T08:40:18Z</time>
      </trkpt>
      <trkpt lat="45.39129" lon="4.67238">
        <ele>496.39999389648</ele>
        <time>2019-07-11T08:40:27Z</time>
      </trkpt>
      <trkpt lat="45.39111" lon="4.67225">
        <ele>496</ele>
        <time>2019-07-11T08:40:31Z</time>
      </trkpt>
      <trkpt lat="45.39091" lon="4.67219">
        <ele>494.39999389648</ele>
        <time>2019-07-11T08:40:35Z</time>
      </trkpt>
      <trkpt lat="45.39075" lon="4.6722">
        <ele>494.39999389648</ele>
        <time>2019-07-11T08:40:38Z</time>
      </trkpt>
      <trkpt lat="45.39051" lon="4.67218">
        <ele>492.60000610352</ele>
        <time>2019-07-11T08:40:44Z</time>
      </trkpt>
      <trkpt lat="45.39049" lon="4.67213">
        <ele>492</ele>
        <time>2019-07-11T08:40:45Z</time>
      </trkpt>
      <trkpt lat="45.39017" lon="4.67167">
        <ele>492</ele>
        <time>2019-07-11T08:41:00Z</time>
      </trkpt>
      <trkpt lat="45.38973" lon="4.67153">
        <ele>492</ele>
        <time>2019-07-11T08:41:15Z</time>
      </trkpt>
      <trkpt lat="45.3897" lon="4.67152">
        <ele>492.79998779297</ele>
        <time>2019-07-11T08:41:16Z</time>
      </trkpt>
      <trkpt lat="45.38914" lon="4.67161">
        <ele>494.60000610352</ele>
        <time>2019-07-11T08:41:32Z</time>
      </trkpt>
      <trkpt lat="45.38885" lon="4.67171">
        <ele>497</ele>
        <time>2019-07-11T08:41:45Z</time>
      </trkpt>
      <trkpt lat="45.38857" lon="4.67175">
        <ele>498.39999389648</ele>
        <time>2019-07-11T08:41:58Z</time>
      </trkpt>
      <trkpt lat="45.38818" lon="4.67183">
        <ele>501.79998779297</ele>
        <time>2019-07-11T08:42:17Z</time>
      </trkpt>
      <trkpt lat="45.38791" lon="4.67173">
        <ele>503.39999389648</ele>
        <time>2019-07-11T08:42:30Z</time>
      </trkpt>
      <trkpt lat="45.3875" lon="4.67193">
        <ele>504.60000610352</ele>
        <time>2019-07-11T08:42:44Z</time>
      </trkpt>
      <trkpt lat="45.38707" lon="4.67252">
        <ele>504.60000610352</ele>
        <time>2019-07-11T08:43:01Z</time>
      </trkpt>
      <trkpt lat="45.38716" lon="4.673">
        <ele>504.60000610352</ele>
        <time>2019-07-11T08:43:11Z</time>
      </trkpt>
      <trkpt lat="45.3873" lon="4.67346">
        <ele>504.60000610352</ele>
        <time>2019-07-11T08:43:21Z</time>
      </trkpt>
      <trkpt lat="45.38769" lon="4.67421">
        <ele>502</ele>
        <time>2019-07-11T08:43:32Z</time>
      </trkpt>
      <trkpt lat="45.38791" lon="4.67472">
        <ele>500.39999389648</ele>
        <time>2019-07-11T08:43:39Z</time>
      </trkpt>
      <trkpt lat="45.38804" lon="4.67511">
        <ele>500.39999389648</ele>
        <time>2019-07-11T08:43:45Z</time>
      </trkpt>
      <trkpt lat="45.38821" lon="4.67559">
        <ele>500</ele>
        <time>2019-07-11T08:43:52Z</time>
      </trkpt>
      <trkpt lat="45.38844" lon="4.67623">
        <ele>497</ele>
        <time>2019-07-11T08:43:59Z</time>
      </trkpt>
      <trkpt lat="45.3885" lon="4.67676">
        <ele>495.79998779297</ele>
        <time>2019-07-11T08:44:04Z</time>
      </trkpt>
      <trkpt lat="45.38843" lon="4.67704">
        <ele>494</ele>
        <time>2019-07-11T08:44:08Z</time>
      </trkpt>
      <trkpt lat="45.38834" lon="4.67776">
        <ele>493</ele>
        <time>2019-07-11T08:44:17Z</time>
      </trkpt>
      <trkpt lat="45.38832" lon="4.67794">
        <ele>492.20001220703</ele>
        <time>2019-07-11T08:44:19Z</time>
      </trkpt>
      <trkpt lat="45.38816" lon="4.67837">
        <ele>491.60000610352</ele>
        <time>2019-07-11T08:44:27Z</time>
      </trkpt>
      <trkpt lat="45.3881" lon="4.67861">
        <ele>490.20001220703</ele>
        <time>2019-07-11T08:44:30Z</time>
      </trkpt>
      <trkpt lat="45.38807" lon="4.6787">
        <ele>489.39999389648</ele>
        <time>2019-07-11T08:44:39Z</time>
      </trkpt>
      <trkpt lat="45.388" lon="4.67892">
        <ele>488.39999389648</ele>
        <time>2019-07-11T08:44:56Z</time>
      </trkpt>
      <trkpt lat="45.38783" lon="4.67923">
        <ele>485.20001220703</ele>
        <time>2019-07-11T08:45:04Z</time>
      </trkpt>
      <trkpt lat="45.38774" lon="4.67935">
        <ele>483.20001220703</ele>
        <time>2019-07-11T08:45:08Z</time>
      </trkpt>
      <trkpt lat="45.38766" lon="4.67946">
        <ele>481.20001220703</ele>
        <time>2019-07-11T08:45:11Z</time>
      </trkpt>
      <trkpt lat="45.38747" lon="4.67958">
        <ele>479.20001220703</ele>
        <time>2019-07-11T08:45:19Z</time>
      </trkpt>
      <trkpt lat="45.38741" lon="4.67969">
        <ele>478</ele>
        <time>2019-07-11T08:45:23Z</time>
      </trkpt>
      <trkpt lat="45.38735" lon="4.67986">
        <ele>475.79998779297</ele>
        <time>2019-07-11T08:45:28Z</time>
      </trkpt>
      <trkpt lat="45.38709" lon="4.67983">
        <ele>473.60000610352</ele>
        <time>2019-07-11T08:45:37Z</time>
      </trkpt>
      <trkpt lat="45.38675" lon="4.6799">
        <ele>471.79998779297</ele>
        <time>2019-07-11T08:45:45Z</time>
      </trkpt>
      <trkpt lat="45.38669" lon="4.67988">
        <ele>471.39999389648</ele>
        <time>2019-07-11T08:45:46Z</time>
      </trkpt>
      <trkpt lat="45.38659" lon="4.67983">
        <ele>471</ele>
        <time>2019-07-11T08:45:48Z</time>
      </trkpt>
      <trkpt lat="45.38632" lon="4.67964">
        <ele>469.20001220703</ele>
        <time>2019-07-11T08:45:54Z</time>
      </trkpt>
      <trkpt lat="45.38627" lon="4.67962">
        <ele>469.20001220703</ele>
        <time>2019-07-11T08:45:55Z</time>
      </trkpt>
      <trkpt lat="45.3861" lon="4.67954">
        <ele>469.20001220703</ele>
        <time>2019-07-11T08:45:59Z</time>
      </trkpt>
      <trkpt lat="45.3859" lon="4.6795">
        <ele>469.20001220703</ele>
        <time>2019-07-11T08:46:03Z</time>
      </trkpt>
      <trkpt lat="45.38576" lon="4.67939">
        <ele>469.20001220703</ele>
        <time>2019-07-11T08:46:08Z</time>
      </trkpt>
      <trkpt lat="45.38531" lon="4.67901">
        <ele>471.20001220703</ele>
        <time>2019-07-11T08:46:25Z</time>
      </trkpt>
      <trkpt lat="45.38525" lon="4.67895">
        <ele>471.60000610352</ele>
        <time>2019-07-11T08:46:28Z</time>
      </trkpt>
      <trkpt lat="45.3849" lon="4.67887">
        <ele>473.20001220703</ele>
        <time>2019-07-11T08:46:39Z</time>
      </trkpt>
      <trkpt lat="45.38476" lon="4.67882">
        <ele>473.20001220703</ele>
        <time>2019-07-11T08:46:43Z</time>
      </trkpt>
      <trkpt lat="45.38461" lon="4.67868">
        <ele>473.20001220703</ele>
        <time>2019-07-11T08:46:48Z</time>
      </trkpt>
      <trkpt lat="45.38437" lon="4.67845">
        <ele>475.39999389648</ele>
        <time>2019-07-11T08:47:03Z</time>
      </trkpt>
      <trkpt lat="45.38418" lon="4.67829">
        <ele>476.20001220703</ele>
        <time>2019-07-11T08:47:12Z</time>
      </trkpt>
      <trkpt lat="45.38399" lon="4.67808">
        <ele>477.39999389648</ele>
        <time>2019-07-11T08:47:21Z</time>
      </trkpt>
      <trkpt lat="45.38375" lon="4.67774">
        <ele>479.39999389648</ele>
        <time>2019-07-11T08:47:33Z</time>
      </trkpt>
      <trkpt lat="45.38315" lon="4.67749">
        <ele>479.39999389648</ele>
        <time>2019-07-11T08:47:49Z</time>
      </trkpt>
      <trkpt lat="45.38278" lon="4.67741">
        <ele>479.39999389648</ele>
        <time>2019-07-11T08:47:56Z</time>
      </trkpt>
      <trkpt lat="45.38258" lon="4.67736">
        <ele>479.39999389648</ele>
        <time>2019-07-11T08:48:00Z</time>
      </trkpt>
      <trkpt lat="45.38238" lon="4.67718">
        <ele>479.39999389648</ele>
        <time>2019-07-11T08:48:05Z</time>
      </trkpt>
      <trkpt lat="45.38235" lon="4.67714">
        <ele>479.39999389648</ele>
        <time>2019-07-11T08:48:06Z</time>
      </trkpt>
      <trkpt lat="45.3819" lon="4.67719">
        <ele>479.39999389648</ele>
        <time>2019-07-11T08:48:20Z</time>
      </trkpt>
      <trkpt lat="45.38179" lon="4.67732">
        <ele>479</ele>
        <time>2019-07-11T08:48:22Z</time>
      </trkpt>
      <trkpt lat="45.38172" lon="4.67739">
        <ele>478.60000610352</ele>
        <time>2019-07-11T08:48:23Z</time>
      </trkpt>
      <trkpt lat="45.3815" lon="4.67751">
        <ele>476.20001220703</ele>
        <time>2019-07-11T08:48:26Z</time>
      </trkpt>
      <trkpt lat="45.38138" lon="4.67785">
        <ele>473.20001220703</ele>
        <time>2019-07-11T08:48:29Z</time>
      </trkpt>
      <trkpt lat="45.38132" lon="4.67797">
        <ele>472.20001220703</ele>
        <time>2019-07-11T08:48:30Z</time>
      </trkpt>
      <trkpt lat="45.38126" lon="4.67807">
        <ele>471.20001220703</ele>
        <time>2019-07-11T08:48:31Z</time>
      </trkpt>
      <trkpt lat="45.38102" lon="4.6783">
        <ele>467.60000610352</ele>
        <time>2019-07-11T08:48:35Z</time>
      </trkpt>
      <trkpt lat="45.38092" lon="4.67825">
        <ele>466</ele>
        <time>2019-07-11T08:48:37Z</time>
      </trkpt>
      <trkpt lat="45.38087" lon="4.67821">
        <ele>465.20001220703</ele>
        <time>2019-07-11T08:48:38Z</time>
      </trkpt>
      <trkpt lat="45.38074" lon="4.67823">
        <ele>462.79998779297</ele>
        <time>2019-07-11T08:48:41Z</time>
      </trkpt>
      <trkpt lat="45.38067" lon="4.67825">
        <ele>462.79998779297</ele>
        <time>2019-07-11T08:48:43Z</time>
      </trkpt>
      <trkpt lat="45.3804" lon="4.67834">
        <ele>464</ele>
        <time>2019-07-11T08:48:55Z</time>
      </trkpt>
      <trkpt lat="45.38012" lon="4.6785">
        <ele>466.60000610352</ele>
        <time>2019-07-11T08:49:05Z</time>
      </trkpt>
      <trkpt lat="45.37986" lon="4.67863">
        <ele>467</ele>
        <time>2019-07-11T08:49:12Z</time>
      </trkpt>
      <trkpt lat="45.3796" lon="4.67868">
        <ele>467</ele>
        <time>2019-07-11T08:49:17Z</time>
      </trkpt>
      <trkpt lat="45.3794" lon="4.67873">
        <ele>467</ele>
        <time>2019-07-11T08:49:21Z</time>
      </trkpt>
      <trkpt lat="45.37899" lon="4.6786">
        <ele>467</ele>
        <time>2019-07-11T08:49:33Z</time>
      </trkpt>
      <trkpt lat="45.3784" lon="4.67841">
        <ele>467</ele>
        <time>2019-07-11T08:49:50Z</time>
      </trkpt>
      <trkpt lat="45.37778" lon="4.67837">
        <ele>467</ele>
        <time>2019-07-11T08:50:04Z</time>
      </trkpt>
      <trkpt lat="45.37773" lon="4.67836">
        <ele>467</ele>
        <time>2019-07-11T08:50:05Z</time>
      </trkpt>
      <trkpt lat="45.37724" lon="4.67834">
        <ele>467</ele>
        <time>2019-07-11T08:50:17Z</time>
      </trkpt>
      <trkpt lat="45.37681" lon="4.67821">
        <ele>467</ele>
        <time>2019-07-11T08:50:27Z</time>
      </trkpt>
      <trkpt lat="45.37631" lon="4.67806">
        <ele>467</ele>
        <time>2019-07-11T08:50:39Z</time>
      </trkpt>
      <trkpt lat="45.37614" lon="4.67788">
        <ele>467</ele>
        <time>2019-07-11T08:50:44Z</time>
      </trkpt>
      <trkpt lat="45.37594" lon="4.67765">
        <ele>467</ele>
        <time>2019-07-11T08:50:50Z</time>
      </trkpt>
      <trkpt lat="45.3754" lon="4.67707">
        <ele>467</ele>
        <time>2019-07-11T08:51:05Z</time>
      </trkpt>
      <trkpt lat="45.37498" lon="4.67715">
        <ele>467</ele>
        <time>2019-07-11T08:51:12Z</time>
      </trkpt>
      <trkpt lat="45.37479" lon="4.67712">
        <ele>466.20001220703</ele>
        <time>2019-07-11T08:51:15Z</time>
      </trkpt>
      <trkpt lat="45.37439" lon="4.67714">
        <ele>463.79998779297</ele>
        <time>2019-07-11T08:51:21Z</time>
      </trkpt>
      <trkpt lat="45.37394" lon="4.67722">
        <ele>462.79998779297</ele>
        <time>2019-07-11T08:51:28Z</time>
      </trkpt>
      <trkpt lat="45.37367" lon="4.67729">
        <ele>460.60000610352</ele>
        <time>2019-07-11T08:51:32Z</time>
      </trkpt>
      <trkpt lat="45.37356" lon="4.67752">
        <ele>458.60000610352</ele>
        <time>2019-07-11T08:51:37Z</time>
      </trkpt>
      <trkpt lat="45.37361" lon="4.67768">
        <ele>457.60000610352</ele>
        <time>2019-07-11T08:51:39Z</time>
      </trkpt>
      <trkpt lat="45.37373" lon="4.67821">
        <ele>454.60000610352</ele>
        <time>2019-07-11T08:51:44Z</time>
      </trkpt>
      <trkpt lat="45.37386" lon="4.67874">
        <ele>451.39999389648</ele>
        <time>2019-07-11T08:51:48Z</time>
      </trkpt>
      <trkpt lat="45.37399" lon="4.67919">
        <ele>447.39999389648</ele>
        <time>2019-07-11T08:51:51Z</time>
      </trkpt>
      <trkpt lat="45.37409" lon="4.67962">
        <ele>443.20001220703</ele>
        <time>2019-07-11T08:51:54Z</time>
      </trkpt>
      <trkpt lat="45.37412" lon="4.6799">
        <ele>439.20001220703</ele>
        <time>2019-07-11T08:51:56Z</time>
      </trkpt>
      <trkpt lat="45.37413" lon="4.68025">
        <ele>435.39999389648</ele>
        <time>2019-07-11T08:51:59Z</time>
      </trkpt>
      <trkpt lat="45.37413" lon="4.68043">
        <ele>432.20001220703</ele>
        <time>2019-07-11T08:52:02Z</time>
      </trkpt>
      <trkpt lat="45.37405" lon="4.68045">
        <ele>428.60000610352</ele>
        <time>2019-07-11T08:52:06Z</time>
      </trkpt>
      <trkpt lat="45.374" lon="4.68043">
        <ele>428.60000610352</ele>
        <time>2019-07-11T08:52:08Z</time>
      </trkpt>
      <trkpt lat="45.37367" lon="4.68016">
        <ele>428.60000610352</ele>
        <time>2019-07-11T08:52:25Z</time>
      </trkpt>
      <trkpt lat="45.37337" lon="4.67995">
        <ele>431</ele>
        <time>2019-07-11T08:52:41Z</time>
      </trkpt>
      <trkpt lat="45.37306" lon="4.67959">
        <ele>434</ele>
        <time>2019-07-11T08:52:58Z</time>
      </trkpt>
      <trkpt lat="45.37275" lon="4.67898">
        <ele>436.79998779297</ele>
        <time>2019-07-11T08:53:25Z</time>
      </trkpt>
      <trkpt lat="45.37252" lon="4.67861">
        <ele>439.39999389648</ele>
        <time>2019-07-11T08:53:43Z</time>
      </trkpt>
      <trkpt lat="45.3723" lon="4.67844">
        <ele>442.60000610352</ele>
        <time>2019-07-11T08:53:58Z</time>
      </trkpt>
      <trkpt lat="45.37219" lon="4.67839">
        <ele>444.39999389648</ele>
        <time>2019-07-11T08:54:05Z</time>
      </trkpt>
      <trkpt lat="45.37206" lon="4.67826">
        <ele>447</ele>
        <time>2019-07-11T08:54:16Z</time>
      </trkpt>
      <trkpt lat="45.37193" lon="4.67817">
        <ele>450</ele>
        <time>2019-07-11T08:54:27Z</time>
      </trkpt>
      <trkpt lat="45.37186" lon="4.67812">
        <ele>450.79998779297</ele>
        <time>2019-07-11T08:54:33Z</time>
      </trkpt>
      <trkpt lat="45.37173" lon="4.67804">
        <ele>453.79998779297</ele>
        <time>2019-07-11T08:54:45Z</time>
      </trkpt>
      <trkpt lat="45.37163" lon="4.67804">
        <ele>455.79998779297</ele>
        <time>2019-07-11T08:54:54Z</time>
      </trkpt>
      <trkpt lat="45.37134" lon="4.67785">
        <ele>458.20001220703</ele>
        <time>2019-07-11T08:55:18Z</time>
      </trkpt>
      <trkpt lat="45.37113" lon="4.67779">
        <ele>461.20001220703</ele>
        <time>2019-07-11T08:55:32Z</time>
      </trkpt>
      <trkpt lat="45.37098" lon="4.67775">
        <ele>464.60000610352</ele>
        <time>2019-07-11T08:55:42Z</time>
      </trkpt>
      <trkpt lat="45.37088" lon="4.67771">
        <ele>466</ele>
        <time>2019-07-11T08:55:49Z</time>
      </trkpt>
      <trkpt lat="45.37086" lon="4.67767">
        <ele>466.79998779297</ele>
        <time>2019-07-11T08:55:53Z</time>
      </trkpt>
      <trkpt lat="45.37063" lon="4.67759">
        <ele>468.79998779297</ele>
        <time>2019-07-11T08:56:06Z</time>
      </trkpt>
      <trkpt lat="45.3703" lon="4.67745">
        <ele>471.79998779297</ele>
        <time>2019-07-11T08:56:24Z</time>
      </trkpt>
      <trkpt lat="45.3699" lon="4.67723">
        <ele>474.39999389648</ele>
        <time>2019-07-11T08:56:42Z</time>
      </trkpt>
      <trkpt lat="45.36982" lon="4.67711">
        <ele>475.20001220703</ele>
        <time>2019-07-11T08:56:51Z</time>
      </trkpt>
      <trkpt lat="45.36978" lon="4.67702">
        <ele>475.20001220703</ele>
        <time>2019-07-11T08:57:07Z</time>
      </trkpt>
      <trkpt lat="45.36971" lon="4.67693">
        <ele>477.60000610352</ele>
        <time>2019-07-11T08:57:34Z</time>
      </trkpt>
      <trkpt lat="45.36951" lon="4.67647">
        <ele>477.20001220703</ele>
        <time>2019-07-11T08:57:42Z</time>
      </trkpt>
      <trkpt lat="45.36926" lon="4.67596">
        <ele>474</ele>
        <time>2019-07-11T08:57:48Z</time>
      </trkpt>
      <trkpt lat="45.36912" lon="4.6757">
        <ele>472.60000610352</ele>
        <time>2019-07-11T08:57:51Z</time>
      </trkpt>
      <trkpt lat="45.36898" lon="4.67504">
        <ele>471</ele>
        <time>2019-07-11T08:57:58Z</time>
      </trkpt>
      <trkpt lat="45.36896" lon="4.67496">
        <ele>471</ele>
        <time>2019-07-11T08:57:59Z</time>
      </trkpt>
      <trkpt lat="45.36886" lon="4.6746">
        <ele>471</ele>
        <time>2019-07-11T08:58:05Z</time>
      </trkpt>
      <trkpt lat="45.36852" lon="4.67472">
        <ele>470.39999389648</ele>
        <time>2019-07-11T08:58:11Z</time>
      </trkpt>
      <trkpt lat="45.36819" lon="4.67484">
        <ele>467.60000610352</ele>
        <time>2019-07-11T08:58:15Z</time>
      </trkpt>
      <trkpt lat="45.36785" lon="4.675">
        <ele>464</ele>
        <time>2019-07-11T08:58:19Z</time>
      </trkpt>
      <trkpt lat="45.36747" lon="4.67518">
        <ele>461</ele>
        <time>2019-07-11T08:58:23Z</time>
      </trkpt>
      <trkpt lat="45.36715" lon="4.67548">
        <ele>458</ele>
        <time>2019-07-11T08:58:27Z</time>
      </trkpt>
      <trkpt lat="45.3671" lon="4.67555">
        <ele>457.39999389648</ele>
        <time>2019-07-11T08:58:28Z</time>
      </trkpt>
      <trkpt lat="45.36688" lon="4.67555">
        <ele>454.39999389648</ele>
        <time>2019-07-11T08:58:32Z</time>
      </trkpt>
      <trkpt lat="45.36684" lon="4.67551">
        <ele>453.79998779297</ele>
        <time>2019-07-11T08:58:33Z</time>
      </trkpt>
      <trkpt lat="45.36663" lon="4.67528">
        <ele>451.20001220703</ele>
        <time>2019-07-11T08:58:37Z</time>
      </trkpt>
      <trkpt lat="45.36625" lon="4.67523">
        <ele>449.60000610352</ele>
        <time>2019-07-11T08:58:43Z</time>
      </trkpt>
      <trkpt lat="45.36605" lon="4.67528">
        <ele>448.39999389648</ele>
        <time>2019-07-11T08:58:46Z</time>
      </trkpt>
      <trkpt lat="45.36586" lon="4.67526">
        <ele>447.39999389648</ele>
        <time>2019-07-11T08:58:49Z</time>
      </trkpt>
      <trkpt lat="45.36539" lon="4.67534">
        <ele>445.60000610352</ele>
        <time>2019-07-11T08:58:57Z</time>
      </trkpt>
      <trkpt lat="45.36533" lon="4.67533">
        <ele>445.20001220703</ele>
        <time>2019-07-11T08:58:58Z</time>
      </trkpt>
      <trkpt lat="45.36499" lon="4.6754">
        <ele>444.79998779297</ele>
        <time>2019-07-11T08:59:04Z</time>
      </trkpt>
      <trkpt lat="45.36459" lon="4.67549">
        <ele>443</ele>
        <time>2019-07-11T08:59:11Z</time>
      </trkpt>
      <trkpt lat="45.36432" lon="4.67567">
        <ele>442.20001220703</ele>
        <time>2019-07-11T08:59:16Z</time>
      </trkpt>
      <trkpt lat="45.36384" lon="4.67604">
        <ele>439.20001220703</ele>
        <time>2019-07-11T08:59:25Z</time>
      </trkpt>
      <trkpt lat="45.36337" lon="4.67641">
        <ele>438.79998779297</ele>
        <time>2019-07-11T08:59:35Z</time>
      </trkpt>
      <trkpt lat="45.36302" lon="4.67628">
        <ele>438.79998779297</ele>
        <time>2019-07-11T08:59:44Z</time>
      </trkpt>
      <trkpt lat="45.36246" lon="4.67577">
        <ele>438.79998779297</ele>
        <time>2019-07-11T09:00:04Z</time>
      </trkpt>
      <trkpt lat="45.36208" lon="4.6756">
        <ele>439.60000610352</ele>
        <time>2019-07-11T09:00:14Z</time>
      </trkpt>
      <trkpt lat="45.36157" lon="4.67549">
        <ele>440.79998779297</ele>
        <time>2019-07-11T09:00:26Z</time>
      </trkpt>
      <trkpt lat="45.36048" lon="4.67537">
        <ele>440.79998779297</ele>
        <time>2019-07-11T09:00:50Z</time>
      </trkpt>
      <trkpt lat="45.36003" lon="4.67504">
        <ele>440.79998779297</ele>
        <time>2019-07-11T09:01:01Z</time>
      </trkpt>
      <trkpt lat="45.35981" lon="4.67481">
        <ele>440.79998779297</ele>
        <time>2019-07-11T09:01:07Z</time>
      </trkpt>
      <trkpt lat="45.35918" lon="4.67402">
        <ele>443.79998779297</ele>
        <time>2019-07-11T09:01:28Z</time>
      </trkpt>
      <trkpt lat="45.35889" lon="4.67384">
        <ele>446.39999389648</ele>
        <time>2019-07-11T09:01:41Z</time>
      </trkpt>
      <trkpt lat="45.35864" lon="4.67406">
        <ele>447.20001220703</ele>
        <time>2019-07-11T09:01:50Z</time>
      </trkpt>
      <trkpt lat="45.35843" lon="4.67445">
        <ele>446.79998779297</ele>
        <time>2019-07-11T09:01:56Z</time>
      </trkpt>
      <trkpt lat="45.35827" lon="4.67511">
        <ele>443.60000610352</ele>
        <time>2019-07-11T09:02:04Z</time>
      </trkpt>
      <trkpt lat="45.35824" lon="4.67526">
        <ele>442.79998779297</ele>
        <time>2019-07-11T09:02:06Z</time>
      </trkpt>
      <trkpt lat="45.35818" lon="4.67561">
        <ele>441.60000610352</ele>
        <time>2019-07-11T09:02:11Z</time>
      </trkpt>
      <trkpt lat="45.35815" lon="4.67573">
        <ele>440.60000610352</ele>
        <time>2019-07-11T09:02:13Z</time>
      </trkpt>
      <trkpt lat="45.35796" lon="4.67624">
        <ele>437.60000610352</ele>
        <time>2019-07-11T09:02:20Z</time>
      </trkpt>
      <trkpt lat="45.35782" lon="4.67668">
        <ele>434.20001220703</ele>
        <time>2019-07-11T09:02:27Z</time>
      </trkpt>
      <trkpt lat="45.35778" lon="4.67674">
        <ele>432.20001220703</ele>
        <time>2019-07-11T09:02:31Z</time>
      </trkpt>
      <trkpt lat="45.35773" lon="4.67713">
        <ele>432.20001220703</ele>
        <time>2019-07-11T09:02:40Z</time>
      </trkpt>
      <trkpt lat="45.35755" lon="4.6778">
        <ele>429.20001220703</ele>
        <time>2019-07-11T09:02:48Z</time>
      </trkpt>
      <trkpt lat="45.35731" lon="4.67851">
        <ele>427.60000610352</ele>
        <time>2019-07-11T09:02:57Z</time>
      </trkpt>
      <trkpt lat="45.35703" lon="4.67908">
        <ele>426</ele>
        <time>2019-07-11T09:03:05Z</time>
      </trkpt>
      <trkpt lat="45.35679" lon="4.68007">
        <ele>422.79998779297</ele>
        <time>2019-07-11T09:03:15Z</time>
      </trkpt>
      <trkpt lat="45.3566" lon="4.68078">
        <ele>419.60000610352</ele>
        <time>2019-07-11T09:03:21Z</time>
      </trkpt>
      <trkpt lat="45.35641" lon="4.68135">
        <ele>416.39999389648</ele>
        <time>2019-07-11T09:03:26Z</time>
      </trkpt>
      <trkpt lat="45.3562" lon="4.68191">
        <ele>413.20001220703</ele>
        <time>2019-07-11T09:03:31Z</time>
      </trkpt>
      <trkpt lat="45.35612" lon="4.68214">
        <ele>412.20001220703</ele>
        <time>2019-07-11T09:03:33Z</time>
      </trkpt>
      <trkpt lat="45.35597" lon="4.68253">
        <ele>410.39999389648</ele>
        <time>2019-07-11T09:03:37Z</time>
      </trkpt>
      <trkpt lat="45.35593" lon="4.68282">
        <ele>410</ele>
        <time>2019-07-11T09:03:42Z</time>
      </trkpt>
      <trkpt lat="45.35589" lon="4.68324">
        <ele>408.20001220703</ele>
        <time>2019-07-11T09:03:47Z</time>
      </trkpt>
      <trkpt lat="45.35581" lon="4.6836">
        <ele>407.79998779297</ele>
        <time>2019-07-11T09:03:51Z</time>
      </trkpt>
      <trkpt lat="45.35564" lon="4.68439">
        <ele>405.60000610352</ele>
        <time>2019-07-11T09:04:00Z</time>
      </trkpt>
      <trkpt lat="45.35564" lon="4.68502">
        <ele>404.39999389648</ele>
        <time>2019-07-11T09:04:07Z</time>
      </trkpt>
      <trkpt lat="45.35565" lon="4.6851">
        <ele>404</ele>
        <time>2019-07-11T09:04:08Z</time>
      </trkpt>
      <trkpt lat="45.35567" lon="4.68576">
        <ele>403.60000610352</ele>
        <time>2019-07-11T09:04:15Z</time>
      </trkpt>
      <trkpt lat="45.35546" lon="4.68656">
        <ele>403.60000610352</ele>
        <time>2019-07-11T09:04:24Z</time>
      </trkpt>
      <trkpt lat="45.35515" lon="4.68775">
        <ele>401.39999389648</ele>
        <time>2019-07-11T09:04:38Z</time>
      </trkpt>
      <trkpt lat="45.35496" lon="4.68879">
        <ele>401.39999389648</ele>
        <time>2019-07-11T09:04:51Z</time>
      </trkpt>
      <trkpt lat="45.35461" lon="4.68923">
        <ele>401.39999389648</ele>
        <time>2019-07-11T09:05:01Z</time>
      </trkpt>
      <trkpt lat="45.3543" lon="4.68957">
        <ele>402.39999389648</ele>
        <time>2019-07-11T09:05:12Z</time>
      </trkpt>
      <trkpt lat="45.35411" lon="4.68987">
        <ele>405.39999389648</ele>
        <time>2019-07-11T09:05:22Z</time>
      </trkpt>
      <trkpt lat="45.35351" lon="4.69082">
        <ele>408</ele>
        <time>2019-07-11T09:05:49Z</time>
      </trkpt>
      <trkpt lat="45.35342" lon="4.69112">
        <ele>408</ele>
        <time>2019-07-11T09:05:55Z</time>
      </trkpt>
      <trkpt lat="45.35336" lon="4.69166">
        <ele>408</ele>
        <time>2019-07-11T09:06:03Z</time>
      </trkpt>
      <trkpt lat="45.35298" lon="4.69288">
        <ele>408</ele>
        <time>2019-07-11T09:06:22Z</time>
      </trkpt>
      <trkpt lat="45.35276" lon="4.69336">
        <ele>408</ele>
        <time>2019-07-11T09:06:30Z</time>
      </trkpt>
      <trkpt lat="45.35209" lon="4.69479">
        <ele>410</ele>
        <time>2019-07-11T09:06:55Z</time>
      </trkpt>
      <trkpt lat="45.35196" lon="4.6951">
        <ele>410</ele>
        <time>2019-07-11T09:07:00Z</time>
      </trkpt>
      <trkpt lat="45.35156" lon="4.69581">
        <ele>409.20001220703</ele>
        <time>2019-07-11T09:07:11Z</time>
      </trkpt>
      <trkpt lat="45.35149" lon="4.69596">
        <ele>407.60000610352</ele>
        <time>2019-07-11T09:07:13Z</time>
      </trkpt>
      <trkpt lat="45.35149" lon="4.69601">
        <ele>407.60000610352</ele>
        <time>2019-07-11T09:07:14Z</time>
      </trkpt>
      <trkpt lat="45.35159" lon="4.6961">
        <ele>406.20001220703</ele>
        <time>2019-07-11T09:07:17Z</time>
      </trkpt>
      <trkpt lat="45.35164" lon="4.69612">
        <ele>405.79998779297</ele>
        <time>2019-07-11T09:07:18Z</time>
      </trkpt>
      <trkpt lat="45.35174" lon="4.69618">
        <ele>404.79998779297</ele>
        <time>2019-07-11T09:07:20Z</time>
      </trkpt>
      <trkpt lat="45.35197" lon="4.69622">
        <ele>402.79998779297</ele>
        <time>2019-07-11T09:07:25Z</time>
      </trkpt>
      <trkpt lat="45.35204" lon="4.6962">
        <ele>402.20001220703</ele>
        <time>2019-07-11T09:07:26Z</time>
      </trkpt>
      <trkpt lat="45.35235" lon="4.69646">
        <ele>398.79998779297</ele>
        <time>2019-07-11T09:07:31Z</time>
      </trkpt>
      <trkpt lat="45.35256" lon="4.69684">
        <ele>395.60000610352</ele>
        <time>2019-07-11T09:07:35Z</time>
      </trkpt>
      <trkpt lat="45.35268" lon="4.69703">
        <ele>394.39999389648</ele>
        <time>2019-07-11T09:07:37Z</time>
      </trkpt>
      <trkpt lat="45.35267" lon="4.69773">
        <ele>392</ele>
        <time>2019-07-11T09:07:44Z</time>
      </trkpt>
      <trkpt lat="45.35244" lon="4.69808">
        <ele>390.79998779297</ele>
        <time>2019-07-11T09:07:48Z</time>
      </trkpt>
      <trkpt lat="45.35236" lon="4.69817">
        <ele>390.20001220703</ele>
        <time>2019-07-11T09:07:49Z</time>
      </trkpt>
      <trkpt lat="45.35216" lon="4.69851">
        <ele>387</ele>
        <time>2019-07-11T09:07:52Z</time>
      </trkpt>
      <trkpt lat="45.352" lon="4.69883">
        <ele>383</ele>
        <time>2019-07-11T09:07:55Z</time>
      </trkpt>
      <trkpt lat="45.35186" lon="4.69915">
        <ele>379.60000610352</ele>
        <time>2019-07-11T09:07:58Z</time>
      </trkpt>
      <trkpt lat="45.35171" lon="4.69947">
        <ele>376.60000610352</ele>
        <time>2019-07-11T09:08:01Z</time>
      </trkpt>
      <trkpt lat="45.35153" lon="4.6998">
        <ele>372.60000610352</ele>
        <time>2019-07-11T09:08:04Z</time>
      </trkpt>
      <trkpt lat="45.35143" lon="4.70003">
        <ele>370.79998779297</ele>
        <time>2019-07-11T09:08:06Z</time>
      </trkpt>
      <trkpt lat="45.35128" lon="4.70054">
        <ele>367.20001220703</ele>
        <time>2019-07-11T09:08:10Z</time>
      </trkpt>
      <trkpt lat="45.35124" lon="4.70077">
        <ele>365.20001220703</ele>
        <time>2019-07-11T09:08:12Z</time>
      </trkpt>
      <trkpt lat="45.35114" lon="4.701">
        <ele>362</ele>
        <time>2019-07-11T09:08:15Z</time>
      </trkpt>
      <trkpt lat="45.35102" lon="4.70109">
        <ele>360.20001220703</ele>
        <time>2019-07-11T09:08:17Z</time>
      </trkpt>
      <trkpt lat="45.35097" lon="4.70113">
        <ele>359.20001220703</ele>
        <time>2019-07-11T09:08:18Z</time>
      </trkpt>
      <trkpt lat="45.3507" lon="4.70147">
        <ele>356</ele>
        <time>2019-07-11T09:08:23Z</time>
      </trkpt>
      <trkpt lat="45.35046" lon="4.7018">
        <ele>352.20001220703</ele>
        <time>2019-07-11T09:08:28Z</time>
      </trkpt>
      <trkpt lat="45.35037" lon="4.70196">
        <ele>350.39999389648</ele>
        <time>2019-07-11T09:08:30Z</time>
      </trkpt>
      <trkpt lat="45.35025" lon="4.70236">
        <ele>346.79998779297</ele>
        <time>2019-07-11T09:08:34Z</time>
      </trkpt>
      <trkpt lat="45.35022" lon="4.70247">
        <ele>346.20001220703</ele>
        <time>2019-07-11T09:08:35Z</time>
      </trkpt>
      <trkpt lat="45.35024" lon="4.70286">
        <ele>343.39999389648</ele>
        <time>2019-07-11T09:08:39Z</time>
      </trkpt>
      <trkpt lat="45.35027" lon="4.70294">
        <ele>342.60000610352</ele>
        <time>2019-07-11T09:08:40Z</time>
      </trkpt>
      <trkpt lat="45.35021" lon="4.70314">
        <ele>339.20001220703</ele>
        <time>2019-07-11T09:08:46Z</time>
      </trkpt>
      <trkpt lat="45.35004" lon="4.70293">
        <ele>337.60000610352</ele>
        <time>2019-07-11T09:08:52Z</time>
      </trkpt>
      <trkpt lat="45.34997" lon="4.70281">
        <ele>336.79998779297</ele>
        <time>2019-07-11T09:08:54Z</time>
      </trkpt>
      <trkpt lat="45.34985" lon="4.70293">
        <ele>334.39999389648</ele>
        <time>2019-07-11T09:08:59Z</time>
      </trkpt>
      <trkpt lat="45.34987" lon="4.70337">
        <ele>331.39999389648</ele>
        <time>2019-07-11T09:09:04Z</time>
      </trkpt>
      <trkpt lat="45.34985" lon="4.70348">
        <ele>330.60000610352</ele>
        <time>2019-07-11T09:09:05Z</time>
      </trkpt>
      <trkpt lat="45.34983" lon="4.70367">
        <ele>329.20001220703</ele>
        <time>2019-07-11T09:09:07Z</time>
      </trkpt>
      <trkpt lat="45.34984" lon="4.70394">
        <ele>327.60000610352</ele>
        <time>2019-07-11T09:09:10Z</time>
      </trkpt>
      <trkpt lat="45.34984" lon="4.70402">
        <ele>327.60000610352</ele>
        <time>2019-07-11T09:09:11Z</time>
      </trkpt>
      <trkpt lat="45.34988" lon="4.7045">
        <ele>330.20001220703</ele>
        <time>2019-07-11T09:09:23Z</time>
      </trkpt>
      <trkpt lat="45.34989" lon="4.70478">
        <ele>333.39999389648</ele>
        <time>2019-07-11T09:09:34Z</time>
      </trkpt>
      <trkpt lat="45.3498" lon="4.70476">
        <ele>335.20001220703</ele>
        <time>2019-07-11T09:09:41Z</time>
      </trkpt>
      <trkpt lat="45.3497" lon="4.70456">
        <ele>338</ele>
        <time>2019-07-11T09:09:54Z</time>
      </trkpt>
      <trkpt lat="45.34958" lon="4.70465">
        <ele>340</ele>
        <time>2019-07-11T09:10:08Z</time>
      </trkpt>
      <trkpt lat="45.3496" lon="4.70468">
        <ele>341</ele>
        <time>2019-07-11T09:10:10Z</time>
      </trkpt>
      <trkpt lat="45.34963" lon="4.70474">
        <ele>342.20001220703</ele>
        <time>2019-07-11T09:10:14Z</time>
      </trkpt>
      <trkpt lat="45.3497" lon="4.70511">
        <ele>345</ele>
        <time>2019-07-11T09:10:32Z</time>
      </trkpt>
      <trkpt lat="45.34971" lon="4.70538">
        <ele>348</ele>
        <time>2019-07-11T09:10:44Z</time>
      </trkpt>
      <trkpt lat="45.34971" lon="4.70541">
        <ele>348.39999389648</ele>
        <time>2019-07-11T09:10:45Z</time>
      </trkpt>
      <trkpt lat="45.34963" lon="4.70535">
        <ele>349.20001220703</ele>
        <time>2019-07-11T09:10:53Z</time>
      </trkpt>
      <trkpt lat="45.34941" lon="4.7051">
        <ele>350.39999389648</ele>
        <time>2019-07-11T09:11:11Z</time>
      </trkpt>
      <trkpt lat="45.34936" lon="4.70511">
        <ele>350.79998779297</ele>
        <time>2019-07-11T09:11:14Z</time>
      </trkpt>
      <trkpt lat="45.34921" lon="4.70529">
        <ele>353.79998779297</ele>
        <time>2019-07-11T09:11:26Z</time>
      </trkpt>
      <trkpt lat="45.34892" lon="4.70559">
        <ele>356.60000610352</ele>
        <time>2019-07-11T09:11:49Z</time>
      </trkpt>
      <trkpt lat="45.34868" lon="4.70585">
        <ele>359.79998779297</ele>
        <time>2019-07-11T09:12:07Z</time>
      </trkpt>
      <trkpt lat="45.34845" lon="4.70606">
        <ele>362.79998779297</ele>
        <time>2019-07-11T09:12:24Z</time>
      </trkpt>
      <trkpt lat="45.34819" lon="4.70633">
        <ele>365.79998779297</ele>
        <time>2019-07-11T09:12:45Z</time>
      </trkpt>
      <trkpt lat="45.34802" lon="4.70647">
        <ele>369.20001220703</ele>
        <time>2019-07-11T09:12:59Z</time>
      </trkpt>
      <trkpt lat="45.34791" lon="4.70657">
        <ele>370.79998779297</ele>
        <time>2019-07-11T09:13:08Z</time>
      </trkpt>
      <trkpt lat="45.34782" lon="4.70667">
        <ele>371.20001220703</ele>
        <time>2019-07-11T09:13:16Z</time>
      </trkpt>
      <trkpt lat="45.34753" lon="4.707">
        <ele>373.20001220703</ele>
        <time>2019-07-11T09:13:39Z</time>
      </trkpt>
      <trkpt lat="45.34746" lon="4.70705">
        <ele>375.20001220703</ele>
        <time>2019-07-11T09:14:01Z</time>
      </trkpt>
      <trkpt lat="45.34726" lon="4.70729">
        <ele>375.20001220703</ele>
        <time>2019-07-11T09:16:40Z</time>
      </trkpt>
      <trkpt lat="45.34705" lon="4.70744">
        <ele>378.39999389648</ele>
        <time>2019-07-11T09:16:57Z</time>
      </trkpt>
      <trkpt lat="45.3469" lon="4.70756">
        <ele>380.20001220703</ele>
        <time>2019-07-11T09:17:10Z</time>
      </trkpt>
      <trkpt lat="45.34672" lon="4.70762">
        <ele>382.79998779297</ele>
        <time>2019-07-11T09:17:25Z</time>
      </trkpt>
      <trkpt lat="45.34672" lon="4.70746">
        <ele>383.60000610352</ele>
        <time>2019-07-11T09:17:29Z</time>
      </trkpt>
      <trkpt lat="45.34675" lon="4.70666">
        <ele>381.39999389648</ele>
        <time>2019-07-11T09:17:40Z</time>
      </trkpt>
      <trkpt lat="45.34669" lon="4.70582">
        <ele>379.79998779297</ele>
        <time>2019-07-11T09:17:50Z</time>
      </trkpt>
      <trkpt lat="45.34666" lon="4.70538">
        <ele>379.39999389648</ele>
        <time>2019-07-11T09:17:55Z</time>
      </trkpt>
      <trkpt lat="45.34649" lon="4.70478">
        <ele>376.39999389648</ele>
        <time>2019-07-11T09:18:01Z</time>
      </trkpt>
      <trkpt lat="45.34645" lon="4.70455">
        <ele>375.20001220703</ele>
        <time>2019-07-11T09:18:03Z</time>
      </trkpt>
      <trkpt lat="45.34616" lon="4.70365">
        <ele>374.79998779297</ele>
        <time>2019-07-11T09:18:16Z</time>
      </trkpt>
      <trkpt lat="45.34593" lon="4.7029">
        <ele>374.39999389648</ele>
        <time>2019-07-11T09:18:28Z</time>
      </trkpt>
      <trkpt lat="45.34565" lon="4.70247">
        <ele>372.60000610352</ele>
        <time>2019-07-11T09:18:38Z</time>
      </trkpt>
      <trkpt lat="45.3456" lon="4.70206">
        <ele>372.60000610352</ele>
        <time>2019-07-11T09:18:47Z</time>
      </trkpt>
      <trkpt lat="45.34537" lon="4.7019">
        <ele>374.79998779297</ele>
        <time>2019-07-11T09:18:58Z</time>
      </trkpt>
      <trkpt lat="45.34517" lon="4.70197">
        <ele>377.79998779297</ele>
        <time>2019-07-11T09:19:09Z</time>
      </trkpt>
      <trkpt lat="45.34499" lon="4.702">
        <ele>380.79998779297</ele>
        <time>2019-07-11T09:19:20Z</time>
      </trkpt>
      <trkpt lat="45.34484" lon="4.702">
        <ele>382</ele>
        <time>2019-07-11T09:19:29Z</time>
      </trkpt>
      <trkpt lat="45.34469" lon="4.70204">
        <ele>384.60000610352</ele>
        <time>2019-07-11T09:19:40Z</time>
      </trkpt>
      <trkpt lat="45.34455" lon="4.70207">
        <ele>386.79998779297</ele>
        <time>2019-07-11T09:19:51Z</time>
      </trkpt>
      <trkpt lat="45.34442" lon="4.70207">
        <ele>387.60000610352</ele>
        <time>2019-07-11T09:20:00Z</time>
      </trkpt>
      <trkpt lat="45.34437" lon="4.70208">
        <ele>389.20001220703</ele>
        <time>2019-07-11T09:20:04Z</time>
      </trkpt>
      <trkpt lat="45.34413" lon="4.70207">
        <ele>391.79998779297</ele>
        <time>2019-07-11T09:20:20Z</time>
      </trkpt>
      <trkpt lat="45.34366" lon="4.70215">
        <ele>395.20001220703</ele>
        <time>2019-07-11T09:20:48Z</time>
      </trkpt>
      <trkpt lat="45.34329" lon="4.7022">
        <ele>398</ele>
        <time>2019-07-11T09:21:09Z</time>
      </trkpt>
      <trkpt lat="45.34323" lon="4.70223">
        <ele>400.20001220703</ele>
        <time>2019-07-11T09:21:13Z</time>
      </trkpt>
      <trkpt lat="45.34287" lon="4.7023">
        <ele>403.39999389648</ele>
        <time>2019-07-11T09:21:36Z</time>
      </trkpt>
      <trkpt lat="45.34272" lon="4.70235">
        <ele>406.39999389648</ele>
        <time>2019-07-11T09:21:46Z</time>
      </trkpt>
      <trkpt lat="45.34249" lon="4.70251">
        <ele>408.39999389648</ele>
        <time>2019-07-11T09:22:05Z</time>
      </trkpt>
      <trkpt lat="45.34228" lon="4.7026">
        <ele>409.79998779297</ele>
        <time>2019-07-11T09:22:19Z</time>
      </trkpt>
      <trkpt lat="45.34226" lon="4.70261">
        <ele>410.20001220703</ele>
        <time>2019-07-11T09:22:20Z</time>
      </trkpt>
      <trkpt lat="45.34188" lon="4.70285">
        <ele>412.79998779297</ele>
        <time>2019-07-11T09:22:47Z</time>
      </trkpt>
      <trkpt lat="45.34167" lon="4.70297">
        <ele>415.79998779297</ele>
        <time>2019-07-11T09:23:02Z</time>
      </trkpt>
      <trkpt lat="45.34164" lon="4.703">
        <ele>417</ele>
        <time>2019-07-11T09:23:05Z</time>
      </trkpt>
      <trkpt lat="45.34158" lon="4.70304">
        <ele>417</ele>
        <time>2019-07-11T09:23:09Z</time>
      </trkpt>
      <trkpt lat="45.3414" lon="4.70313">
        <ele>419</ele>
        <time>2019-07-11T09:23:22Z</time>
      </trkpt>
      <trkpt lat="45.34125" lon="4.70322">
        <ele>422</ele>
        <time>2019-07-11T09:23:35Z</time>
      </trkpt>
      <trkpt lat="45.34107" lon="4.70334">
        <ele>425.20001220703</ele>
        <time>2019-07-11T09:23:49Z</time>
      </trkpt>
      <trkpt lat="45.34097" lon="4.70355">
        <ele>428.20001220703</ele>
        <time>2019-07-11T09:24:03Z</time>
      </trkpt>
      <trkpt lat="45.34092" lon="4.7037">
        <ele>431</ele>
        <time>2019-07-11T09:24:14Z</time>
      </trkpt>
      <trkpt lat="45.34084" lon="4.7039">
        <ele>433.60000610352</ele>
        <time>2019-07-11T09:24:28Z</time>
      </trkpt>
      <trkpt lat="45.3407" lon="4.70406">
        <ele>435.79998779297</ele>
        <time>2019-07-11T09:24:43Z</time>
      </trkpt>
      <trkpt lat="45.34068" lon="4.70407">
        <ele>436.39999389648</ele>
        <time>2019-07-11T09:24:45Z</time>
      </trkpt>
      <trkpt lat="45.34055" lon="4.70415">
        <ele>438.79998779297</ele>
        <time>2019-07-11T09:24:57Z</time>
      </trkpt>
      <trkpt lat="45.34038" lon="4.70425">
        <ele>440.79998779297</ele>
        <time>2019-07-11T09:25:11Z</time>
      </trkpt>
      <trkpt lat="45.34016" lon="4.7043">
        <ele>443.79998779297</ele>
        <time>2019-07-11T09:25:27Z</time>
      </trkpt>
      <trkpt lat="45.33992" lon="4.70433">
        <ele>447.20001220703</ele>
        <time>2019-07-11T09:25:45Z</time>
      </trkpt>
      <trkpt lat="45.33979" lon="4.7043">
        <ele>450.39999389648</ele>
        <time>2019-07-11T09:25:55Z</time>
      </trkpt>
      <trkpt lat="45.33949" lon="4.70413">
        <ele>453.60000610352</ele>
        <time>2019-07-11T09:26:20Z</time>
      </trkpt>
      <trkpt lat="45.33934" lon="4.70412">
        <ele>456.79998779297</ele>
        <time>2019-07-11T09:26:33Z</time>
      </trkpt>
      <trkpt lat="45.33914" lon="4.70425">
        <ele>459.79998779297</ele>
        <time>2019-07-11T09:26:52Z</time>
      </trkpt>
      <trkpt lat="45.33901" lon="4.70436">
        <ele>462.79998779297</ele>
        <time>2019-07-11T09:27:05Z</time>
      </trkpt>
      <trkpt lat="45.33876" lon="4.70458">
        <ele>465.60000610352</ele>
        <time>2019-07-11T09:27:26Z</time>
      </trkpt>
      <trkpt lat="45.33836" lon="4.70466">
        <ele>467.79998779297</ele>
        <time>2019-07-11T09:27:49Z</time>
      </trkpt>
      <trkpt lat="45.33788" lon="4.70457">
        <ele>470.60000610352</ele>
        <time>2019-07-11T09:28:15Z</time>
      </trkpt>
      <trkpt lat="45.33744" lon="4.70454">
        <ele>472.79998779297</ele>
        <time>2019-07-11T09:28:37Z</time>
      </trkpt>
      <trkpt lat="45.33689" lon="4.7045">
        <ele>476</ele>
        <time>2019-07-11T09:29:07Z</time>
      </trkpt>
      <trkpt lat="45.3367" lon="4.70449">
        <ele>479</ele>
        <time>2019-07-11T09:29:19Z</time>
      </trkpt>
      <trkpt lat="45.33649" lon="4.70447">
        <ele>482</ele>
        <time>2019-07-11T09:29:32Z</time>
      </trkpt>
      <trkpt lat="45.33612" lon="4.70435">
        <ele>485.20001220703</ele>
        <time>2019-07-11T09:29:56Z</time>
      </trkpt>
      <trkpt lat="45.33594" lon="4.70428">
        <ele>488.20001220703</ele>
        <time>2019-07-11T09:30:08Z</time>
      </trkpt>
      <trkpt lat="45.33543" lon="4.7041">
        <ele>491.39999389648</ele>
        <time>2019-07-11T09:30:34Z</time>
      </trkpt>
      <trkpt lat="45.33462" lon="4.7035">
        <ele>492.20001220703</ele>
        <time>2019-07-11T09:31:00Z</time>
      </trkpt>
      <trkpt lat="45.33433" lon="4.70315">
        <ele>492.20001220703</ele>
        <time>2019-07-11T09:31:09Z</time>
      </trkpt>
      <trkpt lat="45.3343" lon="4.70311">
        <ele>492.20001220703</ele>
        <time>2019-07-11T09:31:10Z</time>
      </trkpt>
      <trkpt lat="45.33376" lon="4.70215">
        <ele>492.20001220703</ele>
        <time>2019-07-11T09:31:32Z</time>
      </trkpt>
      <trkpt lat="45.33339" lon="4.70183">
        <ele>492.20001220703</ele>
        <time>2019-07-11T09:31:43Z</time>
      </trkpt>
      <trkpt lat="45.33244" lon="4.70167">
        <ele>492.20001220703</ele>
        <time>2019-07-11T09:32:08Z</time>
      </trkpt>
      <trkpt lat="45.33147" lon="4.70139">
        <ele>492.20001220703</ele>
        <time>2019-07-11T09:32:33Z</time>
      </trkpt>
      <trkpt lat="45.33084" lon="4.70083">
        <ele>491.79998779297</ele>
        <time>2019-07-11T09:32:49Z</time>
      </trkpt>
      <trkpt lat="45.33067" lon="4.70064">
        <ele>490.20001220703</ele>
        <time>2019-07-11T09:32:53Z</time>
      </trkpt>
      <trkpt lat="45.33003" lon="4.70021">
        <ele>487.20001220703</ele>
        <time>2019-07-11T09:33:03Z</time>
      </trkpt>
      <trkpt lat="45.32987" lon="4.70012">
        <ele>486.20001220703</ele>
        <time>2019-07-11T09:33:05Z</time>
      </trkpt>
      <trkpt lat="45.32959" lon="4.70008">
        <ele>483.20001220703</ele>
        <time>2019-07-11T09:33:09Z</time>
      </trkpt>
      <trkpt lat="45.32948" lon="4.69974">
        <ele>480.60000610352</ele>
        <time>2019-07-11T09:33:14Z</time>
      </trkpt>
      <trkpt lat="45.32932" lon="4.69953">
        <ele>479.20001220703</ele>
        <time>2019-07-11T09:33:17Z</time>
      </trkpt>
      <trkpt lat="45.32893" lon="4.69914">
        <ele>476.20001220703</ele>
        <time>2019-07-11T09:33:23Z</time>
      </trkpt>
      <trkpt lat="45.32858" lon="4.69875">
        <ele>474</ele>
        <time>2019-07-11T09:33:28Z</time>
      </trkpt>
      <trkpt lat="45.32808" lon="4.69871">
        <ele>471.60000610352</ele>
        <time>2019-07-11T09:33:34Z</time>
      </trkpt>
      <trkpt lat="45.32794" lon="4.69863">
        <ele>470.60000610352</ele>
        <time>2019-07-11T09:33:36Z</time>
      </trkpt>
      <trkpt lat="45.32778" lon="4.69852">
        <ele>470</ele>
        <time>2019-07-11T09:33:39Z</time>
      </trkpt>
      <trkpt lat="45.32724" lon="4.69827">
        <ele>470</ele>
        <time>2019-07-11T09:33:51Z</time>
      </trkpt>
      <trkpt lat="45.3262" lon="4.698">
        <ele>468.79998779297</ele>
        <time>2019-07-11T09:34:08Z</time>
      </trkpt>
      <trkpt lat="45.32602" lon="4.69797">
        <ele>467.79998779297</ele>
        <time>2019-07-11T09:34:10Z</time>
      </trkpt>
      <trkpt lat="45.32558" lon="4.69771">
        <ele>464.39999389648</ele>
        <time>2019-07-11T09:34:15Z</time>
      </trkpt>
      <trkpt lat="45.32534" lon="4.69746">
        <ele>463</ele>
        <time>2019-07-11T09:34:19Z</time>
      </trkpt>
      <trkpt lat="45.32526" lon="4.69734">
        <ele>463</ele>
        <time>2019-07-11T09:34:21Z</time>
      </trkpt>
      <trkpt lat="45.32509" lon="4.69688">
        <ele>464</ele>
        <time>2019-07-11T09:34:30Z</time>
      </trkpt>
      <trkpt lat="45.3249" lon="4.69644">
        <ele>467.20001220703</ele>
        <time>2019-07-11T09:34:44Z</time>
      </trkpt>
      <trkpt lat="45.32473" lon="4.69631">
        <ele>467.20001220703</ele>
        <time>2019-07-11T09:34:54Z</time>
      </trkpt>
      <trkpt lat="45.32459" lon="4.69631">
        <ele>467.20001220703</ele>
        <time>2019-07-11T09:35:05Z</time>
      </trkpt>
      <trkpt lat="45.3241" lon="4.69656">
        <ele>469.39999389648</ele>
        <time>2019-07-11T09:35:22Z</time>
      </trkpt>
      <trkpt lat="45.32392" lon="4.69657">
        <ele>469.39999389648</ele>
        <time>2019-07-11T09:35:28Z</time>
      </trkpt>
      <trkpt lat="45.32334" lon="4.69638">
        <ele>469.39999389648</ele>
        <time>2019-07-11T09:35:50Z</time>
      </trkpt>
      <trkpt lat="45.32258" lon="4.69625">
        <ele>471.39999389648</ele>
        <time>2019-07-11T09:36:14Z</time>
      </trkpt>
      <trkpt lat="45.32205" lon="4.6959">
        <ele>473.39999389648</ele>
        <time>2019-07-11T09:36:33Z</time>
      </trkpt>
      <trkpt lat="45.3213" lon="4.6954">
        <ele>476.60000610352</ele>
        <time>2019-07-11T09:37:04Z</time>
      </trkpt>
      <trkpt lat="45.32099" lon="4.69516">
        <ele>479.79998779297</ele>
        <time>2019-07-11T09:37:19Z</time>
      </trkpt>
      <trkpt lat="45.3204" lon="4.69488">
        <ele>481.79998779297</ele>
        <time>2019-07-11T09:37:47Z</time>
      </trkpt>
      <trkpt lat="45.32005" lon="4.69455">
        <ele>485</ele>
        <time>2019-07-11T09:38:06Z</time>
      </trkpt>
      <trkpt lat="45.31939" lon="4.69411">
        <ele>485.79998779297</ele>
        <time>2019-07-11T09:38:29Z</time>
      </trkpt>
      <trkpt lat="45.31875" lon="4.69347">
        <ele>487.79998779297</ele>
        <time>2019-07-11T09:38:59Z</time>
      </trkpt>
      <trkpt lat="45.31847" lon="4.69311">
        <ele>490.79998779297</ele>
        <time>2019-07-11T09:39:15Z</time>
      </trkpt>
      <trkpt lat="45.31812" lon="4.69267">
        <ele>493.79998779297</ele>
        <time>2019-07-11T09:39:32Z</time>
      </trkpt>
      <trkpt lat="45.31755" lon="4.6918">
        <ele>494.20001220703</ele>
        <time>2019-07-11T09:39:58Z</time>
      </trkpt>
      <trkpt lat="45.31701" lon="4.69115">
        <ele>494.20001220703</ele>
        <time>2019-07-11T09:40:19Z</time>
      </trkpt>
      <trkpt lat="45.31672" lon="4.69044">
        <ele>495.79998779297</ele>
        <time>2019-07-11T09:40:39Z</time>
      </trkpt>
      <trkpt lat="45.3167" lon="4.69044">
        <ele>496.20001220703</ele>
        <time>2019-07-11T09:40:40Z</time>
      </trkpt>
      <trkpt lat="45.31654" lon="4.69066">
        <ele>496.20001220703</ele>
        <time>2019-07-11T09:40:49Z</time>
      </trkpt>
      <trkpt lat="45.31647" lon="4.69078">
        <ele>496.60000610352</ele>
        <time>2019-07-11T09:40:54Z</time>
      </trkpt>
      <trkpt lat="45.31628" lon="4.69092">
        <ele>499.60000610352</ele>
        <time>2019-07-11T09:41:05Z</time>
      </trkpt>
      <trkpt lat="45.31607" lon="4.69098">
        <ele>501.60000610352</ele>
        <time>2019-07-11T09:41:17Z</time>
      </trkpt>
      <trkpt lat="45.31596" lon="4.69094">
        <ele>502.39999389648</ele>
        <time>2019-07-11T09:41:24Z</time>
      </trkpt>
      <trkpt lat="45.31558" lon="4.69074">
        <ele>504.60000610352</ele>
        <time>2019-07-11T09:41:44Z</time>
      </trkpt>
      <trkpt lat="45.31528" lon="4.6905">
        <ele>507</ele>
        <time>2019-07-11T09:42:02Z</time>
      </trkpt>
      <trkpt lat="45.31504" lon="4.69017">
        <ele>510.20001220703</ele>
        <time>2019-07-11T09:42:20Z</time>
      </trkpt>
      <trkpt lat="45.31483" lon="4.68952">
        <ele>512.79998779297</ele>
        <time>2019-07-11T09:42:48Z</time>
      </trkpt>
      <trkpt lat="45.31469" lon="4.68874">
        <ele>514.79998779297</ele>
        <time>2019-07-11T09:43:16Z</time>
      </trkpt>
      <trkpt lat="45.31456" lon="4.68859">
        <ele>515.20001220703</ele>
        <time>2019-07-11T09:43:24Z</time>
      </trkpt>
      <trkpt lat="45.31419" lon="4.68833">
        <ele>516.79998779297</ele>
        <time>2019-07-11T09:43:43Z</time>
      </trkpt>
      <trkpt lat="45.31396" lon="4.68806">
        <ele>519.79998779297</ele>
        <time>2019-07-11T09:43:58Z</time>
      </trkpt>
      <trkpt lat="45.31384" lon="4.688">
        <ele>522.79998779297</ele>
        <time>2019-07-11T09:44:08Z</time>
      </trkpt>
      <trkpt lat="45.31369" lon="4.68792">
        <ele>524.79998779297</ele>
        <time>2019-07-11T09:44:20Z</time>
      </trkpt>
      <trkpt lat="45.31367" lon="4.68788">
        <ele>525.20001220703</ele>
        <time>2019-07-11T09:44:23Z</time>
      </trkpt>
      <trkpt lat="45.31362" lon="4.68783">
        <ele>525.20001220703</ele>
        <time>2019-07-11T09:44:27Z</time>
      </trkpt>
      <trkpt lat="45.3136" lon="4.68776">
        <ele>527.20001220703</ele>
        <time>2019-07-11T09:44:32Z</time>
      </trkpt>
      <trkpt lat="45.31344" lon="4.68758">
        <ele>529.40002441406</ele>
        <time>2019-07-11T09:44:48Z</time>
      </trkpt>
      <trkpt lat="45.31341" lon="4.68751">
        <ele>531.59997558594</ele>
        <time>2019-07-11T09:44:54Z</time>
      </trkpt>
      <trkpt lat="45.3134" lon="4.68749">
        <ele>531.59997558594</ele>
        <time>2019-07-11T09:44:55Z</time>
      </trkpt>
      <trkpt lat="45.31335" lon="4.68734">
        <ele>532</ele>
        <time>2019-07-11T09:45:04Z</time>
      </trkpt>
      <trkpt lat="45.31332" lon="4.68726">
        <ele>533.59997558594</ele>
        <time>2019-07-11T09:45:09Z</time>
      </trkpt>
      <trkpt lat="45.31319" lon="4.68688">
        <ele>535.79998779297</ele>
        <time>2019-07-11T09:45:30Z</time>
      </trkpt>
      <trkpt lat="45.31313" lon="4.68653">
        <ele>538.79998779297</ele>
        <time>2019-07-11T09:45:48Z</time>
      </trkpt>
      <trkpt lat="45.31313" lon="4.6865">
        <ele>539.59997558594</ele>
        <time>2019-07-11T09:45:50Z</time>
      </trkpt>
      <trkpt lat="45.31308" lon="4.68629">
        <ele>540.79998779297</ele>
        <time>2019-07-11T09:46:00Z</time>
      </trkpt>
      <trkpt lat="45.31299" lon="4.68597">
        <ele>542.20001220703</ele>
        <time>2019-07-11T09:46:14Z</time>
      </trkpt>
      <trkpt lat="45.31291" lon="4.6856">
        <ele>544.20001220703</ele>
        <time>2019-07-11T09:46:30Z</time>
      </trkpt>
      <trkpt lat="45.31287" lon="4.68551">
        <ele>545</ele>
        <time>2019-07-11T09:46:34Z</time>
      </trkpt>
      <trkpt lat="45.31273" lon="4.68522">
        <ele>546.20001220703</ele>
        <time>2019-07-11T09:46:52Z</time>
      </trkpt>
      <trkpt lat="45.31263" lon="4.68503">
        <ele>546.20001220703</ele>
        <time>2019-07-11T09:50:01Z</time>
      </trkpt>
      <trkpt lat="45.31249" lon="4.68455">
        <ele>548.40002441406</ele>
        <time>2019-07-11T09:50:20Z</time>
      </trkpt>
      <trkpt lat="45.31244" lon="4.68411">
        <ele>550.40002441406</ele>
        <time>2019-07-11T09:50:34Z</time>
      </trkpt>
      <trkpt lat="45.31244" lon="4.68375">
        <ele>550.40002441406</ele>
        <time>2019-07-11T09:50:46Z</time>
      </trkpt>
      <trkpt lat="45.31227" lon="4.68362">
        <ele>552.20001220703</ele>
        <time>2019-07-11T09:50:55Z</time>
      </trkpt>
      <trkpt lat="45.31218" lon="4.68361">
        <ele>553.40002441406</ele>
        <time>2019-07-11T09:51:01Z</time>
      </trkpt>
      <trkpt lat="45.31201" lon="4.68368">
        <ele>556.59997558594</ele>
        <time>2019-07-11T09:51:12Z</time>
      </trkpt>
      <trkpt lat="45.31167" lon="4.68379">
        <ele>559</ele>
        <time>2019-07-11T09:51:35Z</time>
      </trkpt>
      <trkpt lat="45.31156" lon="4.68379">
        <ele>560.79998779297</ele>
        <time>2019-07-11T09:51:42Z</time>
      </trkpt>
      <trkpt lat="45.31147" lon="4.68381">
        <ele>561.20001220703</ele>
        <time>2019-07-11T09:51:47Z</time>
      </trkpt>
      <trkpt lat="45.31126" lon="4.68379">
        <ele>563.20001220703</ele>
        <time>2019-07-11T09:51:59Z</time>
      </trkpt>
      <trkpt lat="45.3111" lon="4.68367">
        <ele>565.20001220703</ele>
        <time>2019-07-11T09:52:12Z</time>
      </trkpt>
      <trkpt lat="45.31107" lon="4.68364">
        <ele>566.40002441406</ele>
        <time>2019-07-11T09:52:15Z</time>
      </trkpt>
      <trkpt lat="45.31099" lon="4.68353">
        <ele>567.79998779297</ele>
        <time>2019-07-11T09:52:24Z</time>
      </trkpt>
      <trkpt lat="45.31088" lon="4.68338">
        <ele>569.40002441406</ele>
        <time>2019-07-11T09:52:34Z</time>
      </trkpt>
      <trkpt lat="45.31086" lon="4.68333">
        <ele>571</ele>
        <time>2019-07-11T09:52:49Z</time>
      </trkpt>
      <trkpt lat="45.31064" lon="4.68307">
        <ele>573.20001220703</ele>
        <time>2019-07-11T09:53:20Z</time>
      </trkpt>
      <trkpt lat="45.31039" lon="4.68277">
        <ele>576.20001220703</ele>
        <time>2019-07-11T09:53:40Z</time>
      </trkpt>
      <trkpt lat="45.31023" lon="4.68252">
        <ele>579.40002441406</ele>
        <time>2019-07-11T09:53:55Z</time>
      </trkpt>
      <trkpt lat="45.31003" lon="4.68223">
        <ele>579.79998779297</ele>
        <time>2019-07-11T09:54:12Z</time>
      </trkpt>
      <trkpt lat="45.30981" lon="4.68205">
        <ele>581.40002441406</ele>
        <time>2019-07-11T09:54:27Z</time>
      </trkpt>
      <trkpt lat="45.30967" lon="4.68191">
        <ele>581.40002441406</ele>
        <time>2019-07-11T09:54:37Z</time>
      </trkpt>
      <trkpt lat="45.30963" lon="4.68185">
        <ele>582.79998779297</ele>
        <time>2019-07-11T09:54:40Z</time>
      </trkpt>
      <trkpt lat="45.30943" lon="4.68156">
        <ele>584</ele>
        <time>2019-07-11T09:54:56Z</time>
      </trkpt>
      <trkpt lat="45.30942" lon="4.68154">
        <ele>584.40002441406</ele>
        <time>2019-07-11T09:54:57Z</time>
      </trkpt>
      <trkpt lat="45.3093" lon="4.68135">
        <ele>586</ele>
        <time>2019-07-11T09:55:07Z</time>
      </trkpt>
      <trkpt lat="45.30926" lon="4.68129">
        <ele>587.79998779297</ele>
        <time>2019-07-11T09:55:11Z</time>
      </trkpt>
      <trkpt lat="45.30921" lon="4.68117">
        <ele>588.20001220703</ele>
        <time>2019-07-11T09:55:18Z</time>
      </trkpt>
      <trkpt lat="45.3091" lon="4.68096">
        <ele>590.59997558594</ele>
        <time>2019-07-11T09:55:31Z</time>
      </trkpt>
      <trkpt lat="45.309" lon="4.68083">
        <ele>592.40002441406</ele>
        <time>2019-07-11T09:55:42Z</time>
      </trkpt>
      <trkpt lat="45.30889" lon="4.68065">
        <ele>594</ele>
        <time>2019-07-11T09:55:56Z</time>
      </trkpt>
      <trkpt lat="45.30886" lon="4.68061">
        <ele>595.20001220703</ele>
        <time>2019-07-11T09:55:59Z</time>
      </trkpt>
      <trkpt lat="45.30878" lon="4.68049">
        <ele>596.59997558594</ele>
        <time>2019-07-11T09:56:07Z</time>
      </trkpt>
      <trkpt lat="45.30868" lon="4.6804">
        <ele>598.20001220703</ele>
        <time>2019-07-11T09:56:16Z</time>
      </trkpt>
      <trkpt lat="45.30866" lon="4.68038">
        <ele>599</ele>
        <time>2019-07-11T09:56:18Z</time>
      </trkpt>
      <trkpt lat="45.30864" lon="4.68035">
        <ele>600.20001220703</ele>
        <time>2019-07-11T09:56:34Z</time>
      </trkpt>
      <trkpt lat="45.30863" lon="4.68032">
        <ele>600.20001220703</ele>
        <time>2019-07-11T09:56:49Z</time>
      </trkpt>
      <trkpt lat="45.3085" lon="4.68014">
        <ele>602.40002441406</ele>
        <time>2019-07-11T09:57:02Z</time>
      </trkpt>
      <trkpt lat="45.30838" lon="4.67998">
        <ele>605.40002441406</ele>
        <time>2019-07-11T09:57:13Z</time>
      </trkpt>
      <trkpt lat="45.30833" lon="4.67996">
        <ele>606.79998779297</ele>
        <time>2019-07-11T09:57:16Z</time>
      </trkpt>
      <trkpt lat="45.30827" lon="4.67998">
        <ele>606.79998779297</ele>
        <time>2019-07-11T09:57:20Z</time>
      </trkpt>
      <trkpt lat="45.3082" lon="4.68036">
        <ele>608.79998779297</ele>
        <time>2019-07-11T09:57:37Z</time>
      </trkpt>
      <trkpt lat="45.30835" lon="4.68102">
        <ele>608.79998779297</ele>
        <time>2019-07-11T09:57:58Z</time>
      </trkpt>
      <trkpt lat="45.30838" lon="4.68114">
        <ele>610.40002441406</ele>
        <time>2019-07-11T09:58:02Z</time>
      </trkpt>
      <trkpt lat="45.3084" lon="4.68158">
        <ele>611.59997558594</ele>
        <time>2019-07-11T09:58:16Z</time>
      </trkpt>
      <trkpt lat="45.30835" lon="4.6818">
        <ele>612.79998779297</ele>
        <time>2019-07-11T09:58:25Z</time>
      </trkpt>
      <trkpt lat="45.30832" lon="4.68201">
        <ele>612.79998779297</ele>
        <time>2019-07-11T09:58:32Z</time>
      </trkpt>
      <trkpt lat="45.30838" lon="4.68258">
        <ele>615</ele>
        <time>2019-07-11T09:58:48Z</time>
      </trkpt>
      <trkpt lat="45.30867" lon="4.68349">
        <ele>615.79998779297</ele>
        <time>2019-07-11T09:59:11Z</time>
      </trkpt>
      <trkpt lat="45.30866" lon="4.68387">
        <ele>617</ele>
        <time>2019-07-11T09:59:18Z</time>
      </trkpt>
      <trkpt lat="45.30856" lon="4.68442">
        <ele>616.20001220703</ele>
        <time>2019-07-11T09:59:26Z</time>
      </trkpt>
      <trkpt lat="45.30825" lon="4.68533">
        <ele>614.20001220703</ele>
        <time>2019-07-11T09:59:39Z</time>
      </trkpt>
      <trkpt lat="45.30818" lon="4.68564">
        <ele>612.79998779297</ele>
        <time>2019-07-11T09:59:43Z</time>
      </trkpt>
      <trkpt lat="45.30805" lon="4.68611">
        <ele>612.79998779297</ele>
        <time>2019-07-11T09:59:52Z</time>
      </trkpt>
      <trkpt lat="45.30812" lon="4.68687">
        <ele>612.79998779297</ele>
        <time>2019-07-11T10:00:09Z</time>
      </trkpt>
      <trkpt lat="45.3081" lon="4.68701">
        <ele>613.40002441406</ele>
        <time>2019-07-11T10:00:14Z</time>
      </trkpt>
      <trkpt lat="45.30794" lon="4.68719">
        <ele>616.59997558594</ele>
        <time>2019-07-11T10:00:26Z</time>
      </trkpt>
      <trkpt lat="45.30764" lon="4.68764">
        <ele>619.20001220703</ele>
        <time>2019-07-11T10:00:52Z</time>
      </trkpt>
      <trkpt lat="45.30755" lon="4.68805">
        <ele>622.40002441406</ele>
        <time>2019-07-11T10:01:10Z</time>
      </trkpt>
      <trkpt lat="45.30759" lon="4.68848">
        <ele>625.59997558594</ele>
        <time>2019-07-11T10:01:27Z</time>
      </trkpt>
      <trkpt lat="45.30767" lon="4.68888">
        <ele>625.59997558594</ele>
        <time>2019-07-11T10:01:54Z</time>
      </trkpt>
      <trkpt lat="45.30772" lon="4.68928">
        <ele>627.59997558594</ele>
        <time>2019-07-11T10:05:38Z</time>
      </trkpt>
      <trkpt lat="45.30767" lon="4.68966">
        <ele>627.20001220703</ele>
        <time>2019-07-11T10:05:43Z</time>
      </trkpt>
      <trkpt lat="45.30761" lon="4.6899">
        <ele>625.79998779297</ele>
        <time>2019-07-11T10:05:46Z</time>
      </trkpt>
      <trkpt lat="45.30744" lon="4.69039">
        <ele>622.20001220703</ele>
        <time>2019-07-11T10:05:51Z</time>
      </trkpt>
      <trkpt lat="45.3074" lon="4.6905">
        <ele>621.40002441406</ele>
        <time>2019-07-11T10:05:52Z</time>
      </trkpt>
      <trkpt lat="45.30732" lon="4.69098">
        <ele>618.59997558594</ele>
        <time>2019-07-11T10:05:56Z</time>
      </trkpt>
      <trkpt lat="45.30728" lon="4.69134">
        <ele>617.79998779297</ele>
        <time>2019-07-11T10:05:59Z</time>
      </trkpt>
      <trkpt lat="45.30722" lon="4.69193">
        <ele>617.79998779297</ele>
        <time>2019-07-11T10:06:05Z</time>
      </trkpt>
      <trkpt lat="45.30737" lon="4.69266">
        <ele>617.79998779297</ele>
        <time>2019-07-11T10:06:14Z</time>
      </trkpt>
      <trkpt lat="45.30791" lon="4.69336">
        <ele>617.79998779297</ele>
        <time>2019-07-11T10:06:27Z</time>
      </trkpt>
      <trkpt lat="45.30809" lon="4.69361">
        <ele>616.20001220703</ele>
        <time>2019-07-11T10:06:31Z</time>
      </trkpt>
      <trkpt lat="45.30842" lon="4.69404">
        <ele>613.20001220703</ele>
        <time>2019-07-11T10:06:37Z</time>
      </trkpt>
      <trkpt lat="45.30862" lon="4.69448">
        <ele>611.20001220703</ele>
        <time>2019-07-11T10:06:41Z</time>
      </trkpt>
      <trkpt lat="45.30872" lon="4.69522">
        <ele>608.20001220703</ele>
        <time>2019-07-11T10:06:47Z</time>
      </trkpt>
      <trkpt lat="45.3087" lon="4.69544">
        <ele>607.20001220703</ele>
        <time>2019-07-11T10:06:49Z</time>
      </trkpt>
      <trkpt lat="45.30871" lon="4.69574">
        <ele>605.40002441406</ele>
        <time>2019-07-11T10:06:52Z</time>
      </trkpt>
      <trkpt lat="45.30897" lon="4.69663">
        <ele>605</ele>
        <time>2019-07-11T10:07:02Z</time>
      </trkpt>
      <trkpt lat="45.30925" lon="4.69736">
        <ele>601.59997558594</ele>
        <time>2019-07-11T10:07:09Z</time>
      </trkpt>
      <trkpt lat="45.30949" lon="4.69787">
        <ele>598.59997558594</ele>
        <time>2019-07-11T10:07:14Z</time>
      </trkpt>
      <trkpt lat="45.30967" lon="4.69838">
        <ele>597</ele>
        <time>2019-07-11T10:07:19Z</time>
      </trkpt>
      <trkpt lat="45.30984" lon="4.69879">
        <ele>596</ele>
        <time>2019-07-11T10:07:23Z</time>
      </trkpt>
      <trkpt lat="45.31014" lon="4.6996">
        <ele>593</ele>
        <time>2019-07-11T10:07:30Z</time>
      </trkpt>
      <trkpt lat="45.31045" lon="4.70033">
        <ele>591.79998779297</ele>
        <time>2019-07-11T10:07:38Z</time>
      </trkpt>
      <trkpt lat="45.31071" lon="4.70135">
        <ele>591.79998779297</ele>
        <time>2019-07-11T10:07:49Z</time>
      </trkpt>
      <trkpt lat="45.31081" lon="4.70173">
        <ele>591.79998779297</ele>
        <time>2019-07-11T10:07:54Z</time>
      </trkpt>
      <trkpt lat="45.31114" lon="4.70271">
        <ele>591.40002441406</ele>
        <time>2019-07-11T10:08:07Z</time>
      </trkpt>
      <trkpt lat="45.31143" lon="4.70329">
        <ele>588</ele>
        <time>2019-07-11T10:08:13Z</time>
      </trkpt>
      <trkpt lat="45.31151" lon="4.70351">
        <ele>587</ele>
        <time>2019-07-11T10:08:15Z</time>
      </trkpt>
      <trkpt lat="45.31167" lon="4.7039">
        <ele>585.40002441406</ele>
        <time>2019-07-11T10:08:19Z</time>
      </trkpt>
      <trkpt lat="45.31189" lon="4.70424">
        <ele>583.59997558594</ele>
        <time>2019-07-11T10:08:23Z</time>
      </trkpt>
      <trkpt lat="45.31216" lon="4.70483">
        <ele>581.40002441406</ele>
        <time>2019-07-11T10:08:29Z</time>
      </trkpt>
      <trkpt lat="45.31223" lon="4.70516">
        <ele>580.40002441406</ele>
        <time>2019-07-11T10:08:32Z</time>
      </trkpt>
      <trkpt lat="45.31225" lon="4.7059">
        <ele>577.40002441406</ele>
        <time>2019-07-11T10:08:38Z</time>
      </trkpt>
      <trkpt lat="45.31226" lon="4.7063">
        <ele>575.79998779297</ele>
        <time>2019-07-11T10:08:41Z</time>
      </trkpt>
      <trkpt lat="45.31239" lon="4.70678">
        <ele>573.59997558594</ele>
        <time>2019-07-11T10:08:45Z</time>
      </trkpt>
      <trkpt lat="45.31249" lon="4.70703">
        <ele>571.59997558594</ele>
        <time>2019-07-11T10:08:48Z</time>
      </trkpt>
      <trkpt lat="45.31248" lon="4.70727">
        <ele>568.20001220703</ele>
        <time>2019-07-11T10:08:51Z</time>
      </trkpt>
      <trkpt lat="45.31241" lon="4.70742">
        <ele>566.79998779297</ele>
        <time>2019-07-11T10:08:53Z</time>
      </trkpt>
      <trkpt lat="45.31217" lon="4.70781">
        <ele>563.59997558594</ele>
        <time>2019-07-11T10:08:58Z</time>
      </trkpt>
      <trkpt lat="45.31185" lon="4.70801">
        <ele>560.20001220703</ele>
        <time>2019-07-11T10:09:02Z</time>
      </trkpt>
      <trkpt lat="45.31171" lon="4.70809">
        <ele>558.20001220703</ele>
        <time>2019-07-11T10:09:04Z</time>
      </trkpt>
      <trkpt lat="45.31141" lon="4.70799">
        <ele>554.79998779297</ele>
        <time>2019-07-11T10:09:08Z</time>
      </trkpt>
      <trkpt lat="45.31127" lon="4.70746">
        <ele>552.40002441406</ele>
        <time>2019-07-11T10:09:14Z</time>
      </trkpt>
      <trkpt lat="45.31097" lon="4.70682">
        <ele>551.20001220703</ele>
        <time>2019-07-11T10:09:23Z</time>
      </trkpt>
      <trkpt lat="45.3109" lon="4.70683">
        <ele>550.59997558594</ele>
        <time>2019-07-11T10:09:24Z</time>
      </trkpt>
      <trkpt lat="45.31074" lon="4.70683">
        <ele>549.59997558594</ele>
        <time>2019-07-11T10:09:26Z</time>
      </trkpt>
      <trkpt lat="45.31045" lon="4.70664">
        <ele>547.20001220703</ele>
        <time>2019-07-11T10:09:30Z</time>
      </trkpt>
      <trkpt lat="45.31038" lon="4.70656">
        <ele>546.59997558594</ele>
        <time>2019-07-11T10:09:31Z</time>
      </trkpt>
      <trkpt lat="45.31014" lon="4.7064">
        <ele>544.79998779297</ele>
        <time>2019-07-11T10:09:34Z</time>
      </trkpt>
      <trkpt lat="45.30989" lon="4.70638">
        <ele>543</ele>
        <time>2019-07-11T10:09:37Z</time>
      </trkpt>
      <trkpt lat="45.30959" lon="4.70616">
        <ele>540.40002441406</ele>
        <time>2019-07-11T10:09:41Z</time>
      </trkpt>
      <trkpt lat="45.30952" lon="4.70607">
        <ele>539.79998779297</ele>
        <time>2019-07-11T10:09:42Z</time>
      </trkpt>
      <trkpt lat="45.30941" lon="4.70587">
        <ele>538.79998779297</ele>
        <time>2019-07-11T10:09:44Z</time>
      </trkpt>
      <trkpt lat="45.30913" lon="4.70578">
        <ele>536.20001220703</ele>
        <time>2019-07-11T10:09:49Z</time>
      </trkpt>
      <trkpt lat="45.3089" lon="4.70618">
        <ele>533.79998779297</ele>
        <time>2019-07-11T10:09:54Z</time>
      </trkpt>
      <trkpt lat="45.30873" lon="4.70692">
        <ele>532.59997558594</ele>
        <time>2019-07-11T10:10:02Z</time>
      </trkpt>
      <trkpt lat="45.30835" lon="4.70729">
        <ele>530</ele>
        <time>2019-07-11T10:10:09Z</time>
      </trkpt>
      <trkpt lat="45.30826" lon="4.70752">
        <ele>528.59997558594</ele>
        <time>2019-07-11T10:10:12Z</time>
      </trkpt>
      <trkpt lat="45.30819" lon="4.70796">
        <ele>526.59997558594</ele>
        <time>2019-07-11T10:10:16Z</time>
      </trkpt>
      <trkpt lat="45.30817" lon="4.70836">
        <ele>523.59997558594</ele>
        <time>2019-07-11T10:10:20Z</time>
      </trkpt>
      <trkpt lat="45.30819" lon="4.70891">
        <ele>520.20001220703</ele>
        <time>2019-07-11T10:10:24Z</time>
      </trkpt>
      <trkpt lat="45.30819" lon="4.70906">
        <ele>519.40002441406</ele>
        <time>2019-07-11T10:10:25Z</time>
      </trkpt>
      <trkpt lat="45.30811" lon="4.70945">
        <ele>515.79998779297</ele>
        <time>2019-07-11T10:10:28Z</time>
      </trkpt>
      <trkpt lat="45.30788" lon="4.70962">
        <ele>512.79998779297</ele>
        <time>2019-07-11T10:10:31Z</time>
      </trkpt>
      <trkpt lat="45.30761" lon="4.7097">
        <ele>510.79998779297</ele>
        <time>2019-07-11T10:10:34Z</time>
      </trkpt>
      <trkpt lat="45.30726" lon="4.70998">
        <ele>508</ele>
        <time>2019-07-11T10:10:38Z</time>
      </trkpt>
      <trkpt lat="45.30702" lon="4.71022">
        <ele>505.39999389648</ele>
        <time>2019-07-11T10:10:41Z</time>
      </trkpt>
      <trkpt lat="45.30693" lon="4.71038">
        <ele>503.60000610352</ele>
        <time>2019-07-11T10:10:43Z</time>
      </trkpt>
      <trkpt lat="45.30673" lon="4.71078">
        <ele>503.60000610352</ele>
        <time>2019-07-11T10:10:48Z</time>
      </trkpt>
      <trkpt lat="45.30666" lon="4.71158">
        <ele>503.20001220703</ele>
        <time>2019-07-11T10:10:56Z</time>
      </trkpt>
      <trkpt lat="45.30656" lon="4.71186">
        <ele>501.60000610352</ele>
        <time>2019-07-11T10:10:59Z</time>
      </trkpt>
      <trkpt lat="45.3064" lon="4.71219">
        <ele>499</ele>
        <time>2019-07-11T10:11:03Z</time>
      </trkpt>
      <trkpt lat="45.30609" lon="4.71252">
        <ele>496.60000610352</ele>
        <time>2019-07-11T10:11:10Z</time>
      </trkpt>
      <trkpt lat="45.30605" lon="4.7126">
        <ele>496.20001220703</ele>
        <time>2019-07-11T10:11:12Z</time>
      </trkpt>
      <trkpt lat="45.30602" lon="4.71298">
        <ele>494.60000610352</ele>
        <time>2019-07-11T10:11:19Z</time>
      </trkpt>
      <trkpt lat="45.30598" lon="4.71315">
        <ele>494.60000610352</ele>
        <time>2019-07-11T10:11:22Z</time>
      </trkpt>
      <trkpt lat="45.30577" lon="4.71388">
        <ele>493.79998779297</ele>
        <time>2019-07-11T10:11:32Z</time>
      </trkpt>
      <trkpt lat="45.30547" lon="4.71436">
        <ele>491.39999389648</ele>
        <time>2019-07-11T10:11:39Z</time>
      </trkpt>
      <trkpt lat="45.30543" lon="4.71443">
        <ele>491</ele>
        <time>2019-07-11T10:11:40Z</time>
      </trkpt>
      <trkpt lat="45.30522" lon="4.71507">
        <ele>488</ele>
        <time>2019-07-11T10:11:47Z</time>
      </trkpt>
      <trkpt lat="45.30521" lon="4.71516">
        <ele>487.39999389648</ele>
        <time>2019-07-11T10:11:48Z</time>
      </trkpt>
      <trkpt lat="45.30521" lon="4.71548">
        <ele>485.79998779297</ele>
        <time>2019-07-11T10:11:51Z</time>
      </trkpt>
      <trkpt lat="45.30537" lon="4.71595">
        <ele>482.60000610352</ele>
        <time>2019-07-11T10:11:57Z</time>
      </trkpt>
      <trkpt lat="45.30541" lon="4.71602">
        <ele>482.20001220703</ele>
        <time>2019-07-11T10:11:58Z</time>
      </trkpt>
      <trkpt lat="45.30546" lon="4.71626">
        <ele>479.60000610352</ele>
        <time>2019-07-11T10:12:02Z</time>
      </trkpt>
      <trkpt lat="45.30546" lon="4.71634">
        <ele>479</ele>
        <time>2019-07-11T10:12:03Z</time>
      </trkpt>
      <trkpt lat="45.30536" lon="4.71661">
        <ele>476</ele>
        <time>2019-07-11T10:12:07Z</time>
      </trkpt>
      <trkpt lat="45.30521" lon="4.71689">
        <ele>472.60000610352</ele>
        <time>2019-07-11T10:12:11Z</time>
      </trkpt>
      <trkpt lat="45.30513" lon="4.71704">
        <ele>471.20001220703</ele>
        <time>2019-07-11T10:12:13Z</time>
      </trkpt>
      <trkpt lat="45.30509" lon="4.71718">
        <ele>469.60000610352</ele>
        <time>2019-07-11T10:12:15Z</time>
      </trkpt>
      <trkpt lat="45.30508" lon="4.71744">
        <ele>467.20001220703</ele>
        <time>2019-07-11T10:12:18Z</time>
      </trkpt>
      <trkpt lat="45.30517" lon="4.71777">
        <ele>464</ele>
        <time>2019-07-11T10:12:22Z</time>
      </trkpt>
      <trkpt lat="45.3052" lon="4.71786">
        <ele>463.20001220703</ele>
        <time>2019-07-11T10:12:23Z</time>
      </trkpt>
      <trkpt lat="45.30525" lon="4.71805">
        <ele>462</ele>
        <time>2019-07-11T10:12:25Z</time>
      </trkpt>
      <trkpt lat="45.30514" lon="4.71839">
        <ele>458.79998779297</ele>
        <time>2019-07-11T10:12:30Z</time>
      </trkpt>
      <trkpt lat="45.3051" lon="4.71845">
        <ele>457.60000610352</ele>
        <time>2019-07-11T10:12:31Z</time>
      </trkpt>
      <trkpt lat="45.30505" lon="4.7185">
        <ele>457</ele>
        <time>2019-07-11T10:12:32Z</time>
      </trkpt>
      <trkpt lat="45.30482" lon="4.71915">
        <ele>453.79998779297</ele>
        <time>2019-07-11T10:12:40Z</time>
      </trkpt>
      <trkpt lat="45.30474" lon="4.71934">
        <ele>452.60000610352</ele>
        <time>2019-07-11T10:12:42Z</time>
      </trkpt>
      <trkpt lat="45.30459" lon="4.71962">
        <ele>450.60000610352</ele>
        <time>2019-07-11T10:12:45Z</time>
      </trkpt>
      <trkpt lat="45.30434" lon="4.72022">
        <ele>447.39999389648</ele>
        <time>2019-07-11T10:12:51Z</time>
      </trkpt>
      <trkpt lat="45.30416" lon="4.72069">
        <ele>446</ele>
        <time>2019-07-11T10:12:56Z</time>
      </trkpt>
      <trkpt lat="45.30409" lon="4.72139">
        <ele>442.79998779297</ele>
        <time>2019-07-11T10:13:03Z</time>
      </trkpt>
      <trkpt lat="45.30408" lon="4.72148">
        <ele>442.39999389648</ele>
        <time>2019-07-11T10:13:04Z</time>
      </trkpt>
      <trkpt lat="45.30406" lon="4.72156">
        <ele>441.79998779297</ele>
        <time>2019-07-11T10:13:05Z</time>
      </trkpt>
      <trkpt lat="45.30389" lon="4.72195">
        <ele>438.79998779297</ele>
        <time>2019-07-11T10:13:10Z</time>
      </trkpt>
      <trkpt lat="45.30359" lon="4.72199">
        <ele>435.79998779297</ele>
        <time>2019-07-11T10:13:14Z</time>
      </trkpt>
      <trkpt lat="45.30351" lon="4.72202">
        <ele>435</ele>
        <time>2019-07-11T10:13:15Z</time>
      </trkpt>
      <trkpt lat="45.30337" lon="4.72203">
        <ele>433.20001220703</ele>
        <time>2019-07-11T10:13:17Z</time>
      </trkpt>
      <trkpt lat="45.30328" lon="4.72202">
        <ele>431.20001220703</ele>
        <time>2019-07-11T10:13:19Z</time>
      </trkpt>
      <trkpt lat="45.30314" lon="4.72205">
        <ele>428</ele>
        <time>2019-07-11T10:13:22Z</time>
      </trkpt>
      <trkpt lat="45.30295" lon="4.72215">
        <ele>425</ele>
        <time>2019-07-11T10:13:27Z</time>
      </trkpt>
      <trkpt lat="45.3029" lon="4.72221">
        <ele>423.60000610352</ele>
        <time>2019-07-11T10:13:30Z</time>
      </trkpt>
      <trkpt lat="45.30287" lon="4.72246">
        <ele>422.79998779297</ele>
        <time>2019-07-11T10:13:42Z</time>
      </trkpt>
      <trkpt lat="45.3029" lon="4.72289">
        <ele>422.79998779297</ele>
        <time>2019-07-11T10:13:55Z</time>
      </trkpt>
      <trkpt lat="45.30284" lon="4.72388">
        <ele>425.20001220703</ele>
        <time>2019-07-11T10:14:21Z</time>
      </trkpt>
      <trkpt lat="45.30266" lon="4.7243">
        <ele>427</ele>
        <time>2019-07-11T10:14:36Z</time>
      </trkpt>
      <trkpt lat="45.30263" lon="4.72433">
        <ele>427</ele>
        <time>2019-07-11T10:14:56Z</time>
      </trkpt>
      <trkpt lat="45.30262" lon="4.72438">
        <ele>427</ele>
        <time>2019-07-11T10:16:25Z</time>
      </trkpt>
      <trkpt lat="45.30255" lon="4.72451">
        <ele>427</ele>
        <time>2019-07-11T10:16:29Z</time>
      </trkpt>
      <trkpt lat="45.30226" lon="4.72502">
        <ele>427</ele>
        <time>2019-07-11T10:16:37Z</time>
      </trkpt>
      <trkpt lat="45.30201" lon="4.72524">
        <ele>424.79998779297</ele>
        <time>2019-07-11T10:16:41Z</time>
      </trkpt>
      <trkpt lat="45.3018" lon="4.72535">
        <ele>424.39999389648</ele>
        <time>2019-07-11T10:16:44Z</time>
      </trkpt>
      <trkpt lat="45.30164" lon="4.72569">
        <ele>422.60000610352</ele>
        <time>2019-07-11T10:16:48Z</time>
      </trkpt>
      <trkpt lat="45.30166" lon="4.72616">
        <ele>419.79998779297</ele>
        <time>2019-07-11T10:16:53Z</time>
      </trkpt>
      <trkpt lat="45.30156" lon="4.72664">
        <ele>416.39999389648</ele>
        <time>2019-07-11T10:16:58Z</time>
      </trkpt>
      <trkpt lat="45.30148" lon="4.72693">
        <ele>413</ele>
        <time>2019-07-11T10:17:02Z</time>
      </trkpt>
      <trkpt lat="45.30143" lon="4.72694">
        <ele>410.60000610352</ele>
        <time>2019-07-11T10:17:04Z</time>
      </trkpt>
      <trkpt lat="45.30137" lon="4.72693">
        <ele>410.60000610352</ele>
        <time>2019-07-11T10:17:06Z</time>
      </trkpt>
      <trkpt lat="45.30124" lon="4.72692">
        <ele>410.60000610352</ele>
        <time>2019-07-11T10:17:10Z</time>
      </trkpt>
      <trkpt lat="45.301" lon="4.727">
        <ele>408.60000610352</ele>
        <time>2019-07-11T10:17:16Z</time>
      </trkpt>
      <trkpt lat="45.30092" lon="4.72704">
        <ele>408.60000610352</ele>
        <time>2019-07-11T10:17:18Z</time>
      </trkpt>
      <trkpt lat="45.30038" lon="4.72733">
        <ele>408.60000610352</ele>
        <time>2019-07-11T10:17:31Z</time>
      </trkpt>
      <trkpt lat="45.30008" lon="4.72752">
        <ele>408.60000610352</ele>
        <time>2019-07-11T10:17:38Z</time>
      </trkpt>
      <trkpt lat="45.29983" lon="4.72769">
        <ele>408.60000610352</ele>
        <time>2019-07-11T10:17:44Z</time>
      </trkpt>
      <trkpt lat="45.29979" lon="4.72771">
        <ele>408.60000610352</ele>
        <time>2019-07-11T10:17:45Z</time>
      </trkpt>
      <trkpt lat="45.29955" lon="4.72782">
        <ele>408.60000610352</ele>
        <time>2019-07-11T10:17:50Z</time>
      </trkpt>
      <trkpt lat="45.29914" lon="4.72805">
        <ele>408.60000610352</ele>
        <time>2019-07-11T10:17:59Z</time>
      </trkpt>
      <trkpt lat="45.29876" lon="4.72824">
        <ele>408.60000610352</ele>
        <time>2019-07-11T10:18:07Z</time>
      </trkpt>
      <trkpt lat="45.29786" lon="4.72854">
        <ele>408.60000610352</ele>
        <time>2019-07-11T10:18:25Z</time>
      </trkpt>
      <trkpt lat="45.29772" lon="4.72866">
        <ele>408.60000610352</ele>
        <time>2019-07-11T10:18:28Z</time>
      </trkpt>
      <trkpt lat="45.29667" lon="4.72954">
        <ele>408.60000610352</ele>
        <time>2019-07-11T10:18:52Z</time>
      </trkpt>
      <trkpt lat="45.29606" lon="4.72989">
        <ele>408.60000610352</ele>
        <time>2019-07-11T10:19:03Z</time>
      </trkpt>
      <trkpt lat="45.29595" lon="4.72992">
        <ele>408.20001220703</ele>
        <time>2019-07-11T10:19:05Z</time>
      </trkpt>
      <trkpt lat="45.29539" lon="4.72999">
        <ele>405</ele>
        <time>2019-07-11T10:19:13Z</time>
      </trkpt>
      <trkpt lat="45.29429" lon="4.73021">
        <ele>404.20001220703</ele>
        <time>2019-07-11T10:19:31Z</time>
      </trkpt>
      <trkpt lat="45.29396" lon="4.73018">
        <ele>404.20001220703</ele>
        <time>2019-07-11T10:19:37Z</time>
      </trkpt>
      <trkpt lat="45.29387" lon="4.73016">
        <ele>404.20001220703</ele>
        <time>2019-07-11T10:19:39Z</time>
      </trkpt>
      <trkpt lat="45.29385" lon="4.7305">
        <ele>404.20001220703</ele>
        <time>2019-07-11T10:19:45Z</time>
      </trkpt>
      <trkpt lat="45.29389" lon="4.73068">
        <ele>404.20001220703</ele>
        <time>2019-07-11T10:19:47Z</time>
      </trkpt>
      <trkpt lat="45.29397" lon="4.73126">
        <ele>403.20001220703</ele>
        <time>2019-07-11T10:19:53Z</time>
      </trkpt>
      <trkpt lat="45.29404" lon="4.73155">
        <ele>402</ele>
        <time>2019-07-11T10:19:56Z</time>
      </trkpt>
      <trkpt lat="45.29392" lon="4.73191">
        <ele>400.20001220703</ele>
        <time>2019-07-11T10:20:01Z</time>
      </trkpt>
      <trkpt lat="45.29387" lon="4.73196">
        <ele>399.79998779297</ele>
        <time>2019-07-11T10:20:02Z</time>
      </trkpt>
      <trkpt lat="45.29339" lon="4.7326">
        <ele>397.39999389648</ele>
        <time>2019-07-11T10:20:11Z</time>
      </trkpt>
      <trkpt lat="45.29276" lon="4.73331">
        <ele>394.39999389648</ele>
        <time>2019-07-11T10:20:22Z</time>
      </trkpt>
      <trkpt lat="45.29241" lon="4.73377">
        <ele>392.79998779297</ele>
        <time>2019-07-11T10:20:30Z</time>
      </trkpt>
      <trkpt lat="45.2924" lon="4.73391">
        <ele>391</ele>
        <time>2019-07-11T10:20:37Z</time>
      </trkpt>
      <trkpt lat="45.29241" lon="4.73391">
        <ele>391</ele>
        <time>2019-07-11T10:20:40Z</time>
      </trkpt>
      <trkpt lat="45.29251" lon="4.73417">
        <ele>391</ele>
        <time>2019-07-11T10:20:50Z</time>
      </trkpt>
      <trkpt lat="45.29254" lon="4.73423">
        <ele>391</ele>
        <time>2019-07-11T10:20:52Z</time>
      </trkpt>
      <trkpt lat="45.2926" lon="4.73429">
        <ele>391</ele>
        <time>2019-07-11T10:21:06Z</time>
      </trkpt>
      <trkpt lat="45.29258" lon="4.73429">
        <ele>391</ele>
        <time>2019-07-11T10:21:17Z</time>
      </trkpt>
    </trkseg>
  </trk>
</gpx>